<?xml version='1.0' encoding='UTF-8'?><gpx version="1.1" creator="JPX - https://github.com/jenetics/jpx" xmlns="http://www.topografix.com/GPX/1/1"><trk><trkseg><trkpt lat="45.06730900620946" lon="7.392824996019876"><ele>351.0</ele><time>2026-04-18T14:47:08.998Z</time></trkpt><trkpt lat="45.06724615315185" lon="7.392848371501375"><ele>351.0</ele><time>2026-04-18T14:47:09.998Z</time></trkpt><trkpt lat="45.0671180855986" lon="7.392902207403614"><ele>351.0</ele><time>2026-04-18T14:47:11.998Z</time></trkpt><trkpt lat="45.067047147716565" lon="7.392936969466865"><ele>351.0</ele><time>2026-04-18T14:47:12.998Z</time></trkpt><trkpt lat="45.06696257119965" lon="7.392965418055221"><ele>351.0</ele><time>2026-04-18T14:47:13.998Z</time></trkpt><trkpt lat="45.066881806966705" lon="7.392987912438867"><ele>351.0</ele><time>2026-04-18T14:47:14.998Z</time></trkpt><trkpt lat="45.06679702232186" lon="7.392985057873735"><ele>352.1666666666667</ele><time>2026-04-18T14:47:15.998Z</time></trkpt><trkpt lat="45.066704267671696" lon="7.3930262709133565"><ele>353.3333333333333</ele><time>2026-04-18T14:47:16.998Z</time></trkpt><trkpt lat="45.066623757050486" lon="7.393032736105606"><ele>354.5</ele><time>2026-04-18T14:47:17.998Z</time></trkpt><trkpt lat="45.06654301714483" lon="7.3930428955458005"><ele>355.66666666666663</ele><time>2026-04-18T14:47:18.998Z</time></trkpt><trkpt lat="45.06644914938999" lon="7.3930504179345515"><ele>356.8333333333333</ele><time>2026-04-18T14:47:19.998Z</time></trkpt><trkpt lat="45.06635761034018" lon="7.393060691985794"><ele>358.0</ele><time>2026-04-18T14:47:20.998Z</time></trkpt><trkpt lat="45.066251584844466" lon="7.393082455471999"><ele>358.0</ele><time>2026-04-18T14:47:21.998Z</time></trkpt><trkpt lat="45.06614599366544" lon="7.393100566592782"><ele>358.0</ele><time>2026-04-18T14:47:22.998Z</time></trkpt><trkpt lat="45.0660414629743" lon="7.393108161265486"><ele>358.0</ele><time>2026-04-18T14:47:23.998Z</time></trkpt><trkpt lat="45.06593442546475" lon="7.393124363928054"><ele>358.0</ele><time>2026-04-18T14:47:24.998Z</time></trkpt><trkpt lat="45.06582120573241" lon="7.393144657837588"><ele>358.0</ele><time>2026-04-18T14:47:25.998Z</time></trkpt><trkpt lat="45.065723006446476" lon="7.393161952471619"><ele>357.66666666666663</ele><time>2026-04-18T14:47:26.998Z</time></trkpt><trkpt lat="45.0656361766881" lon="7.393176449060024"><ele>357.3333333333333</ele><time>2026-04-18T14:47:27.998Z</time></trkpt><trkpt lat="45.065553790652395" lon="7.393189513839349"><ele>357.0</ele><time>2026-04-18T14:47:28.998Z</time></trkpt><trkpt lat="45.065463728222845" lon="7.393205242559381"><ele>356.6666666666667</ele><time>2026-04-18T14:47:29.998Z</time></trkpt><trkpt lat="45.06537794758481" lon="7.393221022353069"><ele>356.33333333333337</ele><time>2026-04-18T14:47:30.998Z</time></trkpt><trkpt lat="45.06529026411269" lon="7.393234522369871"><ele>356.0</ele><time>2026-04-18T14:47:31.999Z</time></trkpt><trkpt lat="45.06520276766746" lon="7.3932512103178905"><ele>356.0</ele><time>2026-04-18T14:47:32.999Z</time></trkpt><trkpt lat="45.06511008394913" lon="7.39326811435895"><ele>356.0</ele><time>2026-04-18T14:47:33.999Z</time></trkpt><trkpt lat="45.06502073052008" lon="7.393284674499352"><ele>356.0</ele><time>2026-04-18T14:47:34.999Z</time></trkpt><trkpt lat="45.064917106578754" lon="7.393299163457471"><ele>356.0</ele><time>2026-04-18T14:47:35.999Z</time></trkpt><trkpt lat="45.06481213621049" lon="7.393305293866544"><ele>356.0</ele><time>2026-04-18T14:47:36.999Z</time></trkpt><trkpt lat="45.064727884617916" lon="7.393311958486859"><ele>356.4</ele><time>2026-04-18T14:47:37.999Z</time></trkpt><trkpt lat="45.0646363493268" lon="7.393322207160131"><ele>356.8</ele><time>2026-04-18T14:47:38.999Z</time></trkpt><trkpt lat="45.064532392631804" lon="7.39333456735859"><ele>357.2</ele><time>2026-04-18T14:47:39.999Z</time></trkpt><trkpt lat="45.06442236414377" lon="7.393345249111835"><ele>357.59999999999997</ele><time>2026-04-18T14:47:40.999Z</time></trkpt><trkpt lat="45.06430745576103" lon="7.393349886388956"><ele>358.0</ele><time>2026-04-18T14:47:41.999Z</time></trkpt><trkpt lat="45.064215141126525" lon="7.393350037747275"><ele>358.75</ele><time>2026-04-18T14:47:42.999Z</time></trkpt><trkpt lat="45.06411019787484" lon="7.393334571815815"><ele>359.5</ele><time>2026-04-18T14:47:43.999Z</time></trkpt><trkpt lat="45.06398878691386" lon="7.393300565406831"><ele>360.25</ele><time>2026-04-18T14:47:44.999Z</time></trkpt><trkpt lat="45.06386746131124" lon="7.393254568741239"><ele>361.0</ele><time>2026-04-18T14:47:45.999Z</time></trkpt><trkpt lat="45.06376871599611" lon="7.393204996238432"><ele>361.0</ele><time>2026-04-18T14:47:46.999Z</time></trkpt><trkpt lat="45.06368854484061" lon="7.393158357378823"><ele>361.0</ele><time>2026-04-18T14:47:47.999Z</time></trkpt><trkpt lat="45.063617843586016" lon="7.39311369023928"><ele>361.0</ele><time>2026-04-18T14:47:48.999Z</time></trkpt><trkpt lat="45.0635500153031" lon="7.393078580583764"><ele>361.0</ele><time>2026-04-18T14:47:49.999Z</time></trkpt><trkpt lat="45.06345484909652" lon="7.393025958284177"><ele>361.0</ele><time>2026-04-18T14:47:50.999Z</time></trkpt><trkpt lat="45.06335721479264" lon="7.392966567757538"><ele>361.0</ele><time>2026-04-18T14:47:51.999Z</time></trkpt><trkpt lat="45.06324687231178" lon="7.392903283429225"><ele>359.75</ele><time>2026-04-18T14:47:52.999Z</time></trkpt><trkpt lat="45.063153822762025" lon="7.392828103976442"><ele>358.5</ele><time>2026-04-18T14:47:53.999Z</time></trkpt><trkpt lat="45.06304594380993" lon="7.392802331703635"><ele>357.25</ele><time>2026-04-18T14:47:54.999Z</time></trkpt><trkpt lat="45.06294083187422" lon="7.392726760419968"><ele>356.0</ele><time>2026-04-18T14:47:55.999Z</time></trkpt><trkpt lat="45.062829362145685" lon="7.392673538403315"><ele>356.0</ele><time>2026-04-18T14:47:56.999Z</time></trkpt><trkpt lat="45.06273471987861" lon="7.392616492121477"><ele>356.0</ele><time>2026-04-18T14:47:57.999Z</time></trkpt><trkpt lat="45.062633020876376" lon="7.392561629844797"><ele>356.0</ele><time>2026-04-18T14:47:58.999Z</time></trkpt><trkpt lat="45.06255232167513" lon="7.392511206075651"><ele>356.0</ele><time>2026-04-18T14:47:59.999Z</time></trkpt><trkpt lat="45.062483318076964" lon="7.392472446784227"><ele>356.0</ele><time>2026-04-18T14:48:00.999Z</time></trkpt><trkpt lat="45.06241864936279" lon="7.392440790360669"><ele>356.0</ele><time>2026-04-18T14:48:01.999Z</time></trkpt><trkpt lat="45.06234028700969" lon="7.392386026968228"><ele>356.1666666666667</ele><time>2026-04-18T14:48:02.999Z</time></trkpt><trkpt lat="45.06225871482807" lon="7.392333920425453"><ele>356.33333333333337</ele><time>2026-04-18T14:48:03.999Z</time></trkpt><trkpt lat="45.062204101565676" lon="7.392289464280684"><ele>356.5</ele><time>2026-04-18T14:48:04.999Z</time></trkpt><trkpt lat="45.06213320597003" lon="7.392234353917848"><ele>356.6666666666667</ele><time>2026-04-18T14:48:06.999Z</time></trkpt><trkpt lat="45.06206673410147" lon="7.392156289847244"><ele>356.8333333333333</ele><time>2026-04-18T14:48:18.999Z</time></trkpt><trkpt lat="45.06201181081991" lon="7.39207683389068"><ele>357.0</ele><time>2026-04-18T14:48:19.999Z</time></trkpt><trkpt lat="45.06194299755083" lon="7.392036924705853"><ele>357.0</ele><time>2026-04-18T14:48:20.999Z</time></trkpt><trkpt lat="45.06189799450848" lon="7.391909653931779"><ele>357.0</ele><time>2026-04-18T14:48:21.999Z</time></trkpt><trkpt lat="45.06185391407185" lon="7.391817521960365"><ele>357.0</ele><time>2026-04-18T14:48:22.999Z</time></trkpt><trkpt lat="45.06180384128041" lon="7.391733708605486"><ele>357.0</ele><time>2026-04-18T14:48:23.999Z</time></trkpt><trkpt lat="45.06173487232459" lon="7.3916255659796715"><ele>357.0</ele><time>2026-04-18T14:48:24.999Z</time></trkpt><trkpt lat="45.06166448183418" lon="7.391495518537816"><ele>356.75</ele><time>2026-04-18T14:48:25.999Z</time></trkpt><trkpt lat="45.061590944020956" lon="7.391338198150878"><ele>356.5</ele><time>2026-04-18T14:48:26.999Z</time></trkpt><trkpt lat="45.061516791878645" lon="7.391195231289878"><ele>356.25</ele><time>2026-04-18T14:48:27.999Z</time></trkpt><trkpt lat="45.06145785506398" lon="7.391069630820298"><ele>356.0</ele><time>2026-04-18T14:48:28.999Z</time></trkpt><trkpt lat="45.061395761754994" lon="7.390951744837428"><ele>356.0</ele><time>2026-04-18T14:48:29.999Z</time></trkpt><trkpt lat="45.061330924774346" lon="7.3908092395057885"><ele>356.0</ele><time>2026-04-18T14:48:30.999Z</time></trkpt><trkpt lat="45.06125373722782" lon="7.390663548704872"><ele>356.0</ele><time>2026-04-18T14:48:31.999Z</time></trkpt><trkpt lat="45.061192229586304" lon="7.390530134123717"><ele>356.0</ele><time>2026-04-18T14:48:32.999Z</time></trkpt><trkpt lat="45.061127899016206" lon="7.390399091802959"><ele>356.0</ele><time>2026-04-18T14:48:33.999Z</time></trkpt><trkpt lat="45.06104946582721" lon="7.390249787674652"><ele>356.0</ele><time>2026-04-18T14:48:34.999Z</time></trkpt><trkpt lat="45.060978011161055" lon="7.39010122944148"><ele>356.0</ele><time>2026-04-18T14:48:35.999Z</time></trkpt><trkpt lat="45.060908048536355" lon="7.389959678603739"><ele>356.0</ele><time>2026-04-18T14:48:36.999Z</time></trkpt><trkpt lat="45.06081031552531" lon="7.389804479790283"><ele>358.0</ele><time>2026-04-18T14:48:37.999Z</time></trkpt><trkpt lat="45.06069406101673" lon="7.389635629817495"><ele>360.0</ele><time>2026-04-18T14:48:38.999Z</time></trkpt><trkpt lat="45.06057183201356" lon="7.389418949104131"><ele>362.0</ele><time>2026-04-18T14:48:39.999Z</time></trkpt><trkpt lat="45.06042365001364" lon="7.389166214298781"><ele>362.0</ele><time>2026-04-18T14:48:40.999Z</time></trkpt><trkpt lat="45.060251151688355" lon="7.3889120104392845"><ele>362.0</ele><time>2026-04-18T14:48:41.999Z</time></trkpt><trkpt lat="45.06010644635573" lon="7.38868304569374"><ele>363.0</ele><time>2026-04-18T14:48:42.999Z</time></trkpt><trkpt lat="45.05999588026774" lon="7.388484224482789"><ele>364.0</ele><time>2026-04-18T14:48:43.999Z</time></trkpt><trkpt lat="45.05989846301434" lon="7.388322567259344"><ele>365.0</ele><time>2026-04-18T14:48:44.999Z</time></trkpt><trkpt lat="45.059822574831884" lon="7.3881263936430015"><ele>365.6666666666667</ele><time>2026-04-18T14:48:45.999Z</time></trkpt><trkpt lat="45.05974508524415" lon="7.3879234251947725"><ele>366.3333333333333</ele><time>2026-04-18T14:48:46.999Z</time></trkpt><trkpt lat="45.05967697049391" lon="7.387731668437123"><ele>367.0</ele><time>2026-04-18T14:48:47.999Z</time></trkpt><trkpt lat="45.05961971659635" lon="7.387519523677839"><ele>367.0</ele><time>2026-04-18T14:48:48.999Z</time></trkpt><trkpt lat="45.05958575102736" lon="7.387298194306703"><ele>367.0</ele><time>2026-04-18T14:48:49.999Z</time></trkpt><trkpt lat="45.05956391333437" lon="7.387062821267686"><ele>367.0</ele><time>2026-04-18T14:48:50.999Z</time></trkpt><trkpt lat="45.05955269392822" lon="7.386832236524195"><ele>368.0</ele><time>2026-04-18T14:48:51.999Z</time></trkpt><trkpt lat="45.059552387961524" lon="7.386616890658157"><ele>369.0</ele><time>2026-04-18T14:48:52.999Z</time></trkpt><trkpt lat="45.05954352978568" lon="7.386419018892926"><ele>370.0</ele><time>2026-04-18T14:48:53.999Z</time></trkpt><trkpt lat="45.05952208322604" lon="7.38622779625182"><ele>371.0</ele><time>2026-04-18T14:48:54.999Z</time></trkpt><trkpt lat="45.05947630572919" lon="7.3860435852566795"><ele>372.5</ele><time>2026-04-18T14:48:55.999Z</time></trkpt><trkpt lat="45.05939097072894" lon="7.385865486221066"><ele>374.0</ele><time>2026-04-18T14:48:56.999Z</time></trkpt><trkpt lat="45.05928931692939" lon="7.385712199015098"><ele>375.5</ele><time>2026-04-18T14:48:57.999Z</time></trkpt><trkpt lat="45.05920785833543" lon="7.385586278242148"><ele>377.0</ele><time>2026-04-18T14:48:58.999Z</time></trkpt><trkpt lat="45.05912000635579" lon="7.385467225865595"><ele>374.5</ele><time>2026-04-18T14:48:59.999Z</time></trkpt><trkpt lat="45.0590422005451" lon="7.385319783351693"><ele>372.0</ele><time>2026-04-18T14:49:00.999Z</time></trkpt><trkpt lat="45.05897506524633" lon="7.385162189640623"><ele>369.5</ele><time>2026-04-18T14:49:01.999Z</time></trkpt><trkpt lat="45.05892645068571" lon="7.3849698064050155"><ele>367.0</ele><time>2026-04-18T14:49:02.999Z</time></trkpt><trkpt lat="45.05889246054023" lon="7.384753317008133"><ele>368.25</ele><time>2026-04-18T14:49:03.999Z</time></trkpt><trkpt lat="45.05887259411709" lon="7.384555606118178"><ele>369.5</ele><time>2026-04-18T14:49:04.999Z</time></trkpt><trkpt lat="45.05887275622231" lon="7.38435546028891"><ele>370.75</ele><time>2026-04-18T14:49:05.998Z</time></trkpt><trkpt lat="45.05881751449032" lon="7.3841898519917635"><ele>372.0</ele><time>2026-04-18T14:49:06.998Z</time></trkpt><trkpt lat="45.058799541841196" lon="7.384009904316269"><ele>374.0</ele><time>2026-04-18T14:49:07.998Z</time></trkpt><trkpt lat="45.05876570716973" lon="7.3838267744924835"><ele>376.0</ele><time>2026-04-18T14:49:08.998Z</time></trkpt><trkpt lat="45.058739022659644" lon="7.38363024426815"><ele>378.0</ele><time>2026-04-18T14:49:09.998Z</time></trkpt><trkpt lat="45.05870978966441" lon="7.383450829741072"><ele>380.0</ele><time>2026-04-18T14:49:10.998Z</time></trkpt><trkpt lat="45.058692548187786" lon="7.38330560294632"><ele>380.0</ele><time>2026-04-18T14:49:11.998Z</time></trkpt><trkpt lat="45.05866462305833" lon="7.383103538206432"><ele>380.0</ele><time>2026-04-18T14:49:12.998Z</time></trkpt><trkpt lat="45.058642443542105" lon="7.382870570445936"><ele>380.0</ele><time>2026-04-18T14:49:13.998Z</time></trkpt><trkpt lat="45.05864218247824" lon="7.3826317784177835"><ele>380.25</ele><time>2026-04-18T14:49:14.998Z</time></trkpt><trkpt lat="45.058621447421004" lon="7.382446936957185"><ele>380.5</ele><time>2026-04-18T14:49:15.998Z</time></trkpt><trkpt lat="45.0585935353105" lon="7.382289350151823"><ele>380.75</ele><time>2026-04-18T14:49:16.998Z</time></trkpt><trkpt lat="45.058586975805106" lon="7.382132307759641"><ele>381.0</ele><time>2026-04-18T14:49:17.998Z</time></trkpt><trkpt lat="45.05858336133616" lon="7.38195304811464"><ele>381.0</ele><time>2026-04-18T14:49:18.998Z</time></trkpt><trkpt lat="45.05859977690932" lon="7.381760709041477"><ele>381.0</ele><time>2026-04-18T14:49:19.998Z</time></trkpt><trkpt lat="45.05864250694035" lon="7.381545813282228"><ele>381.0</ele><time>2026-04-18T14:49:20.998Z</time></trkpt><trkpt lat="45.058729164735105" lon="7.38135231089532"><ele>380.75</ele><time>2026-04-18T14:49:21.998Z</time></trkpt><trkpt lat="45.05880679659712" lon="7.381165000382477"><ele>380.5</ele><time>2026-04-18T14:49:22.998Z</time></trkpt><trkpt lat="45.0588985602224" lon="7.381000600615326"><ele>380.25</ele><time>2026-04-18T14:49:23.998Z</time></trkpt><trkpt lat="45.05897510750468" lon="7.380854550475697"><ele>380.0</ele><time>2026-04-18T14:49:24.998Z</time></trkpt><trkpt lat="45.05903905326745" lon="7.38068929538286"><ele>383.0</ele><time>2026-04-18T14:49:25.998Z</time></trkpt><trkpt lat="45.059082894467615" lon="7.380494544276275"><ele>386.0</ele><time>2026-04-18T14:49:26.998Z</time></trkpt><trkpt lat="45.05909191430935" lon="7.380279211837904"><ele>389.0</ele><time>2026-04-18T14:49:27.998Z</time></trkpt><trkpt lat="45.05907035679847" lon="7.380061752045136"><ele>389.0</ele><time>2026-04-18T14:49:28.998Z</time></trkpt><trkpt lat="45.059012977627624" lon="7.379876744653397"><ele>389.0</ele><time>2026-04-18T14:49:29.998Z</time></trkpt><trkpt lat="45.05892259689044" lon="7.379716784848994"><ele>389.0</ele><time>2026-04-18T14:49:30.998Z</time></trkpt><trkpt lat="45.0588130216902" lon="7.379605635347417"><ele>389.0</ele><time>2026-04-18T14:49:31.998Z</time></trkpt><trkpt lat="45.05869680922679" lon="7.379522565078543"><ele>392.75</ele><time>2026-04-18T14:49:32.998Z</time></trkpt><trkpt lat="45.058582956778935" lon="7.379478852662139"><ele>396.5</ele><time>2026-04-18T14:49:33.998Z</time></trkpt><trkpt lat="45.05844956655048" lon="7.379468929828891"><ele>400.25</ele><time>2026-04-18T14:49:34.998Z</time></trkpt><trkpt lat="45.05830873599402" lon="7.379494912916786"><ele>404.0</ele><time>2026-04-18T14:49:35.998Z</time></trkpt><trkpt lat="45.0581692054943" lon="7.3795461760808845"><ele>406.3333333333333</ele><time>2026-04-18T14:49:36.998Z</time></trkpt><trkpt lat="45.05802267541283" lon="7.379595811702978"><ele>408.66666666666663</ele><time>2026-04-18T14:49:37.998Z</time></trkpt><trkpt lat="45.057874279606494" lon="7.37965715200767"><ele>411.0</ele><time>2026-04-18T14:49:38.998Z</time></trkpt><trkpt lat="45.05770200237418" lon="7.379722009481503"><ele>409.66666666666663</ele><time>2026-04-18T14:49:39.998Z</time></trkpt><trkpt lat="45.05751002229995" lon="7.379791741042425"><ele>408.3333333333333</ele><time>2026-04-18T14:49:40.998Z</time></trkpt><trkpt lat="45.057349674411014" lon="7.379843911310986"><ele>407.0</ele><time>2026-04-18T14:49:41.998Z</time></trkpt><trkpt lat="45.057219048280174" lon="7.379875389825746"><ele>407.0</ele><time>2026-04-18T14:49:42.998Z</time></trkpt><trkpt lat="45.05710939172053" lon="7.379915328719213"><ele>407.0</ele><time>2026-04-18T14:49:43.998Z</time></trkpt><trkpt lat="45.057003645975406" lon="7.379957246507373"><ele>407.0</ele><time>2026-04-18T14:49:44.998Z</time></trkpt><trkpt lat="45.05688172894844" lon="7.379998664291056"><ele>407.0</ele><time>2026-04-18T14:49:45.998Z</time></trkpt><trkpt lat="45.05675549282703" lon="7.380034910402379"><ele>407.0</ele><time>2026-04-18T14:49:46.998Z</time></trkpt><trkpt lat="45.056646335670344" lon="7.380069388885511"><ele>407.0</ele><time>2026-04-18T14:49:47.998Z</time></trkpt><trkpt lat="45.056535146903265" lon="7.380101675111852"><ele>407.0</ele><time>2026-04-18T14:49:48.999Z</time></trkpt><trkpt lat="45.0564247602188" lon="7.380107833728791"><ele>407.0</ele><time>2026-04-18T14:49:49.999Z</time></trkpt><trkpt lat="45.05633328538254" lon="7.380055883219166"><ele>407.0</ele><time>2026-04-18T14:49:50.999Z</time></trkpt><trkpt lat="45.056265099178326" lon="7.379948679870805"><ele>408.0</ele><time>2026-04-18T14:49:51.999Z</time></trkpt><trkpt lat="45.056218411230915" lon="7.379820750333651"><ele>409.0</ele><time>2026-04-18T14:49:52.999Z</time></trkpt><trkpt lat="45.05620093995974" lon="7.379675979287812"><ele>410.0</ele><time>2026-04-18T14:49:53.999Z</time></trkpt><trkpt lat="45.05621047642585" lon="7.379528748296027"><ele>411.0</ele><time>2026-04-18T14:49:54.999Z</time></trkpt><trkpt lat="45.056237671499794" lon="7.379378572157982"><ele>412.0</ele><time>2026-04-18T14:49:55.999Z</time></trkpt><trkpt lat="45.056287398895385" lon="7.379223074407473"><ele>413.25</ele><time>2026-04-18T14:49:56.999Z</time></trkpt><trkpt lat="45.056355084058126" lon="7.379059994011174"><ele>414.5</ele><time>2026-04-18T14:49:57.999Z</time></trkpt><trkpt lat="45.05643592992561" lon="7.378892319849132"><ele>415.75</ele><time>2026-04-18T14:49:58.999Z</time></trkpt><trkpt lat="45.05653156167116" lon="7.378722295748042"><ele>417.0</ele><time>2026-04-18T14:49:59.999Z</time></trkpt><trkpt lat="45.056614232136106" lon="7.378552312773723"><ele>418.33333333333337</ele><time>2026-04-18T14:50:00.999Z</time></trkpt><trkpt lat="45.0566901252054" lon="7.37838117503296"><ele>419.6666666666667</ele><time>2026-04-18T14:50:01.999Z</time></trkpt><trkpt lat="45.05677188414808" lon="7.378184349130609"><ele>421.0</ele><time>2026-04-18T14:50:02.999Z</time></trkpt><trkpt lat="45.05687816356715" lon="7.37799055700576"><ele>422.6666666666667</ele><time>2026-04-18T14:50:03.999Z</time></trkpt><trkpt lat="45.0569816195945" lon="7.377777987715023"><ele>424.33333333333337</ele><time>2026-04-18T14:50:04.999Z</time></trkpt><trkpt lat="45.057073650298825" lon="7.377600862474495"><ele>426.0</ele><time>2026-04-18T14:50:05.999Z</time></trkpt><trkpt lat="45.05716918014141" lon="7.377395108712605"><ele>428.0</ele><time>2026-04-18T14:50:06.999Z</time></trkpt><trkpt lat="45.05726446896147" lon="7.377175040846459"><ele>430.0</ele><time>2026-04-18T14:50:07.999Z</time></trkpt><trkpt lat="45.05738035584513" lon="7.376968819516208"><ele>432.0</ele><time>2026-04-18T14:50:08.999Z</time></trkpt><trkpt lat="45.05748718796458" lon="7.376750344344818"><ele>432.0</ele><time>2026-04-18T14:50:09.999Z</time></trkpt><trkpt lat="45.05759726878069" lon="7.376524884526053"><ele>432.0</ele><time>2026-04-18T14:50:10.999Z</time></trkpt><trkpt lat="45.05770265159592" lon="7.376308511870616"><ele>432.0</ele><time>2026-04-18T14:50:11.999Z</time></trkpt><trkpt lat="45.05778266133674" lon="7.376104963173326"><ele>435.66666666666663</ele><time>2026-04-18T14:50:12.999Z</time></trkpt><trkpt lat="45.057868978779496" lon="7.375924014729664"><ele>439.3333333333333</ele><time>2026-04-18T14:50:13.999Z</time></trkpt><trkpt lat="45.05797511688391" lon="7.3757425114976245"><ele>443.0</ele><time>2026-04-18T14:50:14.999Z</time></trkpt><trkpt lat="45.05805330233527" lon="7.3755637893279475"><ele>444.5</ele><time>2026-04-18T14:50:15.999Z</time></trkpt><trkpt lat="45.05809646800808" lon="7.375382620587597"><ele>446.0</ele><time>2026-04-18T14:50:16.999Z</time></trkpt><trkpt lat="45.05814718165883" lon="7.375193700791526"><ele>447.5</ele><time>2026-04-18T14:50:17.999Z</time></trkpt><trkpt lat="45.05817049625407" lon="7.3749876418153715"><ele>449.0</ele><time>2026-04-18T14:50:18.999Z</time></trkpt><trkpt lat="45.05821547139196" lon="7.374804864211539"><ele>450.0</ele><time>2026-04-18T14:50:19.999Z</time></trkpt><trkpt lat="45.05822713817551" lon="7.374641355607423"><ele>451.0</ele><time>2026-04-18T14:50:20.999Z</time></trkpt><trkpt lat="45.0582668633495" lon="7.374482942059522"><ele>452.0</ele><time>2026-04-18T14:50:21.999Z</time></trkpt><trkpt lat="45.05828856538487" lon="7.374329854192623"><ele>453.0</ele><time>2026-04-18T14:50:22.999Z</time></trkpt><trkpt lat="45.0583056702266" lon="7.374219555038467"><ele>454.0</ele><time>2026-04-18T14:50:23.999Z</time></trkpt><trkpt lat="45.05831922489029" lon="7.374070131105169"><ele>452.0</ele><time>2026-04-18T14:50:24.999Z</time></trkpt><trkpt lat="45.05834439315484" lon="7.373914508020051"><ele>450.0</ele><time>2026-04-18T14:50:25.999Z</time></trkpt><trkpt lat="45.05836024733174" lon="7.37374580522359"><ele>448.0</ele><time>2026-04-18T14:50:26.999Z</time></trkpt><trkpt lat="45.05835890512183" lon="7.373603608903201"><ele>446.0</ele><time>2026-04-18T14:50:27.999Z</time></trkpt><trkpt lat="45.058348904918134" lon="7.373493215756876"><ele>444.0</ele><time>2026-04-18T14:50:28.999Z</time></trkpt><trkpt lat="45.05834532632358" lon="7.373398463366641"><ele>444.0</ele><time>2026-04-18T14:50:29.999Z</time></trkpt><trkpt lat="45.05834839921947" lon="7.373298880204152"><ele>444.0</ele><time>2026-04-18T14:50:30.999Z</time></trkpt><trkpt lat="45.05838141487649" lon="7.373139523988552"><ele>444.0</ele><time>2026-04-18T14:50:32.999Z</time></trkpt><trkpt lat="45.05840130869959" lon="7.3730071847433525"><ele>444.0</ele><time>2026-04-18T14:50:34.999Z</time></trkpt><trkpt lat="45.058294060345574" lon="7.372902001876326"><ele>444.0</ele><time>2026-04-18T14:50:36.999Z</time></trkpt><trkpt lat="45.058200247364674" lon="7.372869751124752"><ele>444.79999999999995</ele><time>2026-04-18T14:50:37.999Z</time></trkpt><trkpt lat="45.05809569424662" lon="7.372818537003587"><ele>445.59999999999997</ele><time>2026-04-18T14:50:38.999Z</time></trkpt><trkpt lat="45.05801055059471" lon="7.372754098884541"><ele>446.4</ele><time>2026-04-18T14:50:39.999Z</time></trkpt><trkpt lat="45.05793729810091" lon="7.372682047703112"><ele>447.2</ele><time>2026-04-18T14:50:40.999Z</time></trkpt><trkpt lat="45.05785109869886" lon="7.372590862683006"><ele>448.0</ele><time>2026-04-18T14:50:41.999Z</time></trkpt><trkpt lat="45.05773520677251" lon="7.372514783191113"><ele>448.0</ele><time>2026-04-18T14:50:42.999Z</time></trkpt><trkpt lat="45.057601527334924" lon="7.3724710173719314"><ele>448.0</ele><time>2026-04-18T14:50:43.999Z</time></trkpt><trkpt lat="45.05744716443783" lon="7.37244620402252"><ele>448.0</ele><time>2026-04-18T14:50:44.999Z</time></trkpt><trkpt lat="45.057280197116704" lon="7.372471104233026"><ele>451.0</ele><time>2026-04-18T14:50:45.999Z</time></trkpt><trkpt lat="45.057081371508296" lon="7.372547551940574"><ele>454.0</ele><time>2026-04-18T14:50:46.999Z</time></trkpt><trkpt lat="45.0568405822251" lon="7.372631134362005"><ele>455.0</ele><time>2026-04-18T14:50:47.999Z</time></trkpt><trkpt lat="45.05658212593508" lon="7.372695485309978"><ele>456.0</ele><time>2026-04-18T14:50:48.999Z</time></trkpt><trkpt lat="45.056368582657626" lon="7.372750606694578"><ele>456.0</ele><time>2026-04-18T14:50:49.999Z</time></trkpt><trkpt lat="45.05620108101315" lon="7.3728039776654715"><ele>456.0</ele><time>2026-04-18T14:50:50.999Z</time></trkpt><trkpt lat="45.05606409662753" lon="7.3728414962279585"><ele>456.0</ele><time>2026-04-18T14:50:51.999Z</time></trkpt><trkpt lat="45.05594127122366" lon="7.372870776613776"><ele>456.0</ele><time>2026-04-18T14:50:52.999Z</time></trkpt><trkpt lat="45.05583701048178" lon="7.372899448840698"><ele>457.25</ele><time>2026-04-18T14:50:53.999Z</time></trkpt><trkpt lat="45.05573119859332" lon="7.3729338345096185"><ele>458.5</ele><time>2026-04-18T14:50:54.999Z</time></trkpt><trkpt lat="45.05559066827164" lon="7.372973571201637"><ele>459.75</ele><time>2026-04-18T14:50:55.999Z</time></trkpt><trkpt lat="45.05542929815398" lon="7.373018164055429"><ele>461.0</ele><time>2026-04-18T14:50:56.999Z</time></trkpt><trkpt lat="45.05527653020619" lon="7.373061036092132"><ele>461.3333333333333</ele><time>2026-04-18T14:50:57.999Z</time></trkpt><trkpt lat="45.05512720749756" lon="7.373103737440096"><ele>461.66666666666663</ele><time>2026-04-18T14:50:58.999Z</time></trkpt><trkpt lat="45.0549650817712" lon="7.373149488572274"><ele>462.0</ele><time>2026-04-18T14:50:59.999Z</time></trkpt><trkpt lat="45.05477785054232" lon="7.373206736215826"><ele>464.5</ele><time>2026-04-18T14:51:00.999Z</time></trkpt><trkpt lat="45.05453875121287" lon="7.3732753525477"><ele>467.0</ele><time>2026-04-18T14:51:01.999Z</time></trkpt><trkpt lat="45.05427820278594" lon="7.373372939918707"><ele>471.5</ele><time>2026-04-18T14:51:02.999Z</time></trkpt><trkpt lat="45.0539936719569" lon="7.373444459704285"><ele>476.0</ele><time>2026-04-18T14:51:03.999Z</time></trkpt><trkpt lat="45.05370827021762" lon="7.373524643072782"><ele>476.0</ele><time>2026-04-18T14:51:04.999Z</time></trkpt><trkpt lat="45.0534185098914" lon="7.373586821810022"><ele>476.0</ele><time>2026-04-18T14:51:05.999Z</time></trkpt><trkpt lat="45.05317000348577" lon="7.373646913484714"><ele>480.66666666666663</ele><time>2026-04-18T14:51:06.999Z</time></trkpt><trkpt lat="45.05295997343767" lon="7.373716608796036"><ele>485.33333333333337</ele><time>2026-04-18T14:51:07.999Z</time></trkpt><trkpt lat="45.052775739070775" lon="7.373777017283806"><ele>490.0</ele><time>2026-04-18T14:51:08.999Z</time></trkpt><trkpt lat="45.05260745388996" lon="7.373820413197593"><ele>492.0</ele><time>2026-04-18T14:51:09.999Z</time></trkpt><trkpt lat="45.052455008921" lon="7.37386007847649"><ele>494.0</ele><time>2026-04-18T14:51:10.999Z</time></trkpt><trkpt lat="45.052306848089735" lon="7.37390244805575"><ele>496.0</ele><time>2026-04-18T14:51:11.999Z</time></trkpt><trkpt lat="45.05214906534687" lon="7.3739673593668025"><ele>496.0</ele><time>2026-04-18T14:51:12.999Z</time></trkpt><trkpt lat="45.05202963156404" lon="7.374057504081069"><ele>496.0</ele><time>2026-04-18T14:51:13.999Z</time></trkpt><trkpt lat="45.05193041910368" lon="7.374200567150669"><ele>496.0</ele><time>2026-04-18T14:51:14.999Z</time></trkpt><trkpt lat="45.05184111705804" lon="7.3743641615851026"><ele>496.0</ele><time>2026-04-18T14:51:15.999Z</time></trkpt><trkpt lat="45.051766896805795" lon="7.374503618172436"><ele>496.0</ele><time>2026-04-18T14:51:16.999Z</time></trkpt><trkpt lat="45.051677920743636" lon="7.374607310641033"><ele>496.0</ele><time>2026-04-18T14:51:17.999Z</time></trkpt><trkpt lat="45.051587152989036" lon="7.374679530046828"><ele>496.0</ele><time>2026-04-18T14:51:18.999Z</time></trkpt><trkpt lat="45.05147043216556" lon="7.374734344947098"><ele>496.0</ele><time>2026-04-18T14:51:19.999Z</time></trkpt><trkpt lat="45.05133667570603" lon="7.374743486309529"><ele>495.5</ele><time>2026-04-18T14:51:20.999Z</time></trkpt><trkpt lat="45.05119915657919" lon="7.374749155695659"><ele>495.0</ele><time>2026-04-18T14:51:21.999Z</time></trkpt><trkpt lat="45.05105613914718" lon="7.374752268710231"><ele>494.5</ele><time>2026-04-18T14:51:22.999Z</time></trkpt><trkpt lat="45.05092780135355" lon="7.374740541552795"><ele>494.0</ele><time>2026-04-18T14:51:23.999Z</time></trkpt><trkpt lat="45.0508131064699" lon="7.374697066935033"><ele>498.25</ele><time>2026-04-18T14:51:24.999Z</time></trkpt><trkpt lat="45.050688005521096" lon="7.374635251365595"><ele>502.5</ele><time>2026-04-18T14:51:25.999Z</time></trkpt><trkpt lat="45.05054873666337" lon="7.374574164108235"><ele>506.75</ele><time>2026-04-18T14:51:26.999Z</time></trkpt><trkpt lat="45.0504079171698" lon="7.3745241738310865"><ele>511.0</ele><time>2026-04-18T14:51:27.999Z</time></trkpt><trkpt lat="45.05028782812283" lon="7.37449911228215"><ele>511.00000000000006</ele><time>2026-04-18T14:51:28.999Z</time></trkpt><trkpt lat="45.05019855216594" lon="7.374489309778523"><ele>511.0</ele><time>2026-04-18T14:51:29.999Z</time></trkpt><trkpt lat="45.05012602627283" lon="7.374472149500691"><ele>511.0</ele><time>2026-04-18T14:51:30.999Z</time></trkpt><trkpt lat="45.05004953303269" lon="7.374465469805688"><ele>511.0</ele><time>2026-04-18T14:51:31.999Z</time></trkpt><trkpt lat="45.04996217564828" lon="7.374454462862573"><ele>511.00000000000006</ele><time>2026-04-18T14:51:32.999Z</time></trkpt><trkpt lat="45.04988252683989" lon="7.374446464231247"><ele>511.0</ele><time>2026-04-18T14:51:33.999Z</time></trkpt><trkpt lat="45.04975560927811" lon="7.374453263132935"><ele>510.5</ele><time>2026-04-18T14:51:34.999Z</time></trkpt><trkpt lat="45.04960598466528" lon="7.3744303276028145"><ele>510.0</ele><time>2026-04-18T14:51:35.999Z</time></trkpt><trkpt lat="45.04947672825789" lon="7.374398053366134"><ele>509.5</ele><time>2026-04-18T14:51:36.999Z</time></trkpt><trkpt lat="45.04937526476353" lon="7.374387421766034"><ele>509.0</ele><time>2026-04-18T14:51:37.999Z</time></trkpt><trkpt lat="45.04928722188294" lon="7.374375114740959"><ele>509.0</ele><time>2026-04-18T14:51:38.999Z</time></trkpt><trkpt lat="45.04919598728478" lon="7.374343471983587"><ele>509.0</ele><time>2026-04-18T14:51:39.999Z</time></trkpt><trkpt lat="45.0490922989439" lon="7.374287958685373"><ele>509.0</ele><time>2026-04-18T14:51:40.999Z</time></trkpt><trkpt lat="45.04899563041586" lon="7.374196225789133"><ele>509.0</ele><time>2026-04-18T14:51:41.999Z</time></trkpt><trkpt lat="45.04891605523617" lon="7.37407189991398"><ele>509.0</ele><time>2026-04-18T14:51:42.999Z</time></trkpt><trkpt lat="45.04885216347415" lon="7.373914513356744"><ele>508.0</ele><time>2026-04-18T14:51:43.999Z</time></trkpt><trkpt lat="45.04882172651595" lon="7.373717982308887"><ele>507.0</ele><time>2026-04-18T14:51:44.999Z</time></trkpt><trkpt lat="45.04880507431663" lon="7.37350992052998"><ele>506.0</ele><time>2026-04-18T14:51:45.999Z</time></trkpt><trkpt lat="45.048794406675" lon="7.373277419668516"><ele>506.0</ele><time>2026-04-18T14:51:46.999Z</time></trkpt><trkpt lat="45.048806139606015" lon="7.3730385541121946"><ele>506.0</ele><time>2026-04-18T14:51:47.999Z</time></trkpt><trkpt lat="45.04880890140263" lon="7.372766237640559"><ele>506.0</ele><time>2026-04-18T14:51:48.999Z</time></trkpt><trkpt lat="45.04880131537419" lon="7.372499929101404"><ele>505.0</ele><time>2026-04-18T14:51:49.999Z</time></trkpt><trkpt lat="45.04880227403885" lon="7.3722619304243056"><ele>504.0</ele><time>2026-04-18T14:51:50.999Z</time></trkpt><trkpt lat="45.04880371992594" lon="7.3720223926368105"><ele>503.0</ele><time>2026-04-18T14:51:51.999Z</time></trkpt><trkpt lat="45.04880251694815" lon="7.371763751290766"><ele>501.3333333333333</ele><time>2026-04-18T14:51:52.999Z</time></trkpt><trkpt lat="45.048798465463776" lon="7.371502384790721"><ele>499.66666666666663</ele><time>2026-04-18T14:51:53.999Z</time></trkpt><trkpt lat="45.04879942763895" lon="7.371221890286722"><ele>498.0</ele><time>2026-04-18T14:51:54.999Z</time></trkpt><trkpt lat="45.0488021147248" lon="7.3709275486579875"><ele>497.66666666666663</ele><time>2026-04-18T14:51:55.999Z</time></trkpt><trkpt lat="45.04880080400158" lon="7.370621025182434"><ele>497.3333333333333</ele><time>2026-04-18T14:51:56.999Z</time></trkpt><trkpt lat="45.04880228306001" lon="7.370334588274926"><ele>497.0</ele><time>2026-04-18T14:51:57.999Z</time></trkpt><trkpt lat="45.048809727835355" lon="7.370071144256297"><ele>496.3333333333333</ele><time>2026-04-18T14:51:58.999Z</time></trkpt><trkpt lat="45.048811117647354" lon="7.369829032027789"><ele>495.66666666666663</ele><time>2026-04-18T14:51:59.999Z</time></trkpt><trkpt lat="45.0488001538223" lon="7.36958472437753"><ele>495.0</ele><time>2026-04-18T14:52:00.999Z</time></trkpt><trkpt lat="45.048805585648" lon="7.369345148466961"><ele>495.0</ele><time>2026-04-18T14:52:01.999Z</time></trkpt><trkpt lat="45.048800360893665" lon="7.369111163189269"><ele>495.0</ele><time>2026-04-18T14:52:02.999Z</time></trkpt><trkpt lat="45.048803038427046" lon="7.368865922124709"><ele>495.0</ele><time>2026-04-18T14:52:03.999Z</time></trkpt><trkpt lat="45.04880404289582" lon="7.368611862774468"><ele>494.0</ele><time>2026-04-18T14:52:04.999Z</time></trkpt><trkpt lat="45.04880396591991" lon="7.368322690599251"><ele>493.0</ele><time>2026-04-18T14:52:05.999Z</time></trkpt><trkpt lat="45.0488031327697" lon="7.368024175027845"><ele>492.0</ele><time>2026-04-18T14:52:06.999Z</time></trkpt><trkpt lat="45.048816371163426" lon="7.367665834271626"><ele>492.0</ele><time>2026-04-18T14:52:07.999Z</time></trkpt><trkpt lat="45.048815445954425" lon="7.367269703072539"><ele>492.0</ele><time>2026-04-18T14:52:08.999Z</time></trkpt><trkpt lat="45.04879941245447" lon="7.366897864686216"><ele>492.0</ele><time>2026-04-18T14:52:09.999Z</time></trkpt><trkpt lat="45.04880885765956" lon="7.366538868952252"><ele>492.0</ele><time>2026-04-18T14:52:10.999Z</time></trkpt><trkpt lat="45.04880567203786" lon="7.366228387849509"><ele>492.33333333333337</ele><time>2026-04-18T14:52:11.999Z</time></trkpt><trkpt lat="45.04880256492529" lon="7.365942528042468"><ele>492.6666666666667</ele><time>2026-04-18T14:52:12.999Z</time></trkpt><trkpt lat="45.04881074565232" lon="7.365650918400792"><ele>493.0</ele><time>2026-04-18T14:52:13.999Z</time></trkpt><trkpt lat="45.04884996480148" lon="7.36535520360114"><ele>492.6666666666667</ele><time>2026-04-18T14:52:14.999Z</time></trkpt><trkpt lat="45.04888514646206" lon="7.365077709231645"><ele>492.33333333333337</ele><time>2026-04-18T14:52:15.999Z</time></trkpt><trkpt lat="45.04893357719625" lon="7.364801762610449"><ele>492.0</ele><time>2026-04-18T14:52:16.999Z</time></trkpt><trkpt lat="45.04898929832575" lon="7.36451211507881"><ele>492.0</ele><time>2026-04-18T14:52:17.999Z</time></trkpt><trkpt lat="45.049028669296355" lon="7.3642480978816565"><ele>492.0</ele><time>2026-04-18T14:52:18.999Z</time></trkpt><trkpt lat="45.049079018593424" lon="7.3639803091684515"><ele>492.0</ele><time>2026-04-18T14:52:19.999Z</time></trkpt><trkpt lat="45.04913005016366" lon="7.36369556341578"><ele>493.0</ele><time>2026-04-18T14:52:20.999Z</time></trkpt><trkpt lat="45.04918639752478" lon="7.363409909121298"><ele>494.0</ele><time>2026-04-18T14:52:21.999Z</time></trkpt><trkpt lat="45.049243549925585" lon="7.363124832798686"><ele>495.0</ele><time>2026-04-18T14:52:22.999Z</time></trkpt><trkpt lat="45.04929900707627" lon="7.362860347068493"><ele>495.0</ele><time>2026-04-18T14:52:23.999Z</time></trkpt><trkpt lat="45.04934095685385" lon="7.362629346993889"><ele>495.0</ele><time>2026-04-18T14:52:24.999Z</time></trkpt><trkpt lat="45.04938387557308" lon="7.362414134078628"><ele>495.0</ele><time>2026-04-18T14:52:25.999Z</time></trkpt><trkpt lat="45.04943009407021" lon="7.362193421265033"><ele>496.0</ele><time>2026-04-18T14:52:26.999Z</time></trkpt><trkpt lat="45.04947504968485" lon="7.361966558467172"><ele>497.0</ele><time>2026-04-18T14:52:27.999Z</time></trkpt><trkpt lat="45.04951612819506" lon="7.361738958426623"><ele>498.0</ele><time>2026-04-18T14:52:28.999Z</time></trkpt><trkpt lat="45.04954658728894" lon="7.36152333415191"><ele>499.75</ele><time>2026-04-18T14:52:29.999Z</time></trkpt><trkpt lat="45.049546759544064" lon="7.36130682243238"><ele>501.5</ele><time>2026-04-18T14:52:30.999Z</time></trkpt><trkpt lat="45.049519638945306" lon="7.361086987990066"><ele>503.25</ele><time>2026-04-18T14:52:31.999Z</time></trkpt><trkpt lat="45.049468248863775" lon="7.3609122949399035"><ele>505.0</ele><time>2026-04-18T14:52:32.999Z</time></trkpt><trkpt lat="45.049419357990146" lon="7.360718276295091"><ele>505.6666666666667</ele><time>2026-04-18T14:52:33.999Z</time></trkpt><trkpt lat="45.049380597659265" lon="7.360515273258536"><ele>506.33333333333337</ele><time>2026-04-18T14:52:34.999Z</time></trkpt><trkpt lat="45.049338479504186" lon="7.360307381066277"><ele>507.0</ele><time>2026-04-18T14:52:35.999Z</time></trkpt><trkpt lat="45.04927949601434" lon="7.360076684701686"><ele>507.0</ele><time>2026-04-18T14:52:36.999Z</time></trkpt><trkpt lat="45.04922986448372" lon="7.359807171029401"><ele>507.0</ele><time>2026-04-18T14:52:37.999Z</time></trkpt><trkpt lat="45.04917331288476" lon="7.359529155413925"><ele>507.0</ele><time>2026-04-18T14:52:38.999Z</time></trkpt><trkpt lat="45.04913474456981" lon="7.3592858224730735"><ele>507.0</ele><time>2026-04-18T14:52:39.999Z</time></trkpt><trkpt lat="45.04908854577243" lon="7.359070690442726"><ele>507.0</ele><time>2026-04-18T14:52:40.999Z</time></trkpt><trkpt lat="45.04903655967016" lon="7.3588969727978695"><ele>507.0</ele><time>2026-04-18T14:52:41.999Z</time></trkpt><trkpt lat="45.0489848276049" lon="7.358753244003705"><ele>507.0</ele><time>2026-04-18T14:52:42.999Z</time></trkpt><trkpt lat="45.04892292705649" lon="7.358621603287231"><ele>507.0</ele><time>2026-04-18T14:52:43.999Z</time></trkpt><trkpt lat="45.04884980671804" lon="7.358491558584012"><ele>507.00000000000006</ele><time>2026-04-18T14:52:44.999Z</time></trkpt><trkpt lat="45.04877103321295" lon="7.358363460577426"><ele>507.00000000000006</ele><time>2026-04-18T14:52:45.999Z</time></trkpt><trkpt lat="45.04869173392312" lon="7.358257866482877"><ele>507.0</ele><time>2026-04-18T14:52:46.999Z</time></trkpt><trkpt lat="45.04862253899384" lon="7.358194080285083"><ele>507.0</ele><time>2026-04-18T14:52:47.999Z</time></trkpt><trkpt lat="45.04855243598042" lon="7.358152808454512"><ele>507.0</ele><time>2026-04-18T14:52:48.999Z</time></trkpt><trkpt lat="45.04846556837894" lon="7.3581481753482185"><ele>507.0</ele><time>2026-04-18T14:52:49.999Z</time></trkpt><trkpt lat="45.04837759088347" lon="7.358170741249572"><ele>507.0</ele><time>2026-04-18T14:52:50.999Z</time></trkpt><trkpt lat="45.04831181755831" lon="7.358190385696067"><ele>507.0</ele><time>2026-04-18T14:52:51.999Z</time></trkpt><trkpt lat="45.04822555763225" lon="7.358201606792617"><ele>507.0</ele><time>2026-04-18T14:52:53.999Z</time></trkpt><trkpt lat="45.048167177104574" lon="7.358154440434562"><ele>507.0</ele><time>2026-04-18T14:52:55.999Z</time></trkpt><trkpt lat="45.048100112849795" lon="7.358025221002189"><ele>508.1666666666667</ele><time>2026-04-18T14:52:57.999Z</time></trkpt><trkpt lat="45.048059931463484" lon="7.357941282664084"><ele>509.33333333333337</ele><time>2026-04-18T14:52:58.999Z</time></trkpt><trkpt lat="45.04801198641481" lon="7.357806640078837"><ele>510.5</ele><time>2026-04-18T14:53:00.999Z</time></trkpt><trkpt lat="45.04802796461977" lon="7.357619970219948"><ele>511.6666666666667</ele><time>2026-04-18T14:53:02.999Z</time></trkpt><trkpt lat="45.048053105312235" lon="7.357533947750152"><ele>512.8333333333334</ele><time>2026-04-18T14:53:03.999Z</time></trkpt><trkpt lat="45.048062669319414" lon="7.3574375075037795"><ele>514.0</ele><time>2026-04-18T14:53:04.999Z</time></trkpt><trkpt lat="45.04804075232616" lon="7.357332330215973"><ele>514.0</ele><time>2026-04-18T14:53:05.999Z</time></trkpt><trkpt lat="45.047994796260156" lon="7.357230979927646"><ele>514.0</ele><time>2026-04-18T14:53:06.999Z</time></trkpt><trkpt lat="45.04793147501819" lon="7.357145405895344"><ele>514.0</ele><time>2026-04-18T14:53:07.999Z</time></trkpt><trkpt lat="45.047863135325706" lon="7.357061452875575"><ele>514.0</ele><time>2026-04-18T14:53:08.999Z</time></trkpt><trkpt lat="45.047808719635775" lon="7.35696981484114"><ele>514.0</ele><time>2026-04-18T14:53:09.999Z</time></trkpt><trkpt lat="45.047760740279706" lon="7.3568902702000685"><ele>514.0</ele><time>2026-04-18T14:53:10.999Z</time></trkpt><trkpt lat="45.04770481450279" lon="7.356789850437143"><ele>515.4</ele><time>2026-04-18T14:53:11.999Z</time></trkpt><trkpt lat="45.04765207932693" lon="7.356662450571174"><ele>516.8</ele><time>2026-04-18T14:53:12.999Z</time></trkpt><trkpt lat="45.0476116172758" lon="7.3565384190076815"><ele>518.2</ele><time>2026-04-18T14:53:13.999Z</time></trkpt><trkpt lat="45.04757985651875" lon="7.356438044282573"><ele>519.6</ele><time>2026-04-18T14:53:14.999Z</time></trkpt><trkpt lat="45.047539988996704" lon="7.3563252693873515"><ele>521.0</ele><time>2026-04-18T14:53:15.999Z</time></trkpt><trkpt lat="45.04749922100425" lon="7.356202227362774"><ele>519.8</ele><time>2026-04-18T14:53:16.999Z</time></trkpt><trkpt lat="45.047458634510384" lon="7.356074596500566"><ele>518.6</ele><time>2026-04-18T14:53:17.999Z</time></trkpt><trkpt lat="45.04740400780276" lon="7.355920271661947"><ele>517.4</ele><time>2026-04-18T14:53:18.999Z</time></trkpt><trkpt lat="45.04735113925699" lon="7.355778148620876"><ele>516.2</ele><time>2026-04-18T14:53:19.999Z</time></trkpt><trkpt lat="45.04729941067866" lon="7.355654850677445"><ele>515.0</ele><time>2026-04-18T14:53:20.999Z</time></trkpt><trkpt lat="45.04725258031052" lon="7.355548640387764"><ele>514.8333333333333</ele><time>2026-04-18T14:53:21.999Z</time></trkpt><trkpt lat="45.04720880644333" lon="7.355456908683127"><ele>514.6666666666666</ele><time>2026-04-18T14:53:22.999Z</time></trkpt><trkpt lat="45.047169196617084" lon="7.355377275723258"><ele>514.5</ele><time>2026-04-18T14:53:23.999Z</time></trkpt><trkpt lat="45.047118193351075" lon="7.355282599093994"><ele>514.3333333333334</ele><time>2026-04-18T14:53:24.999Z</time></trkpt><trkpt lat="45.04705874668128" lon="7.355175568581066"><ele>514.1666666666667</ele><time>2026-04-18T14:53:25.999Z</time></trkpt><trkpt lat="45.04700574637258" lon="7.3550899688512414"><ele>514.0</ele><time>2026-04-18T14:53:26.999Z</time></trkpt><trkpt lat="45.04695738651515" lon="7.355019728449331"><ele>514.0</ele><time>2026-04-18T14:53:27.999Z</time></trkpt><trkpt lat="45.04688700812874" lon="7.354911325782021"><ele>514.0</ele><time>2026-04-18T14:53:29.999Z</time></trkpt><trkpt lat="45.046828842423736" lon="7.354831896654979"><ele>514.0</ele><time>2026-04-18T14:53:31.999Z</time></trkpt><trkpt lat="45.046779363782576" lon="7.354752590157604"><ele>514.0</ele><time>2026-04-18T14:53:34.999Z</time></trkpt><trkpt lat="45.04674380781092" lon="7.354623569835029"><ele>514.0</ele><time>2026-04-18T14:53:36.999Z</time></trkpt><trkpt lat="45.04669415116588" lon="7.354522392991826"><ele>514.0</ele><time>2026-04-18T14:53:37.999Z</time></trkpt><trkpt lat="45.04658893586095" lon="7.3544937404096205"><ele>513.8333333333334</ele><time>2026-04-18T14:53:38.999Z</time></trkpt><trkpt lat="45.04652037021184" lon="7.354455192930148"><ele>513.6666666666667</ele><time>2026-04-18T14:53:39.999Z</time></trkpt><trkpt lat="45.046449889338945" lon="7.3544080500327516"><ele>513.5</ele><time>2026-04-18T14:53:40.999Z</time></trkpt><trkpt lat="45.046380583565536" lon="7.3543596722602675"><ele>513.3333333333334</ele><time>2026-04-18T14:53:41.999Z</time></trkpt><trkpt lat="45.04630947681989" lon="7.354314402636762"><ele>513.1666666666666</ele><time>2026-04-18T14:53:42.999Z</time></trkpt><trkpt lat="45.0462314296544" lon="7.35426704013366"><ele>513.0</ele><time>2026-04-18T14:53:43.999Z</time></trkpt><trkpt lat="45.0461560258591" lon="7.354223665490438"><ele>513.0</ele><time>2026-04-18T14:53:44.999Z</time></trkpt><trkpt lat="45.04608908336361" lon="7.354185196730948"><ele>513.0</ele><time>2026-04-18T14:53:45.999Z</time></trkpt><trkpt lat="45.045986727536174" lon="7.354121411870128"><ele>513.0</ele><time>2026-04-18T14:53:47.999Z</time></trkpt><trkpt lat="45.045926628286985" lon="7.354088920309882"><ele>513.0</ele><time>2026-04-18T14:53:48.999Z</time></trkpt><trkpt lat="45.04585786360196" lon="7.354048088046102"><ele>513.0</ele><time>2026-04-18T14:53:50Z</time></trkpt><trkpt lat="45.04578898903638" lon="7.354005301135187"><ele>513.0</ele><time>2026-04-18T14:53:51Z</time></trkpt><trkpt lat="45.04572824193174" lon="7.3539640758317075"><ele>512.8</ele><time>2026-04-18T14:53:52Z</time></trkpt><trkpt lat="45.045621109620406" lon="7.353901966938289"><ele>512.5999999999999</ele><time>2026-04-18T14:53:54Z</time></trkpt><trkpt lat="45.04551682530888" lon="7.35383508504558"><ele>512.4000000000001</ele><time>2026-04-18T14:53:56Z</time></trkpt><trkpt lat="45.04543151080125" lon="7.353773843821047"><ele>512.2</ele><time>2026-04-18T14:54:03Z</time></trkpt><trkpt lat="45.04532034355556" lon="7.353713054235542"><ele>512.0</ele><time>2026-04-18T14:54:05Z</time></trkpt><trkpt lat="45.045220756182985" lon="7.353655011105587"><ele>511.99999999999994</ele><time>2026-04-18T14:54:07Z</time></trkpt><trkpt lat="45.04515818128047" lon="7.353618665457335"><ele>512.0</ele><time>2026-04-18T14:54:08Z</time></trkpt><trkpt lat="45.045088461600415" lon="7.353574235369557"><ele>512.0</ele><time>2026-04-18T14:54:09Z</time></trkpt><trkpt lat="45.045023126833264" lon="7.353540710863598"><ele>512.0</ele><time>2026-04-18T14:54:10Z</time></trkpt><trkpt lat="45.04493340487238" lon="7.3534936401405595"><ele>511.99999999999994</ele><time>2026-04-18T14:54:12Z</time></trkpt><trkpt lat="45.04486112584118" lon="7.353446089251704"><ele>512.0</ele><time>2026-04-18T14:54:14Z</time></trkpt><trkpt lat="45.04481136595455" lon="7.353332541739978"><ele>512.0</ele><time>2026-04-18T14:54:20Z</time></trkpt><trkpt lat="45.044740262883536" lon="7.3532374491207815"><ele>512.0</ele><time>2026-04-18T14:54:22Z</time></trkpt><trkpt lat="45.04467854825644" lon="7.353212418331638"><ele>512.0</ele><time>2026-04-18T14:54:23Z</time></trkpt><trkpt lat="45.04459220963729" lon="7.35319514578166"><ele>512.0</ele><time>2026-04-18T14:54:24Z</time></trkpt><trkpt lat="45.04448957629738" lon="7.353152645134044"><ele>512.0</ele><time>2026-04-18T14:54:25Z</time></trkpt><trkpt lat="45.044386852639036" lon="7.35310828769157"><ele>511.99999999999994</ele><time>2026-04-18T14:54:26Z</time></trkpt><trkpt lat="45.04430797843698" lon="7.35308772023808"><ele>512.0</ele><time>2026-04-18T14:54:27Z</time></trkpt><trkpt lat="45.04421714960611" lon="7.353056143978123"><ele>512.0</ele><time>2026-04-18T14:54:29Z</time></trkpt><trkpt lat="45.04414339206979" lon="7.353027721206969"><ele>512.0</ele><time>2026-04-18T14:54:37Z</time></trkpt><trkpt lat="45.0440220562098" lon="7.35297777144685"><ele>511.99999999999994</ele><time>2026-04-18T14:54:39Z</time></trkpt><trkpt lat="45.04395771254108" lon="7.352947672101529"><ele>512.0</ele><time>2026-04-18T14:54:40Z</time></trkpt><trkpt lat="45.0438940604617" lon="7.352916609293019"><ele>511.8</ele><time>2026-04-18T14:54:41Z</time></trkpt><trkpt lat="45.04380715174938" lon="7.352885492629879"><ele>511.6</ele><time>2026-04-18T14:54:43Z</time></trkpt><trkpt lat="45.043698160461" lon="7.353015568750323"><ele>511.40000000000003</ele><time>2026-04-18T14:54:45Z</time></trkpt><trkpt lat="45.04364405532398" lon="7.353101207469491"><ele>511.20000000000005</ele><time>2026-04-18T14:54:46Z</time></trkpt><trkpt lat="45.04354194418042" lon="7.3531133751788165"><ele>511.0</ele><time>2026-04-18T14:54:47Z</time></trkpt><trkpt lat="45.04340451855404" lon="7.353108904411809"><ele>510.5</ele><time>2026-04-18T14:54:48Z</time></trkpt><trkpt lat="45.043259442172" lon="7.353115824467108"><ele>510.0</ele><time>2026-04-18T14:54:49Z</time></trkpt><trkpt lat="45.043146072094885" lon="7.353094532217144"><ele>509.5</ele><time>2026-04-18T14:54:50Z</time></trkpt><trkpt lat="45.04304191012523" lon="7.3530753798141575"><ele>509.0</ele><time>2026-04-18T14:54:51Z</time></trkpt><trkpt lat="45.04295128704709" lon="7.353054557544032"><ele>509.16666666666663</ele><time>2026-04-18T14:54:52Z</time></trkpt><trkpt lat="45.04287462738534" lon="7.353016948779546"><ele>509.3333333333333</ele><time>2026-04-18T14:54:53Z</time></trkpt><trkpt lat="45.04278350410444" lon="7.352960832793259"><ele>509.5</ele><time>2026-04-18T14:54:54Z</time></trkpt><trkpt lat="45.04270446305462" lon="7.352882401112089"><ele>509.66666666666663</ele><time>2026-04-18T14:54:55Z</time></trkpt><trkpt lat="45.04262691869053" lon="7.352835391044096"><ele>509.8333333333333</ele><time>2026-04-18T14:54:56Z</time></trkpt><trkpt lat="45.04256582212664" lon="7.352792663942215"><ele>510.0</ele><time>2026-04-18T14:54:57Z</time></trkpt><trkpt lat="45.04245419924275" lon="7.352710535949928"><ele>510.0</ele><time>2026-04-18T14:54:59Z</time></trkpt><trkpt lat="45.04238249506903" lon="7.3526573437203115"><ele>510.0</ele><time>2026-04-18T14:55:00Z</time></trkpt><trkpt lat="45.04232410922813" lon="7.352610371393313"><ele>510.0</ele><time>2026-04-18T14:55:01Z</time></trkpt><trkpt lat="45.04223940813612" lon="7.352567923133936"><ele>510.0</ele><time>2026-04-18T14:55:03Z</time></trkpt><trkpt lat="45.042182214416044" lon="7.352521711868299"><ele>510.0</ele><time>2026-04-18T14:55:05Z</time></trkpt><trkpt lat="45.04210862885811" lon="7.352482216619556"><ele>510.0</ele><time>2026-04-18T14:55:20Z</time></trkpt><trkpt lat="45.04204476614175" lon="7.352419091692122"><ele>510.0</ele><time>2026-04-18T14:55:30Z</time></trkpt><trkpt lat="45.04196126507828" lon="7.352354315701838"><ele>510.0</ele><time>2026-04-18T14:55:32Z</time></trkpt><trkpt lat="45.041834461476675" lon="7.352431127409423"><ele>510.0</ele><time>2026-04-18T14:55:34Z</time></trkpt><trkpt lat="45.04171310362642" lon="7.352491169622167"><ele>510.0</ele><time>2026-04-18T14:55:36Z</time></trkpt><trkpt lat="45.04161374738829" lon="7.352514608696714"><ele>509.4</ele><time>2026-04-18T14:55:38Z</time></trkpt><trkpt lat="45.041495317308716" lon="7.352540101433065"><ele>508.8</ele><time>2026-04-18T14:55:40Z</time></trkpt><trkpt lat="45.041432258417665" lon="7.352541488557989"><ele>508.20000000000005</ele><time>2026-04-18T14:55:41Z</time></trkpt><trkpt lat="45.0413353709528" lon="7.352522214080959"><ele>507.6</ele><time>2026-04-18T14:55:42Z</time></trkpt><trkpt lat="45.04123207520631" lon="7.35248695388759"><ele>507.0</ele><time>2026-04-18T14:55:43Z</time></trkpt><trkpt lat="45.04116072806351" lon="7.352465519286602"><ele>507.0</ele><time>2026-04-18T14:55:44Z</time></trkpt><trkpt lat="45.04105434339142" lon="7.352451350963968"><ele>507.0</ele><time>2026-04-18T14:55:46Z</time></trkpt><trkpt lat="45.04097819742891" lon="7.352466940006876"><ele>507.0</ele><time>2026-04-18T14:55:48Z</time></trkpt><trkpt lat="45.04088058748833" lon="7.352505381371191"><ele>507.0</ele><time>2026-04-18T14:55:50Z</time></trkpt><trkpt lat="45.04081597141945" lon="7.352513680576298"><ele>507.0</ele><time>2026-04-18T14:55:51Z</time></trkpt><trkpt lat="45.0407463984264" lon="7.35253307037978"><ele>507.0</ele><time>2026-04-18T14:55:52Z</time></trkpt><trkpt lat="45.04067272969833" lon="7.352557565414258"><ele>506.8333333333333</ele><time>2026-04-18T14:55:53Z</time></trkpt><trkpt lat="45.04057546807844" lon="7.3525659450306335"><ele>506.66666666666663</ele><time>2026-04-18T14:55:55Z</time></trkpt><trkpt lat="45.040472089442076" lon="7.352579195549184"><ele>506.5</ele><time>2026-04-18T14:55:57Z</time></trkpt><trkpt lat="45.040403110891425" lon="7.352577044156407"><ele>506.3333333333333</ele><time>2026-04-18T14:55:58Z</time></trkpt><trkpt lat="45.04033805901204" lon="7.35257848294816"><ele>506.16666666666663</ele><time>2026-04-18T14:55:59Z</time></trkpt><trkpt lat="45.04025970210541" lon="7.352584625400406"><ele>506.0</ele><time>2026-04-18T14:56:00Z</time></trkpt><trkpt lat="45.04014257420083" lon="7.3525964590592485"><ele>505.99999999999994</ele><time>2026-04-18T14:56:02Z</time></trkpt><trkpt lat="45.040074100700075" lon="7.352594946208402"><ele>506.0</ele><time>2026-04-18T14:56:03Z</time></trkpt><trkpt lat="45.039997198797884" lon="7.352598616271659"><ele>506.0</ele><time>2026-04-18T14:56:04Z</time></trkpt><trkpt lat="45.039916949958744" lon="7.352606703603265"><ele>506.0</ele><time>2026-04-18T14:56:05Z</time></trkpt><trkpt lat="45.039823309001335" lon="7.352617241981562"><ele>505.99999999999994</ele><time>2026-04-18T14:56:06Z</time></trkpt><trkpt lat="45.039744543603774" lon="7.352623517169863"><ele>506.0</ele><time>2026-04-18T14:56:07Z</time></trkpt><trkpt lat="45.039672843251175" lon="7.352622492301491"><ele>506.49999999999994</ele><time>2026-04-18T14:56:08Z</time></trkpt><trkpt lat="45.03959865443402" lon="7.35262832513678"><ele>507.0</ele><time>2026-04-18T14:56:09Z</time></trkpt><trkpt lat="45.03951830007058" lon="7.3526339444782876"><ele>507.5</ele><time>2026-04-18T14:56:10Z</time></trkpt><trkpt lat="45.03945525749067" lon="7.352639573848231"><ele>508.0</ele><time>2026-04-18T14:56:11Z</time></trkpt><trkpt lat="45.03934394717413" lon="7.352635375101132"><ele>508.49999999999994</ele><time>2026-04-18T14:56:13Z</time></trkpt><trkpt lat="45.03927740371581" lon="7.352633606484259"><ele>509.0</ele><time>2026-04-18T14:56:14Z</time></trkpt><trkpt lat="45.03916911664842" lon="7.352634806752255"><ele>508.66666666666663</ele><time>2026-04-18T14:56:16Z</time></trkpt><trkpt lat="45.03910368610805" lon="7.352635471885803"><ele>508.3333333333333</ele><time>2026-04-18T14:56:17Z</time></trkpt><trkpt lat="45.039026808060036" lon="7.352639068512459"><ele>508.0</ele><time>2026-04-18T14:56:18Z</time></trkpt><trkpt lat="45.038951322083356" lon="7.352643703253781"><ele>507.66666666666663</ele><time>2026-04-18T14:56:19Z</time></trkpt><trkpt lat="45.038850903686765" lon="7.352645378401684"><ele>507.3333333333333</ele><time>2026-04-18T14:56:21Z</time></trkpt><trkpt lat="45.03878513026657" lon="7.352648057486329"><ele>507.0</ele><time>2026-04-18T14:56:23Z</time></trkpt><trkpt lat="45.03869645893615" lon="7.352653321180018"><ele>507.0</ele><time>2026-04-18T14:56:26Z</time></trkpt><trkpt lat="45.03858297805995" lon="7.352657069032175"><ele>507.00000000000006</ele><time>2026-04-18T14:56:28Z</time></trkpt><trkpt lat="45.03848703659114" lon="7.35265429883957"><ele>507.00000000000006</ele><time>2026-04-18T14:56:30Z</time></trkpt><trkpt lat="45.03841632631385" lon="7.352660140997687"><ele>507.0</ele><time>2026-04-18T14:56:31Z</time></trkpt><trkpt lat="45.0383238336992" lon="7.352662036698069"><ele>507.0</ele><time>2026-04-18T14:56:32Z</time></trkpt><trkpt lat="45.038237054043556" lon="7.352666793000918"><ele>507.3333333333333</ele><time>2026-04-18T14:56:33Z</time></trkpt><trkpt lat="45.038159797979" lon="7.3526822137466725"><ele>507.66666666666663</ele><time>2026-04-18T14:56:34Z</time></trkpt><trkpt lat="45.038097359791834" lon="7.352693877406057"><ele>508.0</ele><time>2026-04-18T14:56:35Z</time></trkpt><trkpt lat="45.03798160230285" lon="7.352734960672735"><ele>508.3333333333333</ele><time>2026-04-18T14:56:37Z</time></trkpt><trkpt lat="45.03791424193969" lon="7.352760605527489"><ele>508.66666666666663</ele><time>2026-04-18T14:56:38Z</time></trkpt><trkpt lat="45.03784420515539" lon="7.3527749092949986"><ele>509.0</ele><time>2026-04-18T14:56:39Z</time></trkpt><trkpt lat="45.03773223293053" lon="7.352789216466044"><ele>509.0</ele><time>2026-04-18T14:56:41Z</time></trkpt><trkpt lat="45.037629362261264" lon="7.352798268518301"><ele>509.0</ele><time>2026-04-18T14:56:43Z</time></trkpt><trkpt lat="45.03752436274221" lon="7.352795506637772"><ele>509.0</ele><time>2026-04-18T14:56:45Z</time></trkpt><trkpt lat="45.03743721774906" lon="7.3528002371631525"><ele>509.0</ele><time>2026-04-18T14:56:46Z</time></trkpt><trkpt lat="45.03730757072861" lon="7.352764352000354"><ele>509.0</ele><time>2026-04-18T14:56:47Z</time></trkpt><trkpt lat="45.03712488755152" lon="7.352742652325777"><ele>508.25</ele><time>2026-04-18T14:56:48Z</time></trkpt><trkpt lat="45.036977291135855" lon="7.352726182723892"><ele>507.5</ele><time>2026-04-18T14:56:49Z</time></trkpt><trkpt lat="45.03683543828486" lon="7.352719331366225"><ele>506.75</ele><time>2026-04-18T14:56:50Z</time></trkpt><trkpt lat="45.036716233595705" lon="7.352701249512605"><ele>506.0</ele><time>2026-04-18T14:56:51Z</time></trkpt><trkpt lat="45.036593751499815" lon="7.352690760180624"><ele>504.75</ele><time>2026-04-18T14:56:52Z</time></trkpt><trkpt lat="45.03647093554925" lon="7.352689842733959"><ele>503.5</ele><time>2026-04-18T14:56:53Z</time></trkpt><trkpt lat="45.03634132237198" lon="7.352676449088297"><ele>502.25</ele><time>2026-04-18T14:56:54Z</time></trkpt><trkpt lat="45.03617022467583" lon="7.352687799592004"><ele>501.0</ele><time>2026-04-18T14:56:55Z</time></trkpt><trkpt lat="45.03599711949691" lon="7.352643450541527"><ele>501.0</ele><time>2026-04-18T14:56:56Z</time></trkpt><trkpt lat="45.035833939278355" lon="7.352619059315718"><ele>501.0</ele><time>2026-04-18T14:56:57Z</time></trkpt><trkpt lat="45.03570518066015" lon="7.352621484853842"><ele>501.0</ele><time>2026-04-18T14:56:58Z</time></trkpt><trkpt lat="45.035562423567114" lon="7.352636109850971"><ele>501.0</ele><time>2026-04-18T14:56:59Z</time></trkpt><trkpt lat="45.035406627155744" lon="7.352667364235623"><ele>499.5</ele><time>2026-04-18T14:57:00Z</time></trkpt><trkpt lat="45.035263477819164" lon="7.352706422473974"><ele>498.0</ele><time>2026-04-18T14:57:01Z</time></trkpt><trkpt lat="45.03512393444174" lon="7.352744926510429"><ele>496.5</ele><time>2026-04-18T14:57:02Z</time></trkpt><trkpt lat="45.03497577494905" lon="7.352789476871364"><ele>495.0</ele><time>2026-04-18T14:57:03Z</time></trkpt><trkpt lat="45.03483736926654" lon="7.3528303624825195"><ele>494.33333333333337</ele><time>2026-04-18T14:57:04Z</time></trkpt><trkpt lat="45.034691387959356" lon="7.352875690330241"><ele>493.6666666666667</ele><time>2026-04-18T14:57:05Z</time></trkpt><trkpt lat="45.03449575693286" lon="7.352947908061049"><ele>493.0</ele><time>2026-04-18T14:57:06Z</time></trkpt><trkpt lat="45.034293575214896" lon="7.35299004109474"><ele>492.33333333333337</ele><time>2026-04-18T14:57:07Z</time></trkpt><trkpt lat="45.03411967276162" lon="7.353047712878171"><ele>491.66666666666663</ele><time>2026-04-18T14:57:08Z</time></trkpt><trkpt lat="45.03397212703192" lon="7.353083205608514"><ele>491.0</ele><time>2026-04-18T14:57:09Z</time></trkpt><trkpt lat="45.03383024466406" lon="7.353128452061317"><ele>491.0</ele><time>2026-04-18T14:57:10Z</time></trkpt><trkpt lat="45.033697994456006" lon="7.353167252646689"><ele>491.0</ele><time>2026-04-18T14:57:11Z</time></trkpt><trkpt lat="45.03358360646151" lon="7.353191845204546"><ele>491.0</ele><time>2026-04-18T14:57:12Z</time></trkpt><trkpt lat="45.03348505029062" lon="7.353204831525121"><ele>491.0</ele><time>2026-04-18T14:57:13Z</time></trkpt><trkpt lat="45.03340349306369" lon="7.353181688553569"><ele>491.0</ele><time>2026-04-18T14:57:14Z</time></trkpt><trkpt lat="45.03333121623615" lon="7.353103131471567"><ele>491.0</ele><time>2026-04-18T14:57:15Z</time></trkpt><trkpt lat="45.0332661695072" lon="7.353010222970363"><ele>491.0</ele><time>2026-04-18T14:57:16Z</time></trkpt><trkpt lat="45.03318366296592" lon="7.352988057959747"><ele>491.0</ele><time>2026-04-18T14:57:17Z</time></trkpt><trkpt lat="45.03309035637862" lon="7.353060050565461"><ele>491.0</ele><time>2026-04-18T14:57:18Z</time></trkpt><trkpt lat="45.03302243007485" lon="7.3531995082834145"><ele>491.0</ele><time>2026-04-18T14:57:19Z</time></trkpt><trkpt lat="45.0328942573791" lon="7.353145476566948"><ele>491.0</ele><time>2026-04-18T14:57:20Z</time></trkpt><trkpt lat="45.03273488848517" lon="7.353099108142378"><ele>491.0</ele><time>2026-04-18T14:57:21Z</time></trkpt><trkpt lat="45.032529307794675" lon="7.352991988410375"><ele>491.0</ele><time>2026-04-18T14:57:22Z</time></trkpt><trkpt lat="45.03228628929093" lon="7.35291744330958"><ele>490.0</ele><time>2026-04-18T14:57:23Z</time></trkpt><trkpt lat="45.032044366692425" lon="7.352826678220909"><ele>489.0</ele><time>2026-04-18T14:57:24Z</time></trkpt><trkpt lat="45.03184610201452" lon="7.35275945117671"><ele>489.0</ele><time>2026-04-18T14:57:25Z</time></trkpt><trkpt lat="45.031678065147496" lon="7.3527289382891965"><ele>489.0</ele><time>2026-04-18T14:57:26Z</time></trkpt><trkpt lat="45.031518393904584" lon="7.352733159046033"><ele>489.0</ele><time>2026-04-18T14:57:27Z</time></trkpt><trkpt lat="45.03136355835154" lon="7.35279935286808"><ele>487.33333333333337</ele><time>2026-04-18T14:57:28Z</time></trkpt><trkpt lat="45.031198509752166" lon="7.352941358000372"><ele>485.6666666666667</ele><time>2026-04-18T14:57:29Z</time></trkpt><trkpt lat="45.03103282437954" lon="7.353132139029616"><ele>484.0</ele><time>2026-04-18T14:57:30Z</time></trkpt><trkpt lat="45.0308665283108" lon="7.3533608333262"><ele>483.0</ele><time>2026-04-18T14:57:31Z</time></trkpt><trkpt lat="45.030718423387626" lon="7.353577714422659"><ele>482.0</ele><time>2026-04-18T14:57:32Z</time></trkpt><trkpt lat="45.030562952672625" lon="7.353796038002757"><ele>481.0</ele><time>2026-04-18T14:57:33Z</time></trkpt><trkpt lat="45.03040669100131" lon="7.353990443623616"><ele>481.0</ele><time>2026-04-18T14:57:34Z</time></trkpt><trkpt lat="45.03026549233521" lon="7.354160833360688"><ele>481.0</ele><time>2026-04-18T14:57:35Z</time></trkpt><trkpt lat="45.03014105136543" lon="7.354309633741643"><ele>481.0</ele><time>2026-04-18T14:57:36Z</time></trkpt><trkpt lat="45.02999796088918" lon="7.354413364475407"><ele>480.33333333333337</ele><time>2026-04-18T14:57:37Z</time></trkpt><trkpt lat="45.02982980357558" lon="7.354448540103296"><ele>479.66666666666663</ele><time>2026-04-18T14:57:38Z</time></trkpt><trkpt lat="45.0296527718001" lon="7.354492980724894"><ele>479.0</ele><time>2026-04-18T14:57:39Z</time></trkpt><trkpt lat="45.02947973667079" lon="7.354494446094069"><ele>479.0</ele><time>2026-04-18T14:57:40Z</time></trkpt><trkpt lat="45.02930186414544" lon="7.354516044201596"><ele>479.0</ele><time>2026-04-18T14:57:41Z</time></trkpt><trkpt lat="45.02912085924465" lon="7.354550716949907"><ele>479.0</ele><time>2026-04-18T14:57:42Z</time></trkpt><trkpt lat="45.02893771896332" lon="7.35458952226733"><ele>478.3333333333333</ele><time>2026-04-18T14:57:43Z</time></trkpt><trkpt lat="45.028779284295695" lon="7.354622083591643"><ele>477.66666666666663</ele><time>2026-04-18T14:57:44Z</time></trkpt><trkpt lat="45.028624517387186" lon="7.354650970402562"><ele>477.0</ele><time>2026-04-18T14:57:45Z</time></trkpt><trkpt lat="45.02844204407542" lon="7.354695502724445"><ele>475.66666666666663</ele><time>2026-04-18T14:57:46Z</time></trkpt><trkpt lat="45.02822177955852" lon="7.354780303437003"><ele>474.3333333333333</ele><time>2026-04-18T14:57:47Z</time></trkpt><trkpt lat="45.028023368145625" lon="7.3548626948004125"><ele>473.0</ele><time>2026-04-18T14:57:48Z</time></trkpt><trkpt lat="45.027846061022544" lon="7.354930903627116"><ele>473.0</ele><time>2026-04-18T14:57:49Z</time></trkpt><trkpt lat="45.027689290670324" lon="7.354991179887384"><ele>473.0</ele><time>2026-04-18T14:57:50Z</time></trkpt><trkpt lat="45.02754638252691" lon="7.355049289509669"><ele>473.0</ele><time>2026-04-18T14:57:51Z</time></trkpt><trkpt lat="45.027416637592765" lon="7.355108521901064"><ele>473.0</ele><time>2026-04-18T14:57:52Z</time></trkpt><trkpt lat="45.02728440805654" lon="7.355164780522605"><ele>472.66666666666663</ele><time>2026-04-18T14:57:53Z</time></trkpt><trkpt lat="45.02713127371304" lon="7.355208091841942"><ele>472.33333333333337</ele><time>2026-04-18T14:57:54Z</time></trkpt><trkpt lat="45.02697149774048" lon="7.355227781635116"><ele>472.0</ele><time>2026-04-18T14:57:55Z</time></trkpt><trkpt lat="45.026830653085625" lon="7.355232438939039"><ele>472.0</ele><time>2026-04-18T14:57:56Z</time></trkpt><trkpt lat="45.02668923830898" lon="7.355228169114588"><ele>472.0</ele><time>2026-04-18T14:57:57Z</time></trkpt><trkpt lat="45.026544812853494" lon="7.355204850232345"><ele>472.0</ele><time>2026-04-18T14:57:58Z</time></trkpt><trkpt lat="45.02638392647259" lon="7.355143663984136"><ele>471.0</ele><time>2026-04-18T14:57:59Z</time></trkpt><trkpt lat="45.026197780654094" lon="7.3550857739191775"><ele>470.0</ele><time>2026-04-18T14:58:00Z</time></trkpt><trkpt lat="45.026016492196995" lon="7.355036401890279"><ele>469.0</ele><time>2026-04-18T14:58:01Z</time></trkpt><trkpt lat="45.025827577830405" lon="7.355040934118071"><ele>468.33333333333337</ele><time>2026-04-18T14:58:02Z</time></trkpt><trkpt lat="45.02561868827035" lon="7.355057769874951"><ele>467.66666666666663</ele><time>2026-04-18T14:58:03Z</time></trkpt><trkpt lat="45.02539136551118" lon="7.355058493113416"><ele>467.0</ele><time>2026-04-18T14:58:04Z</time></trkpt><trkpt lat="45.02516177305059" lon="7.355035463038313"><ele>466.0</ele><time>2026-04-18T14:58:05Z</time></trkpt><trkpt lat="45.02493564655248" lon="7.355019071898138"><ele>465.0</ele><time>2026-04-18T14:58:06Z</time></trkpt><trkpt lat="45.024731268444356" lon="7.355018003542833"><ele>464.0</ele><time>2026-04-18T14:58:07Z</time></trkpt><trkpt lat="45.02452911587839" lon="7.35500923167928"><ele>464.0</ele><time>2026-04-18T14:58:08Z</time></trkpt><trkpt lat="45.02432576706206" lon="7.354995661323708"><ele>464.0</ele><time>2026-04-18T14:58:09Z</time></trkpt><trkpt lat="45.02413258755451" lon="7.354983259331389"><ele>464.0</ele><time>2026-04-18T14:58:10Z</time></trkpt><trkpt lat="45.02392816260797" lon="7.354974000103772"><ele>465.3333333333333</ele><time>2026-04-18T14:58:11Z</time></trkpt><trkpt lat="45.02372258619525" lon="7.354961977521789"><ele>466.66666666666663</ele><time>2026-04-18T14:58:12Z</time></trkpt><trkpt lat="45.02354025087334" lon="7.3549556556085385"><ele>468.0</ele><time>2026-04-18T14:58:13Z</time></trkpt><trkpt lat="45.023373530942415" lon="7.354962312086923"><ele>476.66666666666663</ele><time>2026-04-18T14:58:14Z</time></trkpt><trkpt lat="45.023228511740506" lon="7.354969569317003"><ele>485.3333333333333</ele><time>2026-04-18T14:58:15Z</time></trkpt><trkpt lat="45.02306743306871" lon="7.354969195187414"><ele>494.0</ele><time>2026-04-18T14:58:16Z</time></trkpt><trkpt lat="45.022904756155256" lon="7.355026078732241"><ele>494.0</ele><time>2026-04-18T14:58:17Z</time></trkpt><trkpt lat="45.02275293835171" lon="7.3551563321830775"><ele>494.0</ele><time>2026-04-18T14:58:18Z</time></trkpt><trkpt lat="45.02261646594577" lon="7.355320477388343"><ele>494.0</ele><time>2026-04-18T14:58:19Z</time></trkpt><trkpt lat="45.02251086228516" lon="7.355526103363497"><ele>494.66666666666663</ele><time>2026-04-18T14:58:20Z</time></trkpt><trkpt lat="45.0224165981597" lon="7.3557403267447405"><ele>495.33333333333337</ele><time>2026-04-18T14:58:21Z</time></trkpt><trkpt lat="45.02232605540078" lon="7.3559215263089675"><ele>496.0</ele><time>2026-04-18T14:58:22Z</time></trkpt><trkpt lat="45.02224392865463" lon="7.356112296338488"><ele>496.0</ele><time>2026-04-18T14:58:23Z</time></trkpt><trkpt lat="45.022174530128105" lon="7.356342519710914"><ele>496.0</ele><time>2026-04-18T14:58:24Z</time></trkpt><trkpt lat="45.02212275146361" lon="7.356583443124863"><ele>496.0</ele><time>2026-04-18T14:58:25Z</time></trkpt><trkpt lat="45.022083294042645" lon="7.35680876928705"><ele>492.0</ele><time>2026-04-18T14:58:26Z</time></trkpt><trkpt lat="45.02203101721758" lon="7.357019941144457"><ele>488.0</ele><time>2026-04-18T14:58:27Z</time></trkpt><trkpt lat="45.02194145486751" lon="7.357219376897093"><ele>484.0</ele><time>2026-04-18T14:58:28Z</time></trkpt><trkpt lat="45.021826977814364" lon="7.3574340605055975"><ele>485.0</ele><time>2026-04-18T14:58:29Z</time></trkpt><trkpt lat="45.02169602169991" lon="7.357635605137581"><ele>486.0</ele><time>2026-04-18T14:58:30Z</time></trkpt><trkpt lat="45.02157479930033" lon="7.357862046337363"><ele>487.0</ele><time>2026-04-18T14:58:31Z</time></trkpt><trkpt lat="45.02146218831959" lon="7.358048900396787"><ele>487.0</ele><time>2026-04-18T14:58:32Z</time></trkpt><trkpt lat="45.021362988914646" lon="7.358223429474249"><ele>487.0</ele><time>2026-04-18T14:58:33Z</time></trkpt><trkpt lat="45.02129214663432" lon="7.358405697834805"><ele>487.0</ele><time>2026-04-18T14:58:34Z</time></trkpt><trkpt lat="45.02126964796372" lon="7.358629486185871"><ele>487.0</ele><time>2026-04-18T14:58:35Z</time></trkpt><trkpt lat="45.02129525643218" lon="7.358852424585275"><ele>487.0</ele><time>2026-04-18T14:58:36Z</time></trkpt><trkpt lat="45.021331604267424" lon="7.35905018751955"><ele>487.0</ele><time>2026-04-18T14:58:37Z</time></trkpt><trkpt lat="45.02136433328428" lon="7.359233437621739"><ele>487.0</ele><time>2026-04-18T14:58:38Z</time></trkpt><trkpt lat="45.021348689998526" lon="7.359415806588407"><ele>485.6666666666667</ele><time>2026-04-18T14:58:39Z</time></trkpt><trkpt lat="45.02129927021054" lon="7.359590591094796"><ele>484.33333333333337</ele><time>2026-04-18T14:58:40Z</time></trkpt><trkpt lat="45.02121524213586" lon="7.359772411455238"><ele>483.0</ele><time>2026-04-18T14:58:41Z</time></trkpt><trkpt lat="45.021088652412416" lon="7.359932172482129"><ele>483.66666666666663</ele><time>2026-04-18T14:58:42Z</time></trkpt><trkpt lat="45.02093816145631" lon="7.360100057669755"><ele>484.3333333333333</ele><time>2026-04-18T14:58:43Z</time></trkpt><trkpt lat="45.020784075375886" lon="7.360217676004804"><ele>485.0</ele><time>2026-04-18T14:58:44Z</time></trkpt><trkpt lat="45.02065450904523" lon="7.360332533347691"><ele>485.0</ele><time>2026-04-18T14:58:45Z</time></trkpt><trkpt lat="45.020521187131756" lon="7.3604657485606175"><ele>485.0</ele><time>2026-04-18T14:58:46Z</time></trkpt><trkpt lat="45.0203785479632" lon="7.360605558710509"><ele>485.0</ele><time>2026-04-18T14:58:47Z</time></trkpt><trkpt lat="45.02024435392818" lon="7.360783328907315"><ele>483.66666666666663</ele><time>2026-04-18T14:58:48Z</time></trkpt><trkpt lat="45.02011396996756" lon="7.361011044887125"><ele>482.33333333333337</ele><time>2026-04-18T14:58:49Z</time></trkpt><trkpt lat="45.020012863674346" lon="7.361226880647033"><ele>481.0</ele><time>2026-04-18T14:58:50Z</time></trkpt><trkpt lat="45.01990902300617" lon="7.3614152137122195"><ele>481.0</ele><time>2026-04-18T14:58:51Z</time></trkpt><trkpt lat="45.01976855231934" lon="7.361528572117842"><ele>481.0</ele><time>2026-04-18T14:58:52Z</time></trkpt><trkpt lat="45.01960931199407" lon="7.3616794228603135"><ele>481.0</ele><time>2026-04-18T14:58:53Z</time></trkpt><trkpt lat="45.019429013171454" lon="7.361820627944848"><ele>481.0</ele><time>2026-04-18T14:58:54Z</time></trkpt><trkpt lat="45.019274028553056" lon="7.361967731776438"><ele>481.0</ele><time>2026-04-18T14:58:55Z</time></trkpt><trkpt lat="45.019162315353086" lon="7.362071188801367"><ele>481.0</ele><time>2026-04-18T14:58:56Z</time></trkpt><trkpt lat="45.0190602862771" lon="7.362150749682125"><ele>481.0</ele><time>2026-04-18T14:58:57Z</time></trkpt><trkpt lat="45.018938926028035" lon="7.362184347806643"><ele>484.5</ele><time>2026-04-18T14:58:58Z</time></trkpt><trkpt lat="45.01881593789623" lon="7.36216930393236"><ele>488.0</ele><time>2026-04-18T14:58:59Z</time></trkpt><trkpt lat="45.01867384830292" lon="7.362086274802851"><ele>491.5</ele><time>2026-04-18T14:59:00Z</time></trkpt><trkpt lat="45.01852495629936" lon="7.362002649354438"><ele>495.0</ele><time>2026-04-18T14:59:01Z</time></trkpt><trkpt lat="45.01837765556254" lon="7.361961149276652"><ele>496.33333333333337</ele><time>2026-04-18T14:59:02Z</time></trkpt><trkpt lat="45.01822778149686" lon="7.361989481321062"><ele>497.6666666666667</ele><time>2026-04-18T14:59:03Z</time></trkpt><trkpt lat="45.018080414535824" lon="7.362100017426273"><ele>499.0</ele><time>2026-04-18T14:59:04Z</time></trkpt><trkpt lat="45.01795593704439" lon="7.36228707958575"><ele>499.0</ele><time>2026-04-18T14:59:05Z</time></trkpt><trkpt lat="45.01783444659497" lon="7.362488007434789"><ele>499.0</ele><time>2026-04-18T14:59:06Z</time></trkpt><trkpt lat="45.017740420833086" lon="7.362628360524076"><ele>499.0</ele><time>2026-04-18T14:59:07Z</time></trkpt><trkpt lat="45.01765995172153" lon="7.362739541756984"><ele>499.0</ele><time>2026-04-18T14:59:08Z</time></trkpt><trkpt lat="45.01759417848848" lon="7.3628468311650535"><ele>499.0</ele><time>2026-04-18T14:59:09Z</time></trkpt><trkpt lat="45.017547005042964" lon="7.362980958255356"><ele>499.0</ele><time>2026-04-18T14:59:10Z</time></trkpt><trkpt lat="45.01754925179548" lon="7.363143037319365"><ele>499.0</ele><time>2026-04-18T14:59:11Z</time></trkpt><trkpt lat="45.017574224567745" lon="7.363337059030065"><ele>499.0</ele><time>2026-04-18T14:59:12Z</time></trkpt><trkpt lat="45.017539130579316" lon="7.363437246026141"><ele>499.0</ele><time>2026-04-18T14:59:13Z</time></trkpt><trkpt lat="45.017435618773085" lon="7.36350299939654"><ele>501.0</ele><time>2026-04-18T14:59:14Z</time></trkpt><trkpt lat="45.017335963303864" lon="7.363608184321718"><ele>503.0</ele><time>2026-04-18T14:59:15Z</time></trkpt><trkpt lat="45.01728038968886" lon="7.363727043497716"><ele>505.0</ele><time>2026-04-18T14:59:16Z</time></trkpt><trkpt lat="45.01725559309516" lon="7.363863490569153"><ele>507.0</ele><time>2026-04-18T14:59:17Z</time></trkpt><trkpt lat="45.0172590081258" lon="7.364014460714357"><ele>509.0</ele><time>2026-04-18T14:59:18Z</time></trkpt><trkpt lat="45.017268634250534" lon="7.364161377461981"><ele>509.0</ele><time>2026-04-18T14:59:19Z</time></trkpt><trkpt lat="45.01726352117541" lon="7.364295811559431"><ele>509.0</ele><time>2026-04-18T14:59:20Z</time></trkpt><trkpt lat="45.0172114933517" lon="7.364399596052039"><ele>509.0</ele><time>2026-04-18T14:59:21Z</time></trkpt><trkpt lat="45.017155932758754" lon="7.3645000471320605"><ele>509.0</ele><time>2026-04-18T14:59:22Z</time></trkpt><trkpt lat="45.01706663635115" lon="7.364547277415554"><ele>509.0</ele><time>2026-04-18T14:59:23Z</time></trkpt><trkpt lat="45.016981012771744" lon="7.364567356165595"><ele>508.99999999999994</ele><time>2026-04-18T14:59:24Z</time></trkpt><trkpt lat="45.01689410068146" lon="7.364552559898643"><ele>509.0</ele><time>2026-04-18T14:59:25Z</time></trkpt><trkpt lat="45.01681035608604" lon="7.364513247022593"><ele>509.0</ele><time>2026-04-18T14:59:26Z</time></trkpt><trkpt lat="45.0167279528916" lon="7.3644475850106845"><ele>509.0</ele><time>2026-04-18T14:59:27Z</time></trkpt><trkpt lat="45.016666010031706" lon="7.364379125405775"><ele>508.99999999999994</ele><time>2026-04-18T14:59:28Z</time></trkpt><trkpt lat="45.016614137329654" lon="7.364279298146627"><ele>509.0</ele><time>2026-04-18T14:59:29Z</time></trkpt><trkpt lat="45.0165789533456" lon="7.364164460537493"><ele>508.0</ele><time>2026-04-18T14:59:30Z</time></trkpt><trkpt lat="45.016573186842926" lon="7.36403797275974"><ele>507.0</ele><time>2026-04-18T14:59:31Z</time></trkpt><trkpt lat="45.016583050862046" lon="7.363885787479189"><ele>506.0</ele><time>2026-04-18T14:59:32Z</time></trkpt><trkpt lat="45.016590986632" lon="7.363719427463373"><ele>505.0</ele><time>2026-04-18T14:59:33Z</time></trkpt><trkpt lat="45.01655815802659" lon="7.363536175254582"><ele>504.0</ele><time>2026-04-18T14:59:34Z</time></trkpt><trkpt lat="45.01651057575561" lon="7.36334107201299"><ele>508.66666666666663</ele><time>2026-04-18T14:59:35Z</time></trkpt><trkpt lat="45.01644416175662" lon="7.363112855983209"><ele>513.3333333333333</ele><time>2026-04-18T14:59:36Z</time></trkpt><trkpt lat="45.01637980528373" lon="7.362893545227125"><ele>518.0</ele><time>2026-04-18T14:59:37Z</time></trkpt><trkpt lat="45.01633657777237" lon="7.362693077801973"><ele>520.8</ele><time>2026-04-18T14:59:38Z</time></trkpt><trkpt lat="45.01631216802447" lon="7.362542335180293"><ele>523.5999999999999</ele><time>2026-04-18T14:59:39Z</time></trkpt><trkpt lat="45.01628425158773" lon="7.362442464657391"><ele>526.4000000000001</ele><time>2026-04-18T14:59:40Z</time></trkpt><trkpt lat="45.01622798275311" lon="7.362372523724552"><ele>529.2</ele><time>2026-04-18T14:59:41Z</time></trkpt><trkpt lat="45.016143068584036" lon="7.362343064788837"><ele>532.0</ele><time>2026-04-18T14:59:42Z</time></trkpt><trkpt lat="45.01603589836455" lon="7.3623633571682685"><ele>532.0</ele><time>2026-04-18T14:59:43Z</time></trkpt><trkpt lat="45.01593846228597" lon="7.362455531789422"><ele>532.0</ele><time>2026-04-18T14:59:44Z</time></trkpt><trkpt lat="45.01587681151255" lon="7.362548277634453"><ele>532.0</ele><time>2026-04-18T14:59:45Z</time></trkpt><trkpt lat="45.01580111789082" lon="7.362662703251157"><ele>532.0</ele><time>2026-04-18T14:59:46Z</time></trkpt><trkpt lat="45.01570424707897" lon="7.3627441852323345"><ele>532.0</ele><time>2026-04-18T14:59:47Z</time></trkpt><trkpt lat="45.01559302925044" lon="7.362676092245231"><ele>530.5</ele><time>2026-04-18T14:59:48Z</time></trkpt><trkpt lat="45.01550418638471" lon="7.362575895328791"><ele>529.0</ele><time>2026-04-18T14:59:49Z</time></trkpt><trkpt lat="45.01541410692414" lon="7.36246384005807"><ele>527.5</ele><time>2026-04-18T14:59:50Z</time></trkpt><trkpt lat="45.015333291211896" lon="7.362350288877505"><ele>526.0</ele><time>2026-04-18T14:59:51Z</time></trkpt><trkpt lat="45.01529690416006" lon="7.362190632699356"><ele>531.3333333333334</ele><time>2026-04-18T14:59:52Z</time></trkpt><trkpt lat="45.01528489472434" lon="7.361976281641527"><ele>536.6666666666666</ele><time>2026-04-18T14:59:53Z</time></trkpt><trkpt lat="45.015276557176655" lon="7.361737877457641"><ele>542.0</ele><time>2026-04-18T14:59:54Z</time></trkpt><trkpt lat="45.015211032524235" lon="7.36153121925596"><ele>542.0</ele><time>2026-04-18T14:59:55Z</time></trkpt><trkpt lat="45.01515882920615" lon="7.361372747842068"><ele>542.0</ele><time>2026-04-18T14:59:56Z</time></trkpt><trkpt lat="45.0150969943048" lon="7.361256650944131"><ele>542.0</ele><time>2026-04-18T14:59:57Z</time></trkpt><trkpt lat="45.0150222526647" lon="7.361205577714017"><ele>542.0</ele><time>2026-04-18T14:59:58Z</time></trkpt><trkpt lat="45.01491354935118" lon="7.361212266253207"><ele>542.0</ele><time>2026-04-18T14:59:59Z</time></trkpt><trkpt lat="45.014775896423885" lon="7.3612610076310565"><ele>546.0</ele><time>2026-04-18T15:00:00Z</time></trkpt><trkpt lat="45.01464461246942" lon="7.361326318977113"><ele>550.0</ele><time>2026-04-18T15:00:01Z</time></trkpt><trkpt lat="45.01450039179557" lon="7.361328426702108"><ele>554.0</ele><time>2026-04-18T15:00:02Z</time></trkpt><trkpt lat="45.014344063759005" lon="7.361298252143606"><ele>558.0</ele><time>2026-04-18T15:00:03Z</time></trkpt><trkpt lat="45.01417734896856" lon="7.361216535626423"><ele>555.0</ele><time>2026-04-18T15:00:04Z</time></trkpt><trkpt lat="45.01398908753859" lon="7.361128997903648"><ele>552.0</ele><time>2026-04-18T15:00:05Z</time></trkpt><trkpt lat="45.01384610096053" lon="7.36104006655045"><ele>549.0</ele><time>2026-04-18T15:00:06Z</time></trkpt><trkpt lat="45.01374848381618" lon="7.36096703758112"><ele>549.0</ele><time>2026-04-18T15:00:07Z</time></trkpt><trkpt lat="45.01364870279983" lon="7.360842882077139"><ele>549.0</ele><time>2026-04-18T15:00:08Z</time></trkpt><trkpt lat="45.013540540252144" lon="7.360676873781337"><ele>549.0</ele><time>2026-04-18T15:00:09Z</time></trkpt><trkpt lat="45.01342223085199" lon="7.3605167670436895"><ele>550.0</ele><time>2026-04-18T15:00:10Z</time></trkpt><trkpt lat="45.01325009525532" lon="7.360383945030252"><ele>551.0</ele><time>2026-04-18T15:00:11Z</time></trkpt><trkpt lat="45.01306019997559" lon="7.3603547069731015"><ele>552.0</ele><time>2026-04-18T15:00:12Z</time></trkpt><trkpt lat="45.012954354687906" lon="7.360291215892942"><ele>552.0</ele><time>2026-04-18T15:00:13Z</time></trkpt><trkpt lat="45.01286691749597" lon="7.360206731806954"><ele>552.0</ele><time>2026-04-18T15:00:14Z</time></trkpt><trkpt lat="45.01277793164108" lon="7.360095110616305"><ele>552.0</ele><time>2026-04-18T15:00:15Z</time></trkpt><trkpt lat="45.01271741218037" lon="7.3599251767777725"><ele>552.0</ele><time>2026-04-18T15:00:16Z</time></trkpt><trkpt lat="45.01262129305175" lon="7.359758370358306"><ele>553.6666666666666</ele><time>2026-04-18T15:00:17Z</time></trkpt><trkpt lat="45.01246473652528" lon="7.359630001573672"><ele>555.3333333333333</ele><time>2026-04-18T15:00:18Z</time></trkpt><trkpt lat="45.012289406095924" lon="7.359498055062837"><ele>557.0</ele><time>2026-04-18T15:00:19Z</time></trkpt><trkpt lat="45.012099848110786" lon="7.359358590982831"><ele>557.0</ele><time>2026-04-18T15:00:20Z</time></trkpt><trkpt lat="45.011875578727874" lon="7.359189762903573"><ele>557.0</ele><time>2026-04-18T15:00:21Z</time></trkpt><trkpt lat="45.01170252561783" lon="7.359061731310236"><ele>557.0</ele><time>2026-04-18T15:00:22Z</time></trkpt><trkpt lat="45.01158077453971" lon="7.358973147262432"><ele>557.25</ele><time>2026-04-18T15:00:23Z</time></trkpt><trkpt lat="45.011484844546544" lon="7.35889770969348"><ele>557.5</ele><time>2026-04-18T15:00:24Z</time></trkpt><trkpt lat="45.01137196670268" lon="7.358795724314358"><ele>557.75</ele><time>2026-04-18T15:00:25Z</time></trkpt><trkpt lat="45.011272740372426" lon="7.358648648024663"><ele>558.0</ele><time>2026-04-18T15:00:26Z</time></trkpt><trkpt lat="45.011171231461624" lon="7.3584773260675576"><ele>558.0</ele><time>2026-04-18T15:00:27Z</time></trkpt><trkpt lat="45.01108412039093" lon="7.358297931648354"><ele>558.0</ele><time>2026-04-18T15:00:28Z</time></trkpt><trkpt lat="45.01102822363702" lon="7.358110172916167"><ele>558.0</ele><time>2026-04-18T15:00:29Z</time></trkpt><trkpt lat="45.01099229602467" lon="7.357897345625984"><ele>561.0</ele><time>2026-04-18T15:00:30Z</time></trkpt><trkpt lat="45.01095412679473" lon="7.357714999843892"><ele>564.0</ele><time>2026-04-18T15:00:31Z</time></trkpt><trkpt lat="45.010892457925635" lon="7.3575891190423155"><ele>567.0</ele><time>2026-04-18T15:00:32Z</time></trkpt><trkpt lat="45.01079697698616" lon="7.357491609795596"><ele>570.0</ele><time>2026-04-18T15:00:33Z</time></trkpt><trkpt lat="45.010657495189605" lon="7.357453107555732"><ele>570.0</ele><time>2026-04-18T15:00:34Z</time></trkpt><trkpt lat="45.01048557443336" lon="7.357482263071655"><ele>570.0</ele><time>2026-04-18T15:00:35Z</time></trkpt><trkpt lat="45.01034966189013" lon="7.357440249039579"><ele>570.0</ele><time>2026-04-18T15:00:36Z</time></trkpt><trkpt lat="45.01024572175787" lon="7.357353545993386"><ele>570.0</ele><time>2026-04-18T15:00:37Z</time></trkpt><trkpt lat="45.01016094597366" lon="7.35725955237039"><ele>573.4</ele><time>2026-04-18T15:00:38Z</time></trkpt><trkpt lat="45.01007623265617" lon="7.3571382114383"><ele>576.8</ele><time>2026-04-18T15:00:39Z</time></trkpt><trkpt lat="45.01001490573454" lon="7.35703840138845"><ele>580.2</ele><time>2026-04-18T15:00:40Z</time></trkpt><trkpt lat="45.009961174768996" lon="7.356936219144138"><ele>583.6</ele><time>2026-04-18T15:00:41Z</time></trkpt><trkpt lat="45.00990880618482" lon="7.356805836890269"><ele>587.0</ele><time>2026-04-18T15:00:42Z</time></trkpt><trkpt lat="45.00988418768018" lon="7.356696051467989"><ele>587.6</ele><time>2026-04-18T15:00:43Z</time></trkpt><trkpt lat="45.00987214135497" lon="7.356541552204192"><ele>588.2</ele><time>2026-04-18T15:00:45Z</time></trkpt><trkpt lat="45.009842811963544" lon="7.356394410626033"><ele>588.8</ele><time>2026-04-18T15:00:47Z</time></trkpt><trkpt lat="45.00979749582675" lon="7.356218298146686"><ele>589.4</ele><time>2026-04-18T15:00:49Z</time></trkpt><trkpt lat="45.009732526581686" lon="7.356167805738384"><ele>590.0</ele><time>2026-04-18T15:00:50Z</time></trkpt><trkpt lat="45.00960995055301" lon="7.356175854837067"><ele>590.0</ele><time>2026-04-18T15:00:52Z</time></trkpt><trkpt lat="45.009512632104176" lon="7.356296541953415"><ele>590.0</ele><time>2026-04-18T15:00:54Z</time></trkpt><trkpt lat="45.009443552429126" lon="7.356410322130823"><ele>590.0</ele><time>2026-04-18T15:00:56Z</time></trkpt><trkpt lat="45.009356479093114" lon="7.35652975217793"><ele>590.0</ele><time>2026-04-18T15:00:58Z</time></trkpt><trkpt lat="45.009290655757624" lon="7.35665781194409"><ele>590.0</ele><time>2026-04-18T15:01:00Z</time></trkpt><trkpt lat="45.00919631046027" lon="7.356775159608436"><ele>590.0</ele><time>2026-04-18T15:01:02Z</time></trkpt><trkpt lat="45.009133039170514" lon="7.356809942769336"><ele>590.0</ele><time>2026-04-18T15:01:03Z</time></trkpt><trkpt lat="45.009062508452196" lon="7.3568236020881725"><ele>590.0</ele><time>2026-04-18T15:01:04Z</time></trkpt><trkpt lat="45.008989623415665" lon="7.356797206308993"><ele>590.0</ele><time>2026-04-18T15:01:05Z</time></trkpt><trkpt lat="45.008875220066024" lon="7.356748296526134"><ele>592.4</ele><time>2026-04-18T15:01:07Z</time></trkpt><trkpt lat="45.00877005542921" lon="7.356658879448778"><ele>594.8</ele><time>2026-04-18T15:01:09Z</time></trkpt><trkpt lat="45.0087004794225" lon="7.356628841914598"><ele>597.2</ele><time>2026-04-18T15:01:10Z</time></trkpt><trkpt lat="45.008616265882026" lon="7.356635590293495"><ele>599.6</ele><time>2026-04-18T15:01:11Z</time></trkpt><trkpt lat="45.0084957624002" lon="7.356693885243603"><ele>602.0</ele><time>2026-04-18T15:01:12Z</time></trkpt><trkpt lat="45.00835647421485" lon="7.356744670918515"><ele>609.0</ele><time>2026-04-18T15:01:13Z</time></trkpt><trkpt lat="45.008198130702276" lon="7.35678136883349"><ele>616.0</ele><time>2026-04-18T15:01:14Z</time></trkpt><trkpt lat="45.00802332733404" lon="7.356801782803652"><ele>623.0</ele><time>2026-04-18T15:01:15Z</time></trkpt><trkpt lat="45.00790560978108" lon="7.356823864146178"><ele>623.0</ele><time>2026-04-18T15:01:16Z</time></trkpt><trkpt lat="45.00781019474425" lon="7.356876681208209"><ele>623.0</ele><time>2026-04-18T15:01:17Z</time></trkpt><trkpt lat="45.00772457456101" lon="7.356993122085029"><ele>623.0</ele><time>2026-04-18T15:01:18Z</time></trkpt><trkpt lat="45.00766408870531" lon="7.357161196682491"><ele>623.0</ele><time>2026-04-18T15:01:19Z</time></trkpt><trkpt lat="45.00764107128338" lon="7.357441799092123"><ele>622.0</ele><time>2026-04-18T15:01:20Z</time></trkpt><trkpt lat="45.0076145239123" lon="7.357698848272558"><ele>621.0</ele><time>2026-04-18T15:01:21Z</time></trkpt><trkpt lat="45.00757763393515" lon="7.357908355668273"><ele>620.0</ele><time>2026-04-18T15:01:22Z</time></trkpt><trkpt lat="45.00751045562333" lon="7.3580412015151415"><ele>624.5</ele><time>2026-04-18T15:01:23Z</time></trkpt><trkpt lat="45.00745793873509" lon="7.358152377960633"><ele>629.0</ele><time>2026-04-18T15:01:24Z</time></trkpt><trkpt lat="45.00735367754679" lon="7.358332674344872"><ele>633.5</ele><time>2026-04-18T15:01:25Z</time></trkpt><trkpt lat="45.00723398271878" lon="7.358536356312392"><ele>638.0</ele><time>2026-04-18T15:01:26Z</time></trkpt><trkpt lat="45.007106228379186" lon="7.358733970038565"><ele>638.0</ele><time>2026-04-18T15:01:27Z</time></trkpt><trkpt lat="45.00701886745637" lon="7.358833326374512"><ele>638.0</ele><time>2026-04-18T15:01:28Z</time></trkpt><trkpt lat="45.006930227374994" lon="7.358932452405057"><ele>638.0</ele><time>2026-04-18T15:01:29Z</time></trkpt><trkpt lat="45.00682326150014" lon="7.359009753915859"><ele>638.0</ele><time>2026-04-18T15:01:30Z</time></trkpt><trkpt lat="45.006725120883715" lon="7.359093753410201"><ele>633.0</ele><time>2026-04-18T15:01:31Z</time></trkpt><trkpt lat="45.006603450099064" lon="7.359204877807862"><ele>628.0</ele><time>2026-04-18T15:01:32Z</time></trkpt><trkpt lat="45.006442457594446" lon="7.359357772544103"><ele>623.0</ele><time>2026-04-18T15:01:33Z</time></trkpt><trkpt lat="45.00626741832493" lon="7.3594957002417765"><ele>623.0</ele><time>2026-04-18T15:01:34Z</time></trkpt><trkpt lat="45.0061180072931" lon="7.359611075893672"><ele>623.0</ele><time>2026-04-18T15:01:35Z</time></trkpt><trkpt lat="45.00597715221512" lon="7.359702458724758"><ele>623.0</ele><time>2026-04-18T15:01:36Z</time></trkpt><trkpt lat="45.00582505418447" lon="7.35976728446028"><ele>617.5</ele><time>2026-04-18T15:01:37Z</time></trkpt><trkpt lat="45.00568362369066" lon="7.359772239166172"><ele>612.0</ele><time>2026-04-18T15:01:38Z</time></trkpt><trkpt lat="45.0055480431807" lon="7.359771287949903"><ele>606.5</ele><time>2026-04-18T15:01:39Z</time></trkpt><trkpt lat="45.00544578372513" lon="7.35975325090477"><ele>601.0</ele><time>2026-04-18T15:01:40Z</time></trkpt><trkpt lat="45.00535551750809" lon="7.359668489345974"><ele>601.0</ele><time>2026-04-18T15:01:41Z</time></trkpt><trkpt lat="45.005275286087944" lon="7.359547005952632"><ele>601.0</ele><time>2026-04-18T15:01:42Z</time></trkpt><trkpt lat="45.00520720410288" lon="7.3593700797122725"><ele>601.0</ele><time>2026-04-18T15:01:43Z</time></trkpt><trkpt lat="45.00514406231955" lon="7.3592049905310715"><ele>601.0</ele><time>2026-04-18T15:01:44Z</time></trkpt><trkpt lat="45.00507395366067" lon="7.359093214896041"><ele>595.0</ele><time>2026-04-18T15:01:45Z</time></trkpt><trkpt lat="45.004939640010086" lon="7.358995368073753"><ele>589.0</ele><time>2026-04-18T15:01:46Z</time></trkpt><trkpt lat="45.00480603018008" lon="7.358935913383353"><ele>583.0</ele><time>2026-04-18T15:01:47Z</time></trkpt><trkpt lat="45.00465544159007" lon="7.358845862073015"><ele>583.0</ele><time>2026-04-18T15:01:48Z</time></trkpt><trkpt lat="45.004543537834834" lon="7.35880564596857"><ele>583.0</ele><time>2026-04-18T15:01:49Z</time></trkpt><trkpt lat="45.00445636337537" lon="7.358790804326535"><ele>583.0</ele><time>2026-04-18T15:01:50Z</time></trkpt><trkpt lat="45.00436532572285" lon="7.358813191408197"><ele>583.0</ele><time>2026-04-18T15:01:51Z</time></trkpt><trkpt lat="45.00428212151653" lon="7.358886778668188"><ele>583.0</ele><time>2026-04-18T15:01:52Z</time></trkpt><trkpt lat="45.004221883304346" lon="7.359009103601576"><ele>583.0</ele><time>2026-04-18T15:01:53Z</time></trkpt><trkpt lat="45.004208293155614" lon="7.3591684548640055"><ele>583.0</ele><time>2026-04-18T15:01:54Z</time></trkpt><trkpt lat="45.00420890227411" lon="7.35932165504432"><ele>583.0</ele><time>2026-04-18T15:01:55Z</time></trkpt><trkpt lat="45.00429774508007" lon="7.359441207710165"><ele>583.0</ele><time>2026-04-18T15:01:56Z</time></trkpt><trkpt lat="45.00440494089393" lon="7.359518446946694"><ele>583.0</ele><time>2026-04-18T15:01:57Z</time></trkpt><trkpt lat="45.00453818477356" lon="7.359546284182178"><ele>583.0</ele><time>2026-04-18T15:01:58Z</time></trkpt><trkpt lat="45.00464224234494" lon="7.359592789710228"><ele>583.0</ele><time>2026-04-18T15:01:59Z</time></trkpt><trkpt lat="45.004737414572205" lon="7.359705395649766"><ele>583.0</ele><time>2026-04-18T15:02:01Z</time></trkpt><trkpt lat="45.004788019402994" lon="7.359849976706864"><ele>580.0</ele><time>2026-04-18T15:02:02Z</time></trkpt><trkpt lat="45.00476775461061" lon="7.3600355256620515"><ele>577.0</ele><time>2026-04-18T15:02:03Z</time></trkpt><trkpt lat="45.00476469475016" lon="7.360183259866828"><ele>574.0</ele><time>2026-04-18T15:02:04Z</time></trkpt><trkpt lat="45.004784824419204" lon="7.360298965232321"><ele>571.0</ele><time>2026-04-18T15:02:05Z</time></trkpt><trkpt lat="45.004865044462484" lon="7.36041130207713"><ele>568.0</ele><time>2026-04-18T15:02:06Z</time></trkpt><trkpt lat="45.004962456347364" lon="7.3605159919810985"><ele>569.0</ele><time>2026-04-18T15:02:07Z</time></trkpt><trkpt lat="45.00503554666665" lon="7.3606198393450155"><ele>570.0</ele><time>2026-04-18T15:02:08Z</time></trkpt><trkpt lat="45.00509152295711" lon="7.360701074501878"><ele>571.0</ele><time>2026-04-18T15:02:09Z</time></trkpt><trkpt lat="45.00512293049711" lon="7.360793424454746"><ele>572.0</ele><time>2026-04-18T15:02:10Z</time></trkpt><trkpt lat="45.00513075833191" lon="7.3608933581241045"><ele>573.0</ele><time>2026-04-18T15:02:11Z</time></trkpt><trkpt lat="45.00509109460492" lon="7.36099439388898"><ele>574.0</ele><time>2026-04-18T15:02:12Z</time></trkpt><trkpt lat="45.00501027346438" lon="7.361068099480913"><ele>568.75</ele><time>2026-04-18T15:02:13Z</time></trkpt><trkpt lat="45.004915093190554" lon="7.361091173391985"><ele>563.5</ele><time>2026-04-18T15:02:14.001Z</time></trkpt><trkpt lat="45.004777496989355" lon="7.361101848762986"><ele>558.25</ele><time>2026-04-18T15:02:15.001Z</time></trkpt><trkpt lat="45.00459597904148" lon="7.361145898048456"><ele>553.0</ele><time>2026-04-18T15:02:16.001Z</time></trkpt><trkpt lat="45.00438902774449" lon="7.361195985708368"><ele>553.0</ele><time>2026-04-18T15:02:17.001Z</time></trkpt><trkpt lat="45.004217205993946" lon="7.361233677516512"><ele>553.0</ele><time>2026-04-18T15:02:18.001Z</time></trkpt><trkpt lat="45.004051366181756" lon="7.361267187223702"><ele>553.0</ele><time>2026-04-18T15:02:19.001Z</time></trkpt><trkpt lat="45.003878351662365" lon="7.361322043316795"><ele>552.3333333333334</ele><time>2026-04-18T15:02:20.001Z</time></trkpt><trkpt lat="45.00369647464354" lon="7.361432340326953"><ele>551.6666666666666</ele><time>2026-04-18T15:02:21.001Z</time></trkpt><trkpt lat="45.00351825652046" lon="7.361533753273409"><ele>551.0</ele><time>2026-04-18T15:02:22.001Z</time></trkpt><trkpt lat="45.00335399025841" lon="7.36162280596986"><ele>545.0</ele><time>2026-04-18T15:02:23.001Z</time></trkpt><trkpt lat="45.00319077791853" lon="7.361718524897409"><ele>539.0</ele><time>2026-04-18T15:02:24.001Z</time></trkpt><trkpt lat="45.003025079332815" lon="7.361786626848692"><ele>533.0</ele><time>2026-04-18T15:02:25.001Z</time></trkpt><trkpt lat="45.00286876991479" lon="7.36187468472767"><ele>533.0</ele><time>2026-04-18T15:02:26.001Z</time></trkpt><trkpt lat="45.00271013372362" lon="7.361966969376601"><ele>533.0</ele><time>2026-04-18T15:02:27.001Z</time></trkpt><trkpt lat="45.00255367423131" lon="7.362052807684698"><ele>533.0</ele><time>2026-04-18T15:02:28Z</time></trkpt><trkpt lat="45.00240227516286" lon="7.3621344525454395"><ele>532.25</ele><time>2026-04-18T15:02:29Z</time></trkpt><trkpt lat="45.002265407799015" lon="7.362195117228574"><ele>531.5</ele><time>2026-04-18T15:02:30Z</time></trkpt><trkpt lat="45.002148924731465" lon="7.3622707510985474"><ele>530.75</ele><time>2026-04-18T15:02:31Z</time></trkpt><trkpt lat="45.002065975671044" lon="7.362324997553398"><ele>530.0</ele><time>2026-04-18T15:02:32Z</time></trkpt><trkpt lat="45.00197445647879" lon="7.3624635877462"><ele>530.0</ele><time>2026-04-18T15:02:33Z</time></trkpt><trkpt lat="45.00190760849866" lon="7.3626489100935695"><ele>530.0</ele><time>2026-04-18T15:02:34Z</time></trkpt><trkpt lat="45.0018679371712" lon="7.362856391237427"><ele>530.0</ele><time>2026-04-18T15:02:35Z</time></trkpt><trkpt lat="45.001848742381945" lon="7.363020635360367"><ele>530.0</ele><time>2026-04-18T15:02:36Z</time></trkpt><trkpt lat="45.001847557146235" lon="7.363157155206136"><ele>529.0</ele><time>2026-04-18T15:02:37Z</time></trkpt><trkpt lat="45.0018767056521" lon="7.3632850815173025"><ele>528.0</ele><time>2026-04-18T15:02:38Z</time></trkpt><trkpt lat="45.00195676167634" lon="7.363408565092475"><ele>527.0</ele><time>2026-04-18T15:02:39Z</time></trkpt><trkpt lat="45.00207274958506" lon="7.363499984147106"><ele>526.0</ele><time>2026-04-18T15:02:40Z</time></trkpt><trkpt lat="45.00215340390476" lon="7.3636184057849885"><ele>526.0</ele><time>2026-04-18T15:02:41Z</time></trkpt><trkpt lat="45.002213314604894" lon="7.3637293802642665"><ele>526.0</ele><time>2026-04-18T15:02:42Z</time></trkpt><trkpt lat="45.002236936958546" lon="7.363852622695638"><ele>526.0</ele><time>2026-04-18T15:02:43Z</time></trkpt><trkpt lat="45.00224226581279" lon="7.363992526001337"><ele>526.0</ele><time>2026-04-18T15:02:44Z</time></trkpt><trkpt lat="45.002217884299235" lon="7.3641363890316365"><ele>526.0</ele><time>2026-04-18T15:02:45Z</time></trkpt><trkpt lat="45.00213567954184" lon="7.36423952222454"><ele>525.75</ele><time>2026-04-18T15:02:46Z</time></trkpt><trkpt lat="45.002026369083396" lon="7.364313095014754"><ele>525.5</ele><time>2026-04-18T15:02:47Z</time></trkpt><trkpt lat="45.00188575030607" lon="7.3643561169550855"><ele>525.25</ele><time>2026-04-18T15:02:48Z</time></trkpt><trkpt lat="45.00176693949923" lon="7.36437862084545"><ele>525.0</ele><time>2026-04-18T15:02:49Z</time></trkpt><trkpt lat="45.00165752933266" lon="7.364447838228569"><ele>525.0</ele><time>2026-04-18T15:02:50Z</time></trkpt><trkpt lat="45.00152811179003" lon="7.364546416230109"><ele>525.0</ele><time>2026-04-18T15:02:51Z</time></trkpt><trkpt lat="45.001384738673195" lon="7.36459823551968"><ele>525.0</ele><time>2026-04-18T15:02:52Z</time></trkpt><trkpt lat="45.001259690043575" lon="7.364654994026848"><ele>525.0</ele><time>2026-04-18T15:02:53Z</time></trkpt><trkpt lat="45.001154161916745" lon="7.364720926519999"><ele>525.0</ele><time>2026-04-18T15:02:54Z</time></trkpt><trkpt lat="45.001047351075485" lon="7.364818994248771"><ele>525.0</ele><time>2026-04-18T15:02:55Z</time></trkpt><trkpt lat="45.00095553723054" lon="7.364939380181459"><ele>525.0</ele><time>2026-04-18T15:02:56Z</time></trkpt><trkpt lat="45.00087529844158" lon="7.3650785236301"><ele>525.0</ele><time>2026-04-18T15:02:57Z</time></trkpt><trkpt lat="45.000807182522315" lon="7.365205125916214"><ele>525.0</ele><time>2026-04-18T15:02:58Z</time></trkpt><trkpt lat="45.00073870644415" lon="7.365332833809727"><ele>525.0</ele><time>2026-04-18T15:02:59Z</time></trkpt><trkpt lat="45.00067219135181" lon="7.3654390190992185"><ele>525.0</ele><time>2026-04-18T15:03:00Z</time></trkpt><trkpt lat="45.00058667298053" lon="7.365515840389532"><ele>525.0</ele><time>2026-04-18T15:03:01Z</time></trkpt><trkpt lat="45.000511527890126" lon="7.365642947377732"><ele>525.0</ele><time>2026-04-18T15:03:02Z</time></trkpt><trkpt lat="45.00036254266698" lon="7.365574368389694"><ele>522.0</ele><time>2026-04-18T15:03:03Z</time></trkpt><trkpt lat="45.00024944760716" lon="7.365516920750302"><ele>519.0</ele><time>2026-04-18T15:03:04Z</time></trkpt><trkpt lat="45.000110045012384" lon="7.365416570632058"><ele>516.0</ele><time>2026-04-18T15:03:05Z</time></trkpt><trkpt lat="44.999988330491405" lon="7.365332500436066"><ele>513.0</ele><time>2026-04-18T15:03:06Z</time></trkpt><trkpt lat="44.999878584727604" lon="7.365266037681129"><ele>513.0</ele><time>2026-04-18T15:03:07Z</time></trkpt><trkpt lat="44.99977265530726" lon="7.365226614251962"><ele>513.0</ele><time>2026-04-18T15:03:08Z</time></trkpt><trkpt lat="44.9996457483759" lon="7.365204411042167"><ele>513.0</ele><time>2026-04-18T15:03:09Z</time></trkpt><trkpt lat="44.9994834816514" lon="7.365228949334361"><ele>513.0</ele><time>2026-04-18T15:03:10Z</time></trkpt><trkpt lat="44.9993013553376" lon="7.365284556061752"><ele>512.25</ele><time>2026-04-18T15:03:11Z</time></trkpt><trkpt lat="44.99915084517023" lon="7.365339863590253"><ele>511.5</ele><time>2026-04-18T15:03:12Z</time></trkpt><trkpt lat="44.99901702782414" lon="7.365388081302332"><ele>510.75</ele><time>2026-04-18T15:03:13Z</time></trkpt><trkpt lat="44.99889802950048" lon="7.365456895535161"><ele>510.0</ele><time>2026-04-18T15:03:14Z</time></trkpt><trkpt lat="44.998797139217245" lon="7.365550016598617"><ele>510.0</ele><time>2026-04-18T15:03:15Z</time></trkpt><trkpt lat="44.9986937193677" lon="7.365629917571805"><ele>510.0</ele><time>2026-04-18T15:03:16Z</time></trkpt><trkpt lat="44.99858586952573" lon="7.365631226381965"><ele>510.0</ele><time>2026-04-18T15:03:17Z</time></trkpt><trkpt lat="44.99847798668088" lon="7.365579493081285"><ele>510.0</ele><time>2026-04-18T15:03:18Z</time></trkpt><trkpt lat="44.9983960295047" lon="7.365447525629463"><ele>506.75</ele><time>2026-04-18T15:03:19Z</time></trkpt><trkpt lat="44.99831233113251" lon="7.365295273077897"><ele>503.5</ele><time>2026-04-18T15:03:20Z</time></trkpt><trkpt lat="44.99824687667388" lon="7.3651222176263715"><ele>500.25</ele><time>2026-04-18T15:03:21Z</time></trkpt><trkpt lat="44.99818315292978" lon="7.364969261411602"><ele>497.0</ele><time>2026-04-18T15:03:22Z</time></trkpt><trkpt lat="44.998135459860634" lon="7.3648229966387975"><ele>496.0</ele><time>2026-04-18T15:03:23Z</time></trkpt><trkpt lat="44.99808675476566" lon="7.364683906115554"><ele>495.00000000000006</ele><time>2026-04-18T15:03:24Z</time></trkpt><trkpt lat="44.99803472118711" lon="7.364550285066591"><ele>494.00000000000006</ele><time>2026-04-18T15:03:25Z</time></trkpt><trkpt lat="44.99798425694929" lon="7.364417851334359"><ele>493.0</ele><time>2026-04-18T15:03:26Z</time></trkpt><trkpt lat="44.997941419132076" lon="7.364283479435636"><ele>492.0</ele><time>2026-04-18T15:03:27Z</time></trkpt><trkpt lat="44.99791345781587" lon="7.364142760888919"><ele>492.0</ele><time>2026-04-18T15:03:28Z</time></trkpt><trkpt lat="44.997934645633805" lon="7.363999923981082"><ele>492.00000000000006</ele><time>2026-04-18T15:03:29Z</time></trkpt><trkpt lat="44.9979861020611" lon="7.36386477200776"><ele>492.00000000000006</ele><time>2026-04-18T15:03:30Z</time></trkpt><trkpt lat="44.998052358535354" lon="7.363724730143769"><ele>492.0</ele><time>2026-04-18T15:03:31Z</time></trkpt><trkpt lat="44.998088833435" lon="7.363586760007785"><ele>492.0</ele><time>2026-04-18T15:03:32Z</time></trkpt><trkpt lat="44.9981308441827" lon="7.363497733712478"><ele>490.8</ele><time>2026-04-18T15:03:33Z</time></trkpt><trkpt lat="44.998158771744365" lon="7.363417906505915"><ele>489.6</ele><time>2026-04-18T15:03:34Z</time></trkpt><trkpt lat="44.998197044010226" lon="7.3632510059629235"><ele>488.40000000000003</ele><time>2026-04-18T15:03:36Z</time></trkpt><trkpt lat="44.9981661697049" lon="7.3630852208938125"><ele>487.20000000000005</ele><time>2026-04-18T15:03:38Z</time></trkpt><trkpt lat="44.99811728994224" lon="7.362988664536035"><ele>486.0</ele><time>2026-04-18T15:03:39Z</time></trkpt><trkpt lat="44.99805352485273" lon="7.3629154149244656"><ele>484.0</ele><time>2026-04-18T15:03:40Z</time></trkpt><trkpt lat="44.99798660036954" lon="7.362875401745395"><ele>482.0</ele><time>2026-04-18T15:03:41Z</time></trkpt><trkpt lat="44.997905026714804" lon="7.362863227201317"><ele>480.0</ele><time>2026-04-18T15:03:42Z</time></trkpt><trkpt lat="44.99781250461043" lon="7.362866405856126"><ele>478.0</ele><time>2026-04-18T15:03:43Z</time></trkpt><trkpt lat="44.997719656933924" lon="7.362879708687582"><ele>476.0</ele><time>2026-04-18T15:03:44Z</time></trkpt><trkpt lat="44.997638487805474" lon="7.362891636203103"><ele>474.0</ele><time>2026-04-18T15:03:45Z</time></trkpt><trkpt lat="44.99757073236137" lon="7.362900968704554"><ele>474.0</ele><time>2026-04-18T15:03:46Z</time></trkpt><trkpt lat="44.99750400632993" lon="7.362905239635386"><ele>474.0</ele><time>2026-04-18T15:03:47Z</time></trkpt><trkpt lat="44.997431557445786" lon="7.362914894385819"><ele>474.0</ele><time>2026-04-18T15:03:48Z</time></trkpt><trkpt lat="44.997347277332494" lon="7.362927792102827"><ele>474.0</ele><time>2026-04-18T15:03:49Z</time></trkpt><trkpt lat="44.9972499481722" lon="7.362944359701586"><ele>474.0</ele><time>2026-04-18T15:03:50Z</time></trkpt><trkpt lat="44.997174959949504" lon="7.362964042954435"><ele>474.0</ele><time>2026-04-18T15:03:51Z</time></trkpt><trkpt lat="44.99706595179623" lon="7.363038826592325"><ele>474.6</ele><time>2026-04-18T15:03:53Z</time></trkpt><trkpt lat="44.996983241164415" lon="7.363150078472371"><ele>475.2</ele><time>2026-04-18T15:03:55Z</time></trkpt><trkpt lat="44.99693526703459" lon="7.363222077028617"><ele>475.80000000000007</ele><time>2026-04-18T15:03:56Z</time></trkpt><trkpt lat="44.996872273887135" lon="7.363344961219456"><ele>476.40000000000003</ele><time>2026-04-18T15:03:58Z</time></trkpt><trkpt lat="44.996816393559065" lon="7.363440513633803"><ele>477.0</ele><time>2026-04-18T15:04:00Z</time></trkpt><trkpt lat="44.996723770236095" lon="7.363441790763262"><ele>477.0</ele><time>2026-04-18T15:04:02Z</time></trkpt><trkpt lat="44.99668161282052" lon="7.363370016756838"><ele>477.0</ele><time>2026-04-18T15:04:03Z</time></trkpt><trkpt lat="44.996671753463374" lon="7.363272125741196"><ele>477.0</ele><time>2026-04-18T15:04:04Z</time></trkpt><trkpt lat="44.99670250426364" lon="7.363181750961103"><ele>477.0</ele><time>2026-04-18T15:04:05Z</time></trkpt><trkpt lat="44.9967527110647" lon="7.363028727952665"><ele>477.0</ele><time>2026-04-18T15:04:07Z</time></trkpt><trkpt lat="44.99678735113264" lon="7.362867082254407"><ele>477.0</ele><time>2026-04-18T15:04:09Z</time></trkpt><trkpt lat="44.996820736284064" lon="7.362705434322536"><ele>475.3333333333333</ele><time>2026-04-18T15:04:11Z</time></trkpt><trkpt lat="44.99684852386889" lon="7.362563691465036"><ele>473.66666666666663</ele><time>2026-04-18T15:04:13Z</time></trkpt><trkpt lat="44.99684514369635" lon="7.362426772719462"><ele>472.0</ele><time>2026-04-18T15:04:15Z</time></trkpt><trkpt lat="44.996758378680084" lon="7.362343487951875"><ele>470.3333333333333</ele><time>2026-04-18T15:04:17Z</time></trkpt><trkpt lat="44.99669253956482" lon="7.362361936427561"><ele>468.66666666666663</ele><time>2026-04-18T15:04:18Z</time></trkpt><trkpt lat="44.99663913887594" lon="7.362418444448862"><ele>467.0</ele><time>2026-04-18T15:04:19Z</time></trkpt><trkpt lat="44.996589015807714" lon="7.362508804599995"><ele>465.5</ele><time>2026-04-18T15:04:20.001Z</time></trkpt><trkpt lat="44.99649802895923" lon="7.362626776641029"><ele>464.0</ele><time>2026-04-18T15:04:21.001Z</time></trkpt><trkpt lat="44.996395632307795" lon="7.3627951317238844"><ele>462.5</ele><time>2026-04-18T15:04:22.001Z</time></trkpt><trkpt lat="44.99631491704747" lon="7.362940115654912"><ele>461.0</ele><time>2026-04-18T15:04:23.001Z</time></trkpt><trkpt lat="44.996220593344844" lon="7.363067593667859"><ele>461.0</ele><time>2026-04-18T15:04:24.001Z</time></trkpt><trkpt lat="44.99609553949181" lon="7.363181271596276"><ele>461.0</ele><time>2026-04-18T15:04:25.001Z</time></trkpt><trkpt lat="44.995927289591094" lon="7.36319341065657"><ele>461.0</ele><time>2026-04-18T15:04:26.001Z</time></trkpt><trkpt lat="44.99577672669327" lon="7.36324953171358"><ele>457.0</ele><time>2026-04-18T15:04:27.001Z</time></trkpt><trkpt lat="44.99564858938922" lon="7.363273145851254"><ele>453.0</ele><time>2026-04-18T15:04:28Z</time></trkpt><trkpt lat="44.99553654764375" lon="7.363320007303074"><ele>449.0</ele><time>2026-04-18T15:04:29Z</time></trkpt><trkpt lat="44.99543484651682" lon="7.363410157121436"><ele>445.0</ele><time>2026-04-18T15:04:30Z</time></trkpt><trkpt lat="44.99534353823016" lon="7.3635323162771655"><ele>445.0</ele><time>2026-04-18T15:04:31Z</time></trkpt><trkpt lat="44.99525841718016" lon="7.363664673795279"><ele>445.0</ele><time>2026-04-18T15:04:32Z</time></trkpt><trkpt lat="44.99519355845802" lon="7.363822014502184"><ele>445.0</ele><time>2026-04-18T15:04:33Z</time></trkpt><trkpt lat="44.99512057723588" lon="7.363929680027479"><ele>445.0</ele><time>2026-04-18T15:04:34Z</time></trkpt><trkpt lat="44.995059029966704" lon="7.364029816486624"><ele>443.25</ele><time>2026-04-18T15:04:35Z</time></trkpt><trkpt lat="44.99495956180286" lon="7.3641122313381375"><ele>441.5</ele><time>2026-04-18T15:04:36Z</time></trkpt><trkpt lat="44.99482381396359" lon="7.364120667446241"><ele>439.75</ele><time>2026-04-18T15:04:37Z</time></trkpt><trkpt lat="44.99464493354129" lon="7.364129498485253"><ele>438.0</ele><time>2026-04-18T15:04:38Z</time></trkpt><trkpt lat="44.99446730131115" lon="7.36417001309138"><ele>438.0</ele><time>2026-04-18T15:04:39Z</time></trkpt><trkpt lat="44.99429273062398" lon="7.364201417003546"><ele>438.0</ele><time>2026-04-18T15:04:40Z</time></trkpt><trkpt lat="44.994130110313144" lon="7.364234763312343"><ele>438.0</ele><time>2026-04-18T15:04:41Z</time></trkpt><trkpt lat="44.99396534836128" lon="7.364263760451755"><ele>434.33333333333337</ele><time>2026-04-18T15:04:42Z</time></trkpt><trkpt lat="44.99378970792012" lon="7.364322988805597"><ele>430.6666666666667</ele><time>2026-04-18T15:04:43Z</time></trkpt><trkpt lat="44.99361370217392" lon="7.364405180456354"><ele>427.0</ele><time>2026-04-18T15:04:44Z</time></trkpt><trkpt lat="44.993447718006976" lon="7.364493671816246"><ele>428.0</ele><time>2026-04-18T15:04:45Z</time></trkpt><trkpt lat="44.993291957620045" lon="7.364553365468108"><ele>429.0</ele><time>2026-04-18T15:04:46Z</time></trkpt><trkpt lat="44.993123169996345" lon="7.364637162347496"><ele>430.0</ele><time>2026-04-18T15:04:47Z</time></trkpt><trkpt lat="44.99294827358779" lon="7.3647351783006245"><ele>430.0</ele><time>2026-04-18T15:04:48Z</time></trkpt><trkpt lat="44.992761007885626" lon="7.364755956611273"><ele>430.0</ele><time>2026-04-18T15:04:49Z</time></trkpt><trkpt lat="44.99257133805633" lon="7.364776212559667"><ele>430.0</ele><time>2026-04-18T15:04:50Z</time></trkpt><trkpt lat="44.99240012056713" lon="7.364801968225222"><ele>429.25</ele><time>2026-04-18T15:04:51Z</time></trkpt><trkpt lat="44.992241803245854" lon="7.364811118541054"><ele>428.5</ele><time>2026-04-18T15:04:52Z</time></trkpt><trkpt lat="44.992104397030566" lon="7.364825215995763"><ele>427.75</ele><time>2026-04-18T15:04:53Z</time></trkpt><trkpt lat="44.991977255670136" lon="7.364856074218236"><ele>427.0</ele><time>2026-04-18T15:04:54Z</time></trkpt><trkpt lat="44.99183902486114" lon="7.364879808020348"><ele>427.0</ele><time>2026-04-18T15:04:55Z</time></trkpt><trkpt lat="44.99169032746572" lon="7.364914908142158"><ele>427.0</ele><time>2026-04-18T15:04:56Z</time></trkpt><trkpt lat="44.99152529928786" lon="7.364977977032261"><ele>427.0</ele><time>2026-04-18T15:04:57Z</time></trkpt><trkpt lat="44.99134808673799" lon="7.365051165863835"><ele>425.33333333333337</ele><time>2026-04-18T15:04:58Z</time></trkpt><trkpt lat="44.99118703228711" lon="7.365125680853203"><ele>423.66666666666663</ele><time>2026-04-18T15:04:59Z</time></trkpt><trkpt lat="44.99103163734516" lon="7.365215528158108"><ele>422.0</ele><time>2026-04-18T15:05:00Z</time></trkpt><trkpt lat="44.99085886297986" lon="7.365312837696914"><ele>423.66666666666663</ele><time>2026-04-18T15:05:01Z</time></trkpt><trkpt lat="44.99068313142071" lon="7.365430280585541"><ele>425.33333333333337</ele><time>2026-04-18T15:05:02Z</time></trkpt><trkpt lat="44.99052275955948" lon="7.3655407398714"><ele>427.0</ele><time>2026-04-18T15:05:03Z</time></trkpt><trkpt lat="44.99038752610196" lon="7.365631496408555"><ele>427.0</ele><time>2026-04-18T15:05:04Z</time></trkpt><trkpt lat="44.99024484829115" lon="7.365732710062147"><ele>427.0</ele><time>2026-04-18T15:05:05Z</time></trkpt><trkpt lat="44.990120911245285" lon="7.365828322338067"><ele>427.0</ele><time>2026-04-18T15:05:06Z</time></trkpt><trkpt lat="44.990003326034824" lon="7.365908866362982"><ele>427.0</ele><time>2026-04-18T15:05:07Z</time></trkpt><trkpt lat="44.98987826323353" lon="7.365979921995015"><ele>422.33333333333337</ele><time>2026-04-18T15:05:08Z</time></trkpt><trkpt lat="44.98974087914141" lon="7.3660554700885665"><ele>417.66666666666663</ele><time>2026-04-18T15:05:09Z</time></trkpt><trkpt lat="44.98959501090077" lon="7.36610678312704"><ele>413.0</ele><time>2026-04-18T15:05:10Z</time></trkpt><trkpt lat="44.98943463159359" lon="7.366171329221321"><ele>413.0</ele><time>2026-04-18T15:05:11Z</time></trkpt><trkpt lat="44.98928418601315" lon="7.366270138450106"><ele>413.0</ele><time>2026-04-18T15:05:12Z</time></trkpt><trkpt lat="44.98916918952721" lon="7.366406249069"><ele>413.0</ele><time>2026-04-18T15:05:13Z</time></trkpt><trkpt lat="44.98905566230676" lon="7.366570985279755"><ele>411.3333333333333</ele><time>2026-04-18T15:05:14Z</time></trkpt><trkpt lat="44.988936560667234" lon="7.366752033666221"><ele>409.66666666666663</ele><time>2026-04-18T15:05:15Z</time></trkpt><trkpt lat="44.98879981211819" lon="7.366977611851986"><ele>408.0</ele><time>2026-04-18T15:05:16Z</time></trkpt><trkpt lat="44.98868364898347" lon="7.367154141386121"><ele>404.0</ele><time>2026-04-18T15:05:17Z</time></trkpt><trkpt lat="44.98855843681387" lon="7.367339672908943"><ele>400.0</ele><time>2026-04-18T15:05:18Z</time></trkpt><trkpt lat="44.98843794807568" lon="7.367532758750809"><ele>396.0</ele><time>2026-04-18T15:05:19Z</time></trkpt><trkpt lat="44.98831923652413" lon="7.367709106645516"><ele>396.0</ele><time>2026-04-18T15:05:20Z</time></trkpt><trkpt lat="44.98817578972232" lon="7.367869063408717"><ele>396.0</ele><time>2026-04-18T15:05:21Z</time></trkpt><trkpt lat="44.98801510294265" lon="7.368014451271056"><ele>396.0</ele><time>2026-04-18T15:05:22Z</time></trkpt><trkpt lat="44.98787090875635" lon="7.368152587714942"><ele>397.0</ele><time>2026-04-18T15:05:23Z</time></trkpt><trkpt lat="44.98772837286265" lon="7.3682953680767875"><ele>398.0</ele><time>2026-04-18T15:05:24Z</time></trkpt><trkpt lat="44.987567266079665" lon="7.368460588063212"><ele>399.0</ele><time>2026-04-18T15:05:25Z</time></trkpt><trkpt lat="44.9874024533608" lon="7.368624600535401"><ele>396.66666666666663</ele><time>2026-04-18T15:05:26Z</time></trkpt><trkpt lat="44.987257122037086" lon="7.368764921150632"><ele>394.3333333333333</ele><time>2026-04-18T15:05:27Z</time></trkpt><trkpt lat="44.987108756659985" lon="7.368900412340319"><ele>392.0</ele><time>2026-04-18T15:05:28Z</time></trkpt><trkpt lat="44.986947760157136" lon="7.369024760156894"><ele>392.0</ele><time>2026-04-18T15:05:29Z</time></trkpt><trkpt lat="44.98678642792444" lon="7.369146366638521"><ele>392.0</ele><time>2026-04-18T15:05:30Z</time></trkpt><trkpt lat="44.98664323670613" lon="7.369266265651728"><ele>392.0</ele><time>2026-04-18T15:05:31Z</time></trkpt><trkpt lat="44.98651141405629" lon="7.369400306856347"><ele>390.0</ele><time>2026-04-18T15:05:32Z</time></trkpt><trkpt lat="44.98638202580574" lon="7.369576904705596"><ele>388.0</ele><time>2026-04-18T15:05:33Z</time></trkpt><trkpt lat="44.986288145259735" lon="7.369771291099128"><ele>386.0</ele><time>2026-04-18T15:05:34Z</time></trkpt><trkpt lat="44.98621798704656" lon="7.369964752743071"><ele>386.0</ele><time>2026-04-18T15:05:35Z</time></trkpt><trkpt lat="44.98616204173345" lon="7.370181790262261"><ele>386.0</ele><time>2026-04-18T15:05:36Z</time></trkpt><trkpt lat="44.98612929958417" lon="7.370417837392738"><ele>386.0</ele><time>2026-04-18T15:05:37Z</time></trkpt><trkpt lat="44.98610918878455" lon="7.370637070806823"><ele>385.75</ele><time>2026-04-18T15:05:38Z</time></trkpt><trkpt lat="44.986071812507355" lon="7.37084216459107"><ele>385.5</ele><time>2026-04-18T15:05:39Z</time></trkpt><trkpt lat="44.986030915980834" lon="7.371034468642919"><ele>385.25</ele><time>2026-04-18T15:05:40Z</time></trkpt><trkpt lat="44.98599108732345" lon="7.371220786069093"><ele>385.0</ele><time>2026-04-18T15:05:41Z</time></trkpt><trkpt lat="44.98595139952701" lon="7.371414548572327"><ele>384.6666666666667</ele><time>2026-04-18T15:05:42Z</time></trkpt><trkpt lat="44.98590140113888" lon="7.371635089086797"><ele>384.33333333333337</ele><time>2026-04-18T15:05:43Z</time></trkpt><trkpt lat="44.985840703340635" lon="7.371853523152218"><ele>384.0</ele><time>2026-04-18T15:05:44Z</time></trkpt><trkpt lat="44.98577757894183" lon="7.372056654083883"><ele>382.6666666666667</ele><time>2026-04-18T15:05:45Z</time></trkpt><trkpt lat="44.985704224916624" lon="7.372275985430168"><ele>381.33333333333337</ele><time>2026-04-18T15:05:46Z</time></trkpt><trkpt lat="44.985634014199334" lon="7.3724836787568115"><ele>380.0</ele><time>2026-04-18T15:05:47Z</time></trkpt><trkpt lat="44.985568070445225" lon="7.37266743568453"><ele>380.0</ele><time>2026-04-18T15:05:48Z</time></trkpt><trkpt lat="44.98550161718772" lon="7.3728385193146435"><ele>380.0</ele><time>2026-04-18T15:05:49Z</time></trkpt><trkpt lat="44.98543098284225" lon="7.373023081096927"><ele>380.0</ele><time>2026-04-18T15:05:50Z</time></trkpt><trkpt lat="44.98534192804233" lon="7.373247354374249"><ele>379.75</ele><time>2026-04-18T15:05:51Z</time></trkpt><trkpt lat="44.98525650881639" lon="7.3734404740914705"><ele>379.5</ele><time>2026-04-18T15:05:52Z</time></trkpt><trkpt lat="44.98517919400159" lon="7.37359750225892"><ele>379.25</ele><time>2026-04-18T15:05:53Z</time></trkpt><trkpt lat="44.985116921637086" lon="7.373743289691574"><ele>379.0</ele><time>2026-04-18T15:05:54Z</time></trkpt><trkpt lat="44.98506947650825" lon="7.3738751133252185"><ele>378.4</ele><time>2026-04-18T15:05:55Z</time></trkpt><trkpt lat="44.985031080931776" lon="7.373991243244548"><ele>377.79999999999995</ele><time>2026-04-18T15:05:56Z</time></trkpt><trkpt lat="44.984991245424105" lon="7.374093115813777"><ele>377.20000000000005</ele><time>2026-04-18T15:05:57Z</time></trkpt><trkpt lat="44.984939381107445" lon="7.3742222244523115"><ele>376.6</ele><time>2026-04-18T15:05:59Z</time></trkpt><trkpt lat="44.98481728965577" lon="7.37425650448114"><ele>376.0</ele><time>2026-04-18T15:06:01Z</time></trkpt><trkpt lat="44.98470154215234" lon="7.374242774736204"><ele>375.0</ele><time>2026-04-18T15:06:02Z</time></trkpt><trkpt lat="44.984543657535035" lon="7.374229527914448"><ele>374.0</ele><time>2026-04-18T15:06:03Z</time></trkpt><trkpt lat="44.98436813937785" lon="7.374233523410054"><ele>373.0</ele><time>2026-04-18T15:06:04Z</time></trkpt><trkpt lat="44.98421288016675" lon="7.374240698443291"><ele>373.0</ele><time>2026-04-18T15:06:05Z</time></trkpt><trkpt lat="44.984051672450065" lon="7.3742282991852806"><ele>373.0</ele><time>2026-04-18T15:06:06Z</time></trkpt><trkpt lat="44.98391916911417" lon="7.374217486061459"><ele>373.0</ele><time>2026-04-18T15:06:07Z</time></trkpt><trkpt lat="44.9838318960484" lon="7.374223837781047"><ele>373.0</ele><time>2026-04-18T15:06:08Z</time></trkpt><trkpt lat="44.983774137083756" lon="7.374285199209534"><ele>373.0</ele><time>2026-04-18T15:06:09Z</time></trkpt><trkpt lat="44.98373717548975" lon="7.374403474990304"><ele>373.0</ele><time>2026-04-18T15:06:10Z</time></trkpt><trkpt lat="44.983712311133736" lon="7.3745604250698875"><ele>373.0</ele><time>2026-04-18T15:06:11Z</time></trkpt><trkpt lat="44.98367070035228" lon="7.374692030515814"><ele>373.0</ele><time>2026-04-18T15:06:12Z</time></trkpt><trkpt lat="44.983622967428495" lon="7.374788058546498"><ele>373.0</ele><time>2026-04-18T15:06:13Z</time></trkpt><trkpt lat="44.983541449861484" lon="7.374916341936516"><ele>373.0</ele><time>2026-04-18T15:06:15Z</time></trkpt><trkpt lat="44.98342967431821" lon="7.374961539199056"><ele>373.0</ele><time>2026-04-18T15:06:17Z</time></trkpt><trkpt lat="44.983342054262735" lon="7.374871432295667"><ele>373.0</ele><time>2026-04-18T15:06:18Z</time></trkpt><trkpt lat="44.98324847628778" lon="7.37480860928263"><ele>373.0</ele><time>2026-04-18T15:06:19Z</time></trkpt><trkpt lat="44.98318123372389" lon="7.3747790610654"><ele>373.0</ele><time>2026-04-18T15:06:20Z</time></trkpt><trkpt lat="44.98307857058331" lon="7.3747982142957005"><ele>374.0</ele><time>2026-04-18T15:06:22Z</time></trkpt><trkpt lat="44.983026271281595" lon="7.3748855200191885"><ele>375.0</ele><time>2026-04-18T15:06:23Z</time></trkpt><trkpt lat="44.982980137955416" lon="7.374999288190344"><ele>376.0</ele><time>2026-04-18T15:06:23.999Z</time></trkpt><trkpt lat="44.98292298788474" lon="7.375114175405762"><ele>377.0</ele><time>2026-04-18T15:06:24.999Z</time></trkpt><trkpt lat="44.982862929048984" lon="7.375192822118045"><ele>378.0</ele><time>2026-04-18T15:06:26Z</time></trkpt><trkpt lat="44.98281406336426" lon="7.3752563287627275"><ele>379.0</ele><time>2026-04-18T15:06:27Z</time></trkpt><trkpt lat="44.982779354730766" lon="7.375336804286953"><ele>379.0</ele><time>2026-04-18T15:06:28Z</time></trkpt><trkpt lat="44.98275494687989" lon="7.375448442781794"><ele>379.0</ele><time>2026-04-18T15:06:29Z</time></trkpt><trkpt lat="44.98273186895465" lon="7.3755866076267"><ele>379.0</ele><time>2026-04-18T15:06:30Z</time></trkpt><trkpt lat="44.982718470110996" lon="7.375702500998594"><ele>379.0</ele><time>2026-04-18T15:06:31Z</time></trkpt><trkpt lat="44.982704522793846" lon="7.375801163637259"><ele>379.0</ele><time>2026-04-18T15:06:32Z</time></trkpt><trkpt lat="44.982656995560966" lon="7.375882662936235"><ele>379.0</ele><time>2026-04-18T15:06:33Z</time></trkpt><trkpt lat="44.98257954519427" lon="7.375927271046635"><ele>377.75</ele><time>2026-04-18T15:06:34Z</time></trkpt><trkpt lat="44.98247576437929" lon="7.375922484026286"><ele>376.5</ele><time>2026-04-18T15:06:35Z</time></trkpt><trkpt lat="44.982361760077495" lon="7.3758977313738106"><ele>375.25</ele><time>2026-04-18T15:06:36Z</time></trkpt><trkpt lat="44.98224316956084" lon="7.375906006173385"><ele>374.0</ele><time>2026-04-18T15:06:37Z</time></trkpt><trkpt lat="44.98210054479696" lon="7.375930996655957"><ele>374.0</ele><time>2026-04-18T15:06:38Z</time></trkpt><trkpt lat="44.98198556960803" lon="7.375955124781706"><ele>374.0</ele><time>2026-04-18T15:06:39Z</time></trkpt><trkpt lat="44.981884769413234" lon="7.375965194860019"><ele>374.0</ele><time>2026-04-18T15:06:40Z</time></trkpt><trkpt lat="44.981783601275744" lon="7.375947543054756"><ele>374.0</ele><time>2026-04-18T15:06:41Z</time></trkpt><trkpt lat="44.981669209200845" lon="7.375917541289639"><ele>374.0</ele><time>2026-04-18T15:06:42Z</time></trkpt><trkpt lat="44.981571711828316" lon="7.375894885840386"><ele>373.5</ele><time>2026-04-18T15:06:43Z</time></trkpt><trkpt lat="44.98148254469506" lon="7.375883231715393"><ele>373.0</ele><time>2026-04-18T15:06:44Z</time></trkpt><trkpt lat="44.98140132693502" lon="7.37587104883423"><ele>372.5</ele><time>2026-04-18T15:06:45Z</time></trkpt><trkpt lat="44.98132428172281" lon="7.375858593690131"><ele>372.0</ele><time>2026-04-18T15:06:46Z</time></trkpt><trkpt lat="44.98123521013904" lon="7.375840316609257"><ele>371.5</ele><time>2026-04-18T15:06:47Z</time></trkpt><trkpt lat="44.98115356273888" lon="7.3758363615418885"><ele>371.0</ele><time>2026-04-18T15:06:48Z</time></trkpt><trkpt lat="44.98103098717523" lon="7.375822867313155"><ele>371.0</ele><time>2026-04-18T15:06:50Z</time></trkpt><trkpt lat="44.98095584341479" lon="7.375831592484354"><ele>371.0</ele><time>2026-04-18T15:06:51Z</time></trkpt><trkpt lat="44.98088467101159" lon="7.375879060675233"><ele>371.0</ele><time>2026-04-18T15:06:52Z</time></trkpt><trkpt lat="44.98083678716099" lon="7.375946103362395"><ele>371.0</ele><time>2026-04-18T15:06:53Z</time></trkpt><trkpt lat="44.98079238175143" lon="7.376019981028598"><ele>371.0</ele><time>2026-04-18T15:06:54Z</time></trkpt><trkpt lat="44.980724718270885" lon="7.376118687097684"><ele>371.0</ele><time>2026-04-18T15:06:55Z</time></trkpt><trkpt lat="44.98065258173177" lon="7.376207853990195"><ele>370.20000000000005</ele><time>2026-04-18T15:06:56Z</time></trkpt><trkpt lat="44.98057802542254" lon="7.376304250323371"><ele>369.40000000000003</ele><time>2026-04-18T15:06:57Z</time></trkpt><trkpt lat="44.980504427995214" lon="7.3764011210171905"><ele>368.6</ele><time>2026-04-18T15:06:58Z</time></trkpt><trkpt lat="44.98042484134442" lon="7.376506305829801"><ele>367.8</ele><time>2026-04-18T15:06:59Z</time></trkpt><trkpt lat="44.98033609766537" lon="7.3766150512375015"><ele>367.0</ele><time>2026-04-18T15:07:00Z</time></trkpt><trkpt lat="44.98025907536343" lon="7.376718075069193"><ele>366.6</ele><time>2026-04-18T15:07:01Z</time></trkpt><trkpt lat="44.98019212208065" lon="7.376806882016601"><ele>366.20000000000005</ele><time>2026-04-18T15:07:02Z</time></trkpt><trkpt lat="44.9801180876623" lon="7.376904952522103"><ele>365.8</ele><time>2026-04-18T15:07:03Z</time></trkpt><trkpt lat="44.98003545963233" lon="7.377008717758523"><ele>365.4</ele><time>2026-04-18T15:07:04Z</time></trkpt><trkpt lat="44.979964625807916" lon="7.377104549783251"><ele>365.0</ele><time>2026-04-18T15:07:05Z</time></trkpt><trkpt lat="44.97988766495931" lon="7.37720948490723"><ele>363.6666666666667</ele><time>2026-04-18T15:07:06Z</time></trkpt><trkpt lat="44.97979432663999" lon="7.3773391120188085"><ele>362.3333333333333</ele><time>2026-04-18T15:07:07Z</time></trkpt><trkpt lat="44.97966553934299" lon="7.377480253013677"><ele>361.0</ele><time>2026-04-18T15:07:08Z</time></trkpt><trkpt lat="44.97954624743718" lon="7.377653841075727"><ele>361.0</ele><time>2026-04-18T15:07:09Z</time></trkpt><trkpt lat="44.97944635203392" lon="7.377775633946564"><ele>361.0</ele><time>2026-04-18T15:07:10Z</time></trkpt><trkpt lat="44.97935653193431" lon="7.377890350912128"><ele>361.0</ele><time>2026-04-18T15:07:11Z</time></trkpt><trkpt lat="44.97927645759209" lon="7.377989152298863"><ele>361.0</ele><time>2026-04-18T15:07:12Z</time></trkpt><trkpt lat="44.979183415847714" lon="7.378107953481417"><ele>358.66666666666663</ele><time>2026-04-18T15:07:13Z</time></trkpt><trkpt lat="44.97904797501781" lon="7.378294241671263"><ele>356.3333333333333</ele><time>2026-04-18T15:07:14Z</time></trkpt><trkpt lat="44.97893182313578" lon="7.378437923975326"><ele>354.0</ele><time>2026-04-18T15:07:15Z</time></trkpt><trkpt lat="44.97884501648623" lon="7.378550630583055"><ele>354.0</ele><time>2026-04-18T15:07:16Z</time></trkpt><trkpt lat="44.97874333984292" lon="7.378671245906036"><ele>354.0</ele><time>2026-04-18T15:07:17Z</time></trkpt><trkpt lat="44.978646618869455" lon="7.378794993378696"><ele>354.0</ele><time>2026-04-18T15:07:18Z</time></trkpt><trkpt lat="44.97855060790106" lon="7.378922729384069"><ele>354.0</ele><time>2026-04-18T15:07:19Z</time></trkpt><trkpt lat="44.978445122259316" lon="7.379056310454464"><ele>353.0</ele><time>2026-04-18T15:07:20Z</time></trkpt><trkpt lat="44.97833512720179" lon="7.379192718128203"><ele>352.0</ele><time>2026-04-18T15:07:21Z</time></trkpt><trkpt lat="44.97821810950783" lon="7.379357472495005"><ele>351.0</ele><time>2026-04-18T15:07:22Z</time></trkpt><trkpt lat="44.978098852451886" lon="7.37950055886686"><ele>351.0</ele><time>2026-04-18T15:07:23Z</time></trkpt><trkpt lat="44.977992382029754" lon="7.379644395092674"><ele>351.0</ele><time>2026-04-18T15:07:24Z</time></trkpt><trkpt lat="44.97787974992466" lon="7.3797942033776165"><ele>351.0</ele><time>2026-04-18T15:07:25Z</time></trkpt><trkpt lat="44.97776448895425" lon="7.379947759119747"><ele>350.3333333333333</ele><time>2026-04-18T15:07:26Z</time></trkpt><trkpt lat="44.977651042374255" lon="7.380095401028102"><ele>349.66666666666663</ele><time>2026-04-18T15:07:27Z</time></trkpt><trkpt lat="44.97754194587777" lon="7.380241827647223"><ele>349.0</ele><time>2026-04-18T15:07:28Z</time></trkpt><trkpt lat="44.9774328805047" lon="7.380383010657175"><ele>348.25</ele><time>2026-04-18T15:07:29Z</time></trkpt><trkpt lat="44.977332193137" lon="7.3805119792651475"><ele>347.5</ele><time>2026-04-18T15:07:30Z</time></trkpt><trkpt lat="44.97723674617918" lon="7.380638269223012"><ele>346.75</ele><time>2026-04-18T15:07:31Z</time></trkpt><trkpt lat="44.97714141816671" lon="7.38076374590498"><ele>346.0</ele><time>2026-04-18T15:07:32Z</time></trkpt><trkpt lat="44.977046909834684" lon="7.380890464275582"><ele>345.5</ele><time>2026-04-18T15:07:33Z</time></trkpt><trkpt lat="44.97695665739181" lon="7.381007456379329"><ele>345.0</ele><time>2026-04-18T15:07:34Z</time></trkpt><trkpt lat="44.97685934598489" lon="7.381135961475402"><ele>344.5</ele><time>2026-04-18T15:07:35Z</time></trkpt><trkpt lat="44.9767667267458" lon="7.3812601113457825"><ele>344.0</ele><time>2026-04-18T15:07:36Z</time></trkpt><trkpt lat="44.976689118213244" lon="7.38136733592438"><ele>343.5</ele><time>2026-04-18T15:07:37Z</time></trkpt><trkpt lat="44.97662034213593" lon="7.381456825002568"><ele>343.0</ele><time>2026-04-18T15:07:38Z</time></trkpt><trkpt lat="44.97656025348831" lon="7.381533757371945"><ele>342.5</ele><time>2026-04-18T15:07:39Z</time></trkpt><trkpt lat="44.97651011116914" lon="7.38159778247189"><ele>342.0</ele><time>2026-04-18T15:07:40Z</time></trkpt><trkpt lat="44.976462216567505" lon="7.381659271872326"><ele>341.5</ele><time>2026-04-18T15:07:41Z</time></trkpt><trkpt lat="44.97638864107345" lon="7.3817539128135286"><ele>341.0</ele><time>2026-04-18T15:07:43Z</time></trkpt><trkpt lat="44.97634160651795" lon="7.381818228454083"><ele>341.0</ele><time>2026-04-18T15:08:30.999Z</time></trkpt><trkpt lat="44.97625038043866" lon="7.38194189793481"><ele>341.0</ele><time>2026-04-18T15:08:33Z</time></trkpt><trkpt lat="44.976184249041246" lon="7.382017739913894"><ele>341.0</ele><time>2026-04-18T15:08:34Z</time></trkpt><trkpt lat="44.97610150815259" lon="7.382116921438848"><ele>341.0</ele><time>2026-04-18T15:08:35Z</time></trkpt><trkpt lat="44.97599735647099" lon="7.382248413867003"><ele>340.33333333333337</ele><time>2026-04-18T15:08:36Z</time></trkpt><trkpt lat="44.975861346777954" lon="7.382424218813572"><ele>339.6666666666667</ele><time>2026-04-18T15:08:37Z</time></trkpt><trkpt lat="44.97573381916385" lon="7.382591201523605"><ele>339.0</ele><time>2026-04-18T15:08:38Z</time></trkpt><trkpt lat="44.975626576078184" lon="7.38273382853337"><ele>339.0</ele><time>2026-04-18T15:08:39Z</time></trkpt><trkpt lat="44.975550836779966" lon="7.382822249600252"><ele>339.0</ele><time>2026-04-18T15:08:40Z</time></trkpt><trkpt lat="44.97547308884677" lon="7.382898529765541"><ele>339.0</ele><time>2026-04-18T15:08:41Z</time></trkpt><trkpt lat="44.97537826808417" lon="7.383006209024819"><ele>339.0</ele><time>2026-04-18T15:08:42Z</time></trkpt><trkpt lat="44.975289347289355" lon="7.383166493427074"><ele>338.5</ele><time>2026-04-18T15:08:43Z</time></trkpt><trkpt lat="44.97519491642398" lon="7.383326948340055"><ele>338.0</ele><time>2026-04-18T15:08:44Z</time></trkpt><trkpt lat="44.97508988335761" lon="7.38345597813717"><ele>337.5</ele><time>2026-04-18T15:08:45Z</time></trkpt><trkpt lat="44.97498330101488" lon="7.383591543067443"><ele>337.0</ele><time>2026-04-18T15:08:46Z</time></trkpt><trkpt lat="44.97487493740284" lon="7.3837357236746595"><ele>336.25</ele><time>2026-04-18T15:08:47Z</time></trkpt><trkpt lat="44.97476654883653" lon="7.383878162401357"><ele>335.5</ele><time>2026-04-18T15:08:48Z</time></trkpt><trkpt lat="44.97465901665613" lon="7.384016532661163"><ele>334.75</ele><time>2026-04-18T15:08:49Z</time></trkpt><trkpt lat="44.97456155256193" lon="7.384144029408289"><ele>334.0</ele><time>2026-04-18T15:08:50Z</time></trkpt><trkpt lat="44.974454802541985" lon="7.384280938223068"><ele>334.0</ele><time>2026-04-18T15:08:51Z</time></trkpt><trkpt lat="44.97434003762896" lon="7.384437868764358"><ele>334.0</ele><time>2026-04-18T15:08:52Z</time></trkpt><trkpt lat="44.97420645222221" lon="7.3846080185334415"><ele>334.0</ele><time>2026-04-18T15:08:53Z</time></trkpt><trkpt lat="44.974040676298394" lon="7.384825180533511"><ele>333.5</ele><time>2026-04-18T15:08:54Z</time></trkpt><trkpt lat="44.9738663557367" lon="7.385054231135814"><ele>333.0</ele><time>2026-04-18T15:08:55Z</time></trkpt><trkpt lat="44.97368440068612" lon="7.385293035369622"><ele>332.0</ele><time>2026-04-18T15:08:56Z</time></trkpt><trkpt lat="44.97348998641868" lon="7.385549912298925"><ele>331.0</ele><time>2026-04-18T15:08:57Z</time></trkpt><trkpt lat="44.973287326423254" lon="7.3858202621566535"><ele>331.0</ele><time>2026-04-18T15:08:58Z</time></trkpt><trkpt lat="44.973076246336824" lon="7.386098433933487"><ele>331.0</ele><time>2026-04-18T15:08:59Z</time></trkpt><trkpt lat="44.97286512609209" lon="7.38637215907663"><ele>330.5</ele><time>2026-04-18T15:09:00Z</time></trkpt><trkpt lat="44.972632559732084" lon="7.386660561173018"><ele>330.0</ele><time>2026-04-18T15:09:01Z</time></trkpt><trkpt lat="44.97238593848915" lon="7.386977216373173"><ele>327.0</ele><time>2026-04-18T15:09:02Z</time></trkpt><trkpt lat="44.97216824011641" lon="7.387269235289579"><ele>324.0</ele><time>2026-04-18T15:09:03Z</time></trkpt><trkpt lat="44.97195579442103" lon="7.387543032285911"><ele>324.0</ele><time>2026-04-18T15:09:04Z</time></trkpt><trkpt lat="44.97176626913951" lon="7.387793618684273"><ele>324.0</ele><time>2026-04-18T15:09:05Z</time></trkpt><trkpt lat="44.971591802577336" lon="7.388026571941373"><ele>322.5</ele><time>2026-04-18T15:09:06Z</time></trkpt><trkpt lat="44.97142478277018" lon="7.388243639263698"><ele>321.0</ele><time>2026-04-18T15:09:07Z</time></trkpt><trkpt lat="44.971260698925676" lon="7.388458687812039"><ele>321.0</ele><time>2026-04-18T15:09:08Z</time></trkpt><trkpt lat="44.97109971639175" lon="7.388668207820008"><ele>321.0</ele><time>2026-04-18T15:09:09Z</time></trkpt><trkpt lat="44.97095115073208" lon="7.388861020164545"><ele>321.0</ele><time>2026-04-18T15:09:10Z</time></trkpt><trkpt lat="44.97080183277908" lon="7.389062918656025"><ele>320.0</ele><time>2026-04-18T15:09:11Z</time></trkpt><trkpt lat="44.97065143496738" lon="7.389260947295854"><ele>319.0</ele><time>2026-04-18T15:09:12Z</time></trkpt><trkpt lat="44.97052458658076" lon="7.389437800642864"><ele>318.0</ele><time>2026-04-18T15:09:13Z</time></trkpt><trkpt lat="44.97038476993878" lon="7.389617670085563"><ele>317.3333333333333</ele><time>2026-04-18T15:09:14Z</time></trkpt><trkpt lat="44.97022914787035" lon="7.38981842719945"><ele>316.66666666666663</ele><time>2026-04-18T15:09:15Z</time></trkpt><trkpt lat="44.97009503824752" lon="7.389990765578689"><ele>316.0</ele><time>2026-04-18T15:09:16Z</time></trkpt><trkpt lat="44.96996849713731" lon="7.390148995613159"><ele>316.0</ele><time>2026-04-18T15:09:17Z</time></trkpt><trkpt lat="44.969845106554196" lon="7.390318580928528"><ele>316.0</ele><time>2026-04-18T15:09:18Z</time></trkpt><trkpt lat="44.969716534179845" lon="7.390491169482762"><ele>316.0</ele><time>2026-04-18T15:09:19Z</time></trkpt><trkpt lat="44.96960263527915" lon="7.390638369923531"><ele>315.75</ele><time>2026-04-18T15:09:20Z</time></trkpt><trkpt lat="44.96950210198292" lon="7.390773876570294"><ele>315.5</ele><time>2026-04-18T15:09:21Z</time></trkpt><trkpt lat="44.969407537958396" lon="7.390898424483007"><ele>315.25</ele><time>2026-04-18T15:09:22Z</time></trkpt><trkpt lat="44.96931987515473" lon="7.391008015362155"><ele>315.0</ele><time>2026-04-18T15:09:23Z</time></trkpt><trkpt lat="44.969234666878094" lon="7.3911012275257715"><ele>314.5</ele><time>2026-04-18T15:09:24Z</time></trkpt><trkpt lat="44.96913258263137" lon="7.391167250693446"><ele>314.0</ele><time>2026-04-18T15:09:25Z</time></trkpt><trkpt lat="44.96903049927359" lon="7.39125713617498"><ele>313.5</ele><time>2026-04-18T15:09:26Z</time></trkpt><trkpt lat="44.968961474600555" lon="7.391425913508559"><ele>313.0</ele><time>2026-04-18T15:09:27Z</time></trkpt><trkpt lat="44.96890068368165" lon="7.391574548890984"><ele>313.0</ele><time>2026-04-18T15:09:28Z</time></trkpt><trkpt lat="44.968811420351244" lon="7.39168947687758"><ele>313.0</ele><time>2026-04-18T15:09:29Z</time></trkpt><trkpt lat="44.968702125787516" lon="7.3918194472172765"><ele>313.0</ele><time>2026-04-18T15:09:30Z</time></trkpt><trkpt lat="44.968591599340584" lon="7.391957950392353"><ele>313.0</ele><time>2026-04-18T15:09:31Z</time></trkpt><trkpt lat="44.96848012077064" lon="7.392103385271871"><ele>312.66666666666663</ele><time>2026-04-18T15:09:32Z</time></trkpt><trkpt lat="44.968370184877024" lon="7.3922442398768204"><ele>312.3333333333333</ele><time>2026-04-18T15:09:33Z</time></trkpt><trkpt lat="44.968248745452996" lon="7.392400154826594"><ele>312.0</ele><time>2026-04-18T15:09:34Z</time></trkpt><trkpt lat="44.96812844728677" lon="7.39256206707421"><ele>312.0</ele><time>2026-04-18T15:09:35Z</time></trkpt><trkpt lat="44.967971071917574" lon="7.392770920117251"><ele>312.0</ele><time>2026-04-18T15:09:36Z</time></trkpt><trkpt lat="44.967794450302655" lon="7.393003090428526"><ele>311.0</ele><time>2026-04-18T15:09:37Z</time></trkpt><trkpt lat="44.96760338847358" lon="7.3932493611955135"><ele>310.0</ele><time>2026-04-18T15:09:38Z</time></trkpt><trkpt lat="44.96740272131758" lon="7.393514535284929"><ele>310.0</ele><time>2026-04-18T15:09:39Z</time></trkpt><trkpt lat="44.967203732332266" lon="7.393788543935267"><ele>310.0</ele><time>2026-04-18T15:09:40Z</time></trkpt><trkpt lat="44.96701567246621" lon="7.394031454877793"><ele>310.0</ele><time>2026-04-18T15:09:41Z</time></trkpt><trkpt lat="44.966835134614136" lon="7.394259331525859"><ele>310.0</ele><time>2026-04-18T15:09:42Z</time></trkpt><trkpt lat="44.966686757443426" lon="7.394460732631199"><ele>310.0</ele><time>2026-04-18T15:09:43Z</time></trkpt><trkpt lat="44.96655119865128" lon="7.394653362646894"><ele>310.0</ele><time>2026-04-18T15:09:44Z</time></trkpt><trkpt lat="44.96641392995071" lon="7.394822236660211"><ele>310.0</ele><time>2026-04-18T15:09:45Z</time></trkpt><trkpt lat="44.96627690985329" lon="7.395002500195682"><ele>310.0</ele><time>2026-04-18T15:09:46Z</time></trkpt><trkpt lat="44.96611520292756" lon="7.395214415782622"><ele>310.0</ele><time>2026-04-18T15:09:47Z</time></trkpt><trkpt lat="44.965948787878155" lon="7.39543534668047"><ele>310.0</ele><time>2026-04-18T15:09:48Z</time></trkpt><trkpt lat="44.96578265094832" lon="7.395650346978486"><ele>309.5</ele><time>2026-04-18T15:09:49Z</time></trkpt><trkpt lat="44.96561071307994" lon="7.395877883301261"><ele>309.0</ele><time>2026-04-18T15:09:50Z</time></trkpt><trkpt lat="44.96543260640313" lon="7.396109784174947"><ele>307.0</ele><time>2026-04-18T15:09:51Z</time></trkpt><trkpt lat="44.965256632789185" lon="7.3963367059251555"><ele>305.0</ele><time>2026-04-18T15:09:52Z</time></trkpt><trkpt lat="44.96508463512142" lon="7.396555217302843"><ele>305.0</ele><time>2026-04-18T15:09:53Z</time></trkpt><trkpt lat="44.964922034067634" lon="7.396770230127526"><ele>305.0</ele><time>2026-04-18T15:09:54Z</time></trkpt><trkpt lat="44.96475982657913" lon="7.3969815551070655"><ele>305.0</ele><time>2026-04-18T15:09:55Z</time></trkpt><trkpt lat="44.96459790710512" lon="7.397192865570611"><ele>303.5</ele><time>2026-04-18T15:09:56Z</time></trkpt><trkpt lat="44.964436247401935" lon="7.39740839021086"><ele>302.0</ele><time>2026-04-18T15:09:57Z</time></trkpt><trkpt lat="44.964265877042756" lon="7.397635823854574"><ele>302.5</ele><time>2026-04-18T15:09:58Z</time></trkpt><trkpt lat="44.96409812243507" lon="7.397858321678384"><ele>303.0</ele><time>2026-04-18T15:09:59Z</time></trkpt><trkpt lat="44.96392862956991" lon="7.398082835736682"><ele>301.5</ele><time>2026-04-18T15:10:00Z</time></trkpt><trkpt lat="44.96375501216223" lon="7.398310380146675"><ele>300.0</ele><time>2026-04-18T15:10:01Z</time></trkpt><trkpt lat="44.96359523973074" lon="7.398521043391107"><ele>300.0</ele><time>2026-04-18T15:10:02Z</time></trkpt><trkpt lat="44.963422754583306" lon="7.398736451495754"><ele>300.0</ele><time>2026-04-18T15:10:03Z</time></trkpt><trkpt lat="44.96325382698577" lon="7.398966006233358"><ele>300.0</ele><time>2026-04-18T15:10:04Z</time></trkpt><trkpt lat="44.96309035668554" lon="7.399183758099949"><ele>300.0</ele><time>2026-04-18T15:10:05Z</time></trkpt><trkpt lat="44.96292509693392" lon="7.399397273677035"><ele>300.0</ele><time>2026-04-18T15:10:05.999Z</time></trkpt><trkpt lat="44.96276283657027" lon="7.399609524471559"><ele>299.5</ele><time>2026-04-18T15:10:06.999Z</time></trkpt><trkpt lat="44.96260122943262" lon="7.399821972217197"><ele>299.0</ele><time>2026-04-18T15:10:07.999Z</time></trkpt><trkpt lat="44.962430649863244" lon="7.400055587607602"><ele>298.5</ele><time>2026-04-18T15:10:08.999Z</time></trkpt><trkpt lat="44.96222798867408" lon="7.400339876951676"><ele>298.0</ele><time>2026-04-18T15:10:09.999Z</time></trkpt><trkpt lat="44.961995595592064" lon="7.400622746036675"><ele>298.0</ele><time>2026-04-18T15:10:10.999Z</time></trkpt><trkpt lat="44.96174785576614" lon="7.400915495572111"><ele>298.0</ele><time>2026-04-18T15:10:11.999Z</time></trkpt><trkpt lat="44.96150630921743" lon="7.401238793466999"><ele>296.5</ele><time>2026-04-18T15:10:12.999Z</time></trkpt><trkpt lat="44.961252646622135" lon="7.401578017904079"><ele>295.0</ele><time>2026-04-18T15:10:13.999Z</time></trkpt><trkpt lat="44.96100213816839" lon="7.401905647940369"><ele>293.5</ele><time>2026-04-18T15:10:14.999Z</time></trkpt><trkpt lat="44.96078192374804" lon="7.402191701040784"><ele>292.0</ele><time>2026-04-18T15:10:15.999Z</time></trkpt><trkpt lat="44.96058796331304" lon="7.402449932266949"><ele>292.0</ele><time>2026-04-18T15:10:16.999Z</time></trkpt><trkpt lat="44.96040474518173" lon="7.402686399778124"><ele>292.0</ele><time>2026-04-18T15:10:17.999Z</time></trkpt><trkpt lat="44.960228724256766" lon="7.402903104043964"><ele>292.3333333333333</ele><time>2026-04-18T15:10:18.999Z</time></trkpt><trkpt lat="44.960070778382" lon="7.40311140748923"><ele>292.6666666666667</ele><time>2026-04-18T15:10:19.999Z</time></trkpt><trkpt lat="44.95990900469042" lon="7.403326837154284"><ele>293.0</ele><time>2026-04-18T15:10:20.999Z</time></trkpt><trkpt lat="44.95975499979589" lon="7.403530663312163"><ele>293.0</ele><time>2026-04-18T15:10:21.999Z</time></trkpt><trkpt lat="44.959614312044046" lon="7.403719553766075"><ele>293.0</ele><time>2026-04-18T15:10:22.999Z</time></trkpt><trkpt lat="44.95946175926525" lon="7.403913895363153"><ele>293.0</ele><time>2026-04-18T15:10:23.999Z</time></trkpt><trkpt lat="44.95930650919002" lon="7.404113737405949"><ele>293.0</ele><time>2026-04-18T15:10:24.999Z</time></trkpt><trkpt lat="44.95916713538024" lon="7.40429438431421"><ele>293.0</ele><time>2026-04-18T15:10:25.999Z</time></trkpt><trkpt lat="44.95903669801998" lon="7.404473833486984"><ele>293.0</ele><time>2026-04-18T15:10:26.999Z</time></trkpt><trkpt lat="44.95888648674775" lon="7.404668407633924"><ele>292.33333333333337</ele><time>2026-04-18T15:10:27.999Z</time></trkpt><trkpt lat="44.95872688600119" lon="7.404875117897917"><ele>291.6666666666667</ele><time>2026-04-18T15:10:28.999Z</time></trkpt><trkpt lat="44.95856533854316" lon="7.40508792322469"><ele>291.0</ele><time>2026-04-18T15:10:29.999Z</time></trkpt><trkpt lat="44.95841407806612" lon="7.405284926951105"><ele>291.0</ele><time>2026-04-18T15:10:30.999Z</time></trkpt><trkpt lat="44.95826560798462" lon="7.405476024233856"><ele>291.0</ele><time>2026-04-18T15:10:31.999Z</time></trkpt><trkpt lat="44.95811405996468" lon="7.405672291074543"><ele>291.0</ele><time>2026-04-18T15:10:32.999Z</time></trkpt><trkpt lat="44.957987687080696" lon="7.4058504951450725"><ele>290.0</ele><time>2026-04-18T15:10:33.999Z</time></trkpt><trkpt lat="44.957867637176456" lon="7.406044818166502"><ele>289.0</ele><time>2026-04-18T15:10:34.999Z</time></trkpt><trkpt lat="44.95777228222471" lon="7.406304921853069"><ele>288.0</ele><time>2026-04-18T15:10:35.999Z</time></trkpt><trkpt lat="44.95771607051662" lon="7.406620498804987"><ele>288.0</ele><time>2026-04-18T15:10:36.999Z</time></trkpt><trkpt lat="44.9576839588079" lon="7.406936772319126"><ele>288.0</ele><time>2026-04-18T15:10:38Z</time></trkpt><trkpt lat="44.95767539889008" lon="7.407189540570491"><ele>288.0</ele><time>2026-04-18T15:10:39Z</time></trkpt><trkpt lat="44.95764797064018" lon="7.407397384472568"><ele>288.0</ele><time>2026-04-18T15:10:40Z</time></trkpt><trkpt lat="44.95760469206011" lon="7.407573978112884"><ele>288.0</ele><time>2026-04-18T15:10:41Z</time></trkpt><trkpt lat="44.95753708106759" lon="7.407713715270524"><ele>288.0</ele><time>2026-04-18T15:10:42Z</time></trkpt><trkpt lat="44.95745338751702" lon="7.407846927514653"><ele>288.0</ele><time>2026-04-18T15:10:43Z</time></trkpt><trkpt lat="44.95738405887917" lon="7.40794180901317"><ele>287.8</ele><time>2026-04-18T15:10:44Z</time></trkpt><trkpt lat="44.95732191610273" lon="7.407996328644105"><ele>287.6</ele><time>2026-04-18T15:10:45Z</time></trkpt><trkpt lat="44.9572340927828" lon="7.408000360577254"><ele>287.4</ele><time>2026-04-18T15:10:46Z</time></trkpt><trkpt lat="44.957134024891474" lon="7.407927999376033"><ele>287.2</ele><time>2026-04-18T15:10:47Z</time></trkpt><trkpt lat="44.95703993188288" lon="7.4078013468766795"><ele>287.0</ele><time>2026-04-18T15:10:48Z</time></trkpt><trkpt lat="44.956939777511955" lon="7.407593030979675"><ele>287.0</ele><time>2026-04-18T15:10:49Z</time></trkpt><trkpt lat="44.9568274249962" lon="7.407339808075314"><ele>287.0</ele><time>2026-04-18T15:10:50Z</time></trkpt><trkpt lat="44.95672286589947" lon="7.407139430678083"><ele>287.0</ele><time>2026-04-18T15:10:51Z</time></trkpt><trkpt lat="44.956655109413184" lon="7.406991924131127"><ele>287.2</ele><time>2026-04-18T15:10:52Z</time></trkpt><trkpt lat="44.956608885232086" lon="7.406870841842966"><ele>287.4</ele><time>2026-04-18T15:10:53Z</time></trkpt><trkpt lat="44.95657420337419" lon="7.406693950092166"><ele>287.6</ele><time>2026-04-18T15:10:55Z</time></trkpt><trkpt lat="44.95656365265317" lon="7.406562088220617"><ele>287.8</ele><time>2026-04-18T15:10:56Z</time></trkpt><trkpt lat="44.95651466656634" lon="7.4064404290432275"><ele>288.0</ele><time>2026-04-18T15:10:57Z</time></trkpt><trkpt lat="44.95640724037531" lon="7.406349475517948"><ele>287.75</ele><time>2026-04-18T15:10:58Z</time></trkpt><trkpt lat="44.9562838503424" lon="7.406227837054323"><ele>287.5</ele><time>2026-04-18T15:10:59Z</time></trkpt><trkpt lat="44.95619185748489" lon="7.4060779590131105"><ele>287.25</ele><time>2026-04-18T15:11:00Z</time></trkpt><trkpt lat="44.95611347024072" lon="7.405933693964234"><ele>287.0</ele><time>2026-04-18T15:11:01Z</time></trkpt><trkpt lat="44.95603732605307" lon="7.405778810318448"><ele>287.0</ele><time>2026-04-18T15:11:02Z</time></trkpt><trkpt lat="44.955937006978715" lon="7.405579964214992"><ele>287.0</ele><time>2026-04-18T15:11:03Z</time></trkpt><trkpt lat="44.95581180080261" lon="7.405331190969842"><ele>287.0</ele><time>2026-04-18T15:11:04Z</time></trkpt><trkpt lat="44.95567867857123" lon="7.405055612306719"><ele>287.5</ele><time>2026-04-18T15:11:05Z</time></trkpt><trkpt lat="44.9555301855072" lon="7.404752940662073"><ele>288.0</ele><time>2026-04-18T15:11:06Z</time></trkpt><trkpt lat="44.955374055780325" lon="7.404426822069058"><ele>288.0</ele><time>2026-04-18T15:11:07Z</time></trkpt><trkpt lat="44.95523675894935" lon="7.404156286818932"><ele>288.0</ele><time>2026-04-18T15:11:08Z</time></trkpt><trkpt lat="44.955127331270795" lon="7.403918774151079"><ele>288.0</ele><time>2026-04-18T15:11:09Z</time></trkpt><trkpt lat="44.955022272860106" lon="7.403697487426639"><ele>288.0</ele><time>2026-04-18T15:11:10Z</time></trkpt><trkpt lat="44.95487873234859" lon="7.403449600692004"><ele>288.0</ele><time>2026-04-18T15:11:11Z</time></trkpt><trkpt lat="44.954723301429325" lon="7.403131886041918"><ele>288.5</ele><time>2026-04-18T15:11:12Z</time></trkpt><trkpt lat="44.954574951434665" lon="7.402773122043066"><ele>289.0</ele><time>2026-04-18T15:11:13Z</time></trkpt><trkpt lat="44.954408967816" lon="7.40240515310186"><ele>290.0</ele><time>2026-04-18T15:11:14Z</time></trkpt><trkpt lat="44.95421929615522" lon="7.402031373235408"><ele>291.0</ele><time>2026-04-18T15:11:15Z</time></trkpt><trkpt lat="44.954032322738925" lon="7.401640802915774"><ele>291.5</ele><time>2026-04-18T15:11:16Z</time></trkpt><trkpt lat="44.95385324180302" lon="7.401278394289091"><ele>292.0</ele><time>2026-04-18T15:11:17Z</time></trkpt><trkpt lat="44.95369516007008" lon="7.4009683747465616"><ele>292.0</ele><time>2026-04-18T15:11:18Z</time></trkpt><trkpt lat="44.95355693966985" lon="7.400687042178763"><ele>292.0</ele><time>2026-04-18T15:11:19Z</time></trkpt><trkpt lat="44.953432132189846" lon="7.4004194047011715"><ele>292.0</ele><time>2026-04-18T15:11:20Z</time></trkpt><trkpt lat="44.95332075200554" lon="7.400168805171746"><ele>292.0</ele><time>2026-04-18T15:11:21Z</time></trkpt><trkpt lat="44.95320539902078" lon="7.399931876492805"><ele>292.0</ele><time>2026-04-18T15:11:22Z</time></trkpt><trkpt lat="44.953097004997" lon="7.399706242106261"><ele>292.0</ele><time>2026-04-18T15:11:23Z</time></trkpt><trkpt lat="44.95300006974852" lon="7.399512048710787"><ele>292.0</ele><time>2026-04-18T15:11:24Z</time></trkpt><trkpt lat="44.95290730250215" lon="7.399329811233376"><ele>292.0</ele><time>2026-04-18T15:11:25Z</time></trkpt><trkpt lat="44.952819996590684" lon="7.399142873611797"><ele>292.0</ele><time>2026-04-18T15:11:26Z</time></trkpt><trkpt lat="44.95272156385731" lon="7.3989418609255155"><ele>292.0</ele><time>2026-04-18T15:11:27Z</time></trkpt><trkpt lat="44.95261491731124" lon="7.398739309414433"><ele>292.0</ele><time>2026-04-18T15:11:28Z</time></trkpt><trkpt lat="44.95250939038952" lon="7.398545312242966"><ele>293.0</ele><time>2026-04-18T15:11:29Z</time></trkpt><trkpt lat="44.952408400534004" lon="7.398335219382598"><ele>294.0</ele><time>2026-04-18T15:11:30Z</time></trkpt><trkpt lat="44.95226346209437" lon="7.398071238314189"><ele>295.0</ele><time>2026-04-18T15:11:31Z</time></trkpt><trkpt lat="44.95211542252923" lon="7.397754949309878"><ele>295.5</ele><time>2026-04-18T15:11:32Z</time></trkpt><trkpt lat="44.95196647853636" lon="7.397397627906593"><ele>296.0</ele><time>2026-04-18T15:11:33Z</time></trkpt><trkpt lat="44.95178566736274" lon="7.397042344048656"><ele>296.0</ele><time>2026-04-18T15:11:34Z</time></trkpt><trkpt lat="44.95160035787957" lon="7.396666457774279"><ele>296.0</ele><time>2026-04-18T15:11:35Z</time></trkpt><trkpt lat="44.95141931892499" lon="7.396270389235225"><ele>296.5</ele><time>2026-04-18T15:11:36Z</time></trkpt><trkpt lat="44.95124414543452" lon="7.395906122206049"><ele>297.0</ele><time>2026-04-18T15:11:37Z</time></trkpt><trkpt lat="44.95108729370859" lon="7.3955974216922"><ele>297.0</ele><time>2026-04-18T15:11:38Z</time></trkpt><trkpt lat="44.95094589349849" lon="7.3953100682899064"><ele>297.0</ele><time>2026-04-18T15:11:39Z</time></trkpt><trkpt lat="44.95081673857422" lon="7.395029528423016"><ele>297.0</ele><time>2026-04-18T15:11:40Z</time></trkpt><trkpt lat="44.95069745291436" lon="7.3947697757567745"><ele>297.0</ele><time>2026-04-18T15:11:41Z</time></trkpt><trkpt lat="44.950577881659626" lon="7.394546621676965"><ele>297.0</ele><time>2026-04-18T15:11:42Z</time></trkpt><trkpt lat="44.95047193772916" lon="7.394336118098987"><ele>297.6666666666667</ele><time>2026-04-18T15:11:43Z</time></trkpt><trkpt lat="44.95037372420661" lon="7.394140264994652"><ele>298.33333333333337</ele><time>2026-04-18T15:11:44Z</time></trkpt><trkpt lat="44.950286682540856" lon="7.393940174248077"><ele>299.0</ele><time>2026-04-18T15:11:45Z</time></trkpt><trkpt lat="44.950205236172714" lon="7.393770600796704"><ele>299.0</ele><time>2026-04-18T15:11:46Z</time></trkpt><trkpt lat="44.95013487729834" lon="7.3936159310103955"><ele>299.0</ele><time>2026-04-18T15:11:47Z</time></trkpt><trkpt lat="44.95007445242981" lon="7.393489477534302"><ele>299.0</ele><time>2026-04-18T15:11:48Z</time></trkpt><trkpt lat="44.95002744131343" lon="7.393370517524165"><ele>299.0</ele><time>2026-04-18T15:11:49Z</time></trkpt><trkpt lat="44.94998865552649" lon="7.39324269767333"><ele>299.0</ele><time>2026-04-18T15:11:50Z</time></trkpt><trkpt lat="44.94997511450765" lon="7.393098565267182"><ele>299.0</ele><time>2026-04-18T15:11:51Z</time></trkpt><trkpt lat="44.94997429710451" lon="7.392945594976846"><ele>299.0</ele><time>2026-04-18T15:11:52Z</time></trkpt><trkpt lat="44.94993884757393" lon="7.392796992930725"><ele>299.0</ele><time>2026-04-18T15:11:53Z</time></trkpt><trkpt lat="44.94984346737649" lon="7.3926915796922295"><ele>299.0</ele><time>2026-04-18T15:11:54Z</time></trkpt><trkpt lat="44.94971102077043" lon="7.39262284561702"><ele>299.0</ele><time>2026-04-18T15:11:55Z</time></trkpt><trkpt lat="44.949588182730395" lon="7.392524470304657"><ele>299.0</ele><time>2026-04-18T15:11:55.999Z</time></trkpt><trkpt lat="44.94950446652317" lon="7.392349227639268"><ele>299.0</ele><time>2026-04-18T15:11:56.999Z</time></trkpt><trkpt lat="44.9494260386733" lon="7.392156823467544"><ele>299.0</ele><time>2026-04-18T15:11:57.999Z</time></trkpt><trkpt lat="44.94930996490763" lon="7.391928731025421"><ele>299.0</ele><time>2026-04-18T15:11:58.999Z</time></trkpt><trkpt lat="44.94917056924833" lon="7.3916568361273995"><ele>299.0</ele><time>2026-04-18T15:11:59.999Z</time></trkpt><trkpt lat="44.94902942439907" lon="7.39137103752512"><ele>299.0</ele><time>2026-04-18T15:12:00.999Z</time></trkpt><trkpt lat="44.94887881113131" lon="7.391066646663461"><ele>299.0</ele><time>2026-04-18T15:12:01.999Z</time></trkpt><trkpt lat="44.948716345258084" lon="7.39074224536417"><ele>300.0</ele><time>2026-04-18T15:12:02.999Z</time></trkpt><trkpt lat="44.94855508552486" lon="7.39040385169181"><ele>301.0</ele><time>2026-04-18T15:12:03.999Z</time></trkpt><trkpt lat="44.948416534325844" lon="7.39008917163054"><ele>301.0</ele><time>2026-04-18T15:12:04.999Z</time></trkpt><trkpt lat="44.94827928409629" lon="7.389804152246443"><ele>301.0</ele><time>2026-04-18T15:12:05.999Z</time></trkpt><trkpt lat="44.948144723903596" lon="7.389524203003784"><ele>302.3333333333333</ele><time>2026-04-18T15:12:06.999Z</time></trkpt><trkpt lat="44.94802540027272" lon="7.389285896155484"><ele>303.6666666666667</ele><time>2026-04-18T15:12:07.999Z</time></trkpt><trkpt lat="44.94791967977688" lon="7.3890827768735585"><ele>305.0</ele><time>2026-04-18T15:12:08.999Z</time></trkpt><trkpt lat="44.9478277699497" lon="7.388886246591369"><ele>304.5</ele><time>2026-04-18T15:12:09.999Z</time></trkpt><trkpt lat="44.94773314115303" lon="7.388695228769899"><ele>304.0</ele><time>2026-04-18T15:12:10.999Z</time></trkpt><trkpt lat="44.94765030605186" lon="7.388525091013653"><ele>303.5</ele><time>2026-04-18T15:12:11.999Z</time></trkpt><trkpt lat="44.94758664953986" lon="7.388364553729945"><ele>303.0</ele><time>2026-04-18T15:12:12.999Z</time></trkpt><trkpt lat="44.94752899244917" lon="7.3882204865922425"><ele>302.75</ele><time>2026-04-18T15:12:13.999Z</time></trkpt><trkpt lat="44.947475162980155" lon="7.388080568483068"><ele>302.5</ele><time>2026-04-18T15:12:14.999Z</time></trkpt><trkpt lat="44.94745360259202" lon="7.387918029053784"><ele>302.25</ele><time>2026-04-18T15:12:15.999Z</time></trkpt><trkpt lat="44.94741703557022" lon="7.38776028769769"><ele>302.0</ele><time>2026-04-18T15:12:16.999Z</time></trkpt><trkpt lat="44.947308962400434" lon="7.387638229195352"><ele>302.6666666666667</ele><time>2026-04-18T15:12:17.999Z</time></trkpt><trkpt lat="44.94717087399093" lon="7.387509631770216"><ele>303.3333333333333</ele><time>2026-04-18T15:12:18.999Z</time></trkpt><trkpt lat="44.947068354398816" lon="7.387323750749723"><ele>304.0</ele><time>2026-04-18T15:12:19.999Z</time></trkpt><trkpt lat="44.946972142961165" lon="7.387111232982149"><ele>304.0</ele><time>2026-04-18T15:12:20.999Z</time></trkpt><trkpt lat="44.946831492326005" lon="7.386860607798715"><ele>304.0</ele><time>2026-04-18T15:12:21.999Z</time></trkpt><trkpt lat="44.946679288177315" lon="7.386569525270051"><ele>304.5</ele><time>2026-04-18T15:12:22.999Z</time></trkpt><trkpt lat="44.94652312309764" lon="7.3862416152591415"><ele>305.0</ele><time>2026-04-18T15:12:23.999Z</time></trkpt><trkpt lat="44.946381930144256" lon="7.385908096689818"><ele>305.0</ele><time>2026-04-18T15:12:24.999Z</time></trkpt><trkpt lat="44.94625836804403" lon="7.385650690229771"><ele>305.0</ele><time>2026-04-18T15:12:25.999Z</time></trkpt><trkpt lat="44.94613028686657" lon="7.385436310354822"><ele>305.0</ele><time>2026-04-18T15:12:26.999Z</time></trkpt><trkpt lat="44.946015212108" lon="7.3851543602173"><ele>306.0</ele><time>2026-04-18T15:12:27.999Z</time></trkpt><trkpt lat="44.94589073076253" lon="7.384887424793872"><ele>307.0</ele><time>2026-04-18T15:12:28.999Z</time></trkpt><trkpt lat="44.94575554009207" lon="7.384617132821366"><ele>307.0</ele><time>2026-04-18T15:12:29.999Z</time></trkpt><trkpt lat="44.94561223159455" lon="7.384322777899266"><ele>307.0</ele><time>2026-04-18T15:12:30.999Z</time></trkpt><trkpt lat="44.945465559262004" lon="7.384016396079682"><ele>308.5</ele><time>2026-04-18T15:12:31.999Z</time></trkpt><trkpt lat="44.945310854328675" lon="7.3837010194305"><ele>310.0</ele><time>2026-04-18T15:12:32.999Z</time></trkpt><trkpt lat="44.94514905446655" lon="7.383374180638099"><ele>309.5</ele><time>2026-04-18T15:12:33.999Z</time></trkpt><trkpt lat="44.944979873833155" lon="7.38302801238163"><ele>309.0</ele><time>2026-04-18T15:12:34.999Z</time></trkpt><trkpt lat="44.94480976688499" lon="7.382680899284866"><ele>310.0</ele><time>2026-04-18T15:12:35.999Z</time></trkpt><trkpt lat="44.94463037579248" lon="7.382321700662471"><ele>311.0</ele><time>2026-04-18T15:12:36.999Z</time></trkpt><trkpt lat="44.9444538981575" lon="7.381952241912622"><ele>311.5</ele><time>2026-04-18T15:12:37.999Z</time></trkpt><trkpt lat="44.944273656474465" lon="7.381575799874257"><ele>312.0</ele><time>2026-04-18T15:12:38.999Z</time></trkpt><trkpt lat="44.94408996715487" lon="7.38119112726163"><ele>312.0</ele><time>2026-04-18T15:12:39.999Z</time></trkpt><trkpt lat="44.943902828012185" lon="7.3807920639146944"><ele>312.0</ele><time>2026-04-18T15:12:40.999Z</time></trkpt><trkpt lat="44.9437093703374" lon="7.380375714096594"><ele>311.5</ele><time>2026-04-18T15:12:41.999Z</time></trkpt><trkpt lat="44.94351603661759" lon="7.379982248309467"><ele>311.0</ele><time>2026-04-18T15:12:42.999Z</time></trkpt><trkpt lat="44.94334007095841" lon="7.379629543277786"><ele>311.0</ele><time>2026-04-18T15:12:44Z</time></trkpt><trkpt lat="44.94316298954849" lon="7.379267965496898"><ele>311.0</ele><time>2026-04-18T15:12:45Z</time></trkpt><trkpt lat="44.942993831355004" lon="7.378915592951154"><ele>312.0</ele><time>2026-04-18T15:12:46Z</time></trkpt><trkpt lat="44.94284324279201" lon="7.378600538874787"><ele>313.0</ele><time>2026-04-18T15:12:47Z</time></trkpt><trkpt lat="44.94269922801267" lon="7.378293473654909"><ele>314.0</ele><time>2026-04-18T15:12:48Z</time></trkpt><trkpt lat="44.9425527347548" lon="7.377997244625017"><ele>315.0</ele><time>2026-04-18T15:12:49Z</time></trkpt><trkpt lat="44.94241910809447" lon="7.377722201243997"><ele>314.0</ele><time>2026-04-18T15:12:50Z</time></trkpt><trkpt lat="44.94228366457791" lon="7.377433595501554"><ele>313.0</ele><time>2026-04-18T15:12:51Z</time></trkpt><trkpt lat="44.942168732995206" lon="7.377085970106668"><ele>313.0</ele><time>2026-04-18T15:12:52Z</time></trkpt><trkpt lat="44.94205354173595" lon="7.376798348436093"><ele>313.0</ele><time>2026-04-18T15:12:53Z</time></trkpt><trkpt lat="44.941903497516485" lon="7.3766185893715965"><ele>313.0</ele><time>2026-04-18T15:12:54Z</time></trkpt><trkpt lat="44.941780039963504" lon="7.376408530802382"><ele>312.3333333333333</ele><time>2026-04-18T15:12:55Z</time></trkpt><trkpt lat="44.94165881413001" lon="7.376152626980791"><ele>311.6666666666667</ele><time>2026-04-18T15:12:56Z</time></trkpt><trkpt lat="44.941537585555295" lon="7.37588646839536"><ele>311.0</ele><time>2026-04-18T15:12:57Z</time></trkpt><trkpt lat="44.94140282863671" lon="7.375630368327734"><ele>311.6666666666667</ele><time>2026-04-18T15:12:58Z</time></trkpt><trkpt lat="44.94126741167547" lon="7.3753945060978605"><ele>312.3333333333333</ele><time>2026-04-18T15:12:59Z</time></trkpt><trkpt lat="44.941117504755354" lon="7.375174207389762"><ele>313.0</ele><time>2026-04-18T15:13:00Z</time></trkpt><trkpt lat="44.940961132631664" lon="7.3749672808746904"><ele>313.0</ele><time>2026-04-18T15:13:01Z</time></trkpt><trkpt lat="44.9408063545025" lon="7.374772628091735"><ele>313.0</ele><time>2026-04-18T15:13:02Z</time></trkpt><trkpt lat="44.940653782634385" lon="7.3745801246767355"><ele>313.0</ele><time>2026-04-18T15:13:03Z</time></trkpt><trkpt lat="44.94051852727038" lon="7.374414597803606"><ele>314.0</ele><time>2026-04-18T15:13:04Z</time></trkpt><trkpt lat="44.94039004207778" lon="7.374262678990318"><ele>315.0</ele><time>2026-04-18T15:13:05Z</time></trkpt><trkpt lat="44.94027282940104" lon="7.374131357157576"><ele>316.0</ele><time>2026-04-18T15:13:06Z</time></trkpt><trkpt lat="44.940163022038426" lon="7.374020841663272"><ele>316.0</ele><time>2026-04-18T15:13:07Z</time></trkpt><trkpt lat="44.940063559516716" lon="7.373925415185196"><ele>316.0</ele><time>2026-04-18T15:13:08Z</time></trkpt><trkpt lat="44.93996977886632" lon="7.373842295382902"><ele>316.0</ele><time>2026-04-18T15:13:09Z</time></trkpt><trkpt lat="44.939890100757" lon="7.373773300534392"><ele>316.0</ele><time>2026-04-18T15:13:10Z</time></trkpt><trkpt lat="44.93981671388541" lon="7.373712690617258"><ele>316.0</ele><time>2026-04-18T15:13:11Z</time></trkpt><trkpt lat="44.93973448663191" lon="7.373653413962723"><ele>316.2</ele><time>2026-04-18T15:13:12Z</time></trkpt><trkpt lat="44.93963859002887" lon="7.373575510026491"><ele>316.40000000000003</ele><time>2026-04-18T15:13:13Z</time></trkpt><trkpt lat="44.939546697879535" lon="7.373510330106149"><ele>316.6</ele><time>2026-04-18T15:13:14Z</time></trkpt><trkpt lat="44.939454869799185" lon="7.373443738339389"><ele>316.8</ele><time>2026-04-18T15:13:15Z</time></trkpt><trkpt lat="44.93933831966049" lon="7.373363855548592"><ele>317.0</ele><time>2026-04-18T15:13:16Z</time></trkpt><trkpt lat="44.9392080215128" lon="7.373273400952081"><ele>316.6666666666667</ele><time>2026-04-18T15:13:17Z</time></trkpt><trkpt lat="44.93907209073075" lon="7.373169182582882"><ele>316.3333333333333</ele><time>2026-04-18T15:13:18Z</time></trkpt><trkpt lat="44.93893903437282" lon="7.373071737985852"><ele>316.0</ele><time>2026-04-18T15:13:19Z</time></trkpt><trkpt lat="44.938802979483945" lon="7.372996630716162"><ele>316.0</ele><time>2026-04-18T15:13:20Z</time></trkpt><trkpt lat="44.93867982808049" lon="7.372938779294473"><ele>316.0</ele><time>2026-04-18T15:13:21Z</time></trkpt><trkpt lat="44.93855551050061" lon="7.372893144172619"><ele>316.0</ele><time>2026-04-18T15:13:22Z</time></trkpt><trkpt lat="44.93841921254731" lon="7.37283929213523"><ele>316.0</ele><time>2026-04-18T15:13:23Z</time></trkpt><trkpt lat="44.93828043140228" lon="7.372783510539815"><ele>316.0</ele><time>2026-04-18T15:13:24Z</time></trkpt><trkpt lat="44.93815017061102" lon="7.372730854808107"><ele>316.0</ele><time>2026-04-18T15:13:25Z</time></trkpt><trkpt lat="44.93801060503694" lon="7.372674625390581"><ele>316.0</ele><time>2026-04-18T15:13:26Z</time></trkpt><trkpt lat="44.93782364381755" lon="7.372601087326557"><ele>316.0</ele><time>2026-04-18T15:13:27Z</time></trkpt><trkpt lat="44.93759582620561" lon="7.372510765735489"><ele>316.0</ele><time>2026-04-18T15:13:28Z</time></trkpt><trkpt lat="44.93734264965405" lon="7.372415888762048"><ele>315.0</ele><time>2026-04-18T15:13:29Z</time></trkpt><trkpt lat="44.937068765828265" lon="7.3723264194694655"><ele>314.0</ele><time>2026-04-18T15:13:30Z</time></trkpt><trkpt lat="44.93678511676859" lon="7.372216995965929"><ele>316.0</ele><time>2026-04-18T15:13:31Z</time></trkpt><trkpt lat="44.93649956039752" lon="7.372079042383852"><ele>318.0</ele><time>2026-04-18T15:13:32Z</time></trkpt><trkpt lat="44.93620610728992" lon="7.371951892009059"><ele>318.0</ele><time>2026-04-18T15:13:33Z</time></trkpt><trkpt lat="44.93591888592509" lon="7.371850888251119"><ele>318.0</ele><time>2026-04-18T15:13:34Z</time></trkpt><trkpt lat="44.935624475105755" lon="7.371747522266958"><ele>318.5</ele><time>2026-04-18T15:13:35Z</time></trkpt><trkpt lat="44.93533078207217" lon="7.371624803931076"><ele>319.0</ele><time>2026-04-18T15:13:36Z</time></trkpt><trkpt lat="44.93503094123043" lon="7.371496508770377"><ele>319.5</ele><time>2026-04-18T15:13:37Z</time></trkpt><trkpt lat="44.934725158908684" lon="7.3713696570347"><ele>320.0</ele><time>2026-04-18T15:13:38Z</time></trkpt><trkpt lat="44.93440999526975" lon="7.371251432669803"><ele>320.5</ele><time>2026-04-18T15:13:39Z</time></trkpt><trkpt lat="44.93409035287499" lon="7.371133311244183"><ele>321.0</ele><time>2026-04-18T15:13:40Z</time></trkpt><trkpt lat="44.93376932558791" lon="7.371010988322418"><ele>321.0</ele><time>2026-04-18T15:13:41Z</time></trkpt><trkpt lat="44.93343829925594" lon="7.3708862416638175"><ele>321.0</ele><time>2026-04-18T15:13:42Z</time></trkpt><trkpt lat="44.93309960478612" lon="7.370755434063128"><ele>322.0</ele><time>2026-04-18T15:13:43Z</time></trkpt><trkpt lat="44.9327540313382" lon="7.370613568990182"><ele>323.0</ele><time>2026-04-18T15:13:43.999Z</time></trkpt><trkpt lat="44.9324226718396" lon="7.370488551244166"><ele>323.5</ele><time>2026-04-18T15:13:44.999Z</time></trkpt><trkpt lat="44.932131223939116" lon="7.370375893131358"><ele>324.0</ele><time>2026-04-18T15:13:45.999Z</time></trkpt><trkpt lat="44.931842988742915" lon="7.370251157467128"><ele>323.5</ele><time>2026-04-18T15:13:46.999Z</time></trkpt><trkpt lat="44.931539849863704" lon="7.370122468710349"><ele>323.0</ele><time>2026-04-18T15:13:47.999Z</time></trkpt><trkpt lat="44.93122699984587" lon="7.370003907058019"><ele>323.0</ele><time>2026-04-18T15:13:48.999Z</time></trkpt><trkpt lat="44.93091206751885" lon="7.369889635317171"><ele>323.0</ele><time>2026-04-18T15:13:49.999Z</time></trkpt><trkpt lat="44.93063561702071" lon="7.369786560473457"><ele>322.5</ele><time>2026-04-18T15:13:50.999Z</time></trkpt><trkpt lat="44.930391300876295" lon="7.369686900360954"><ele>322.0</ele><time>2026-04-18T15:13:51.999Z</time></trkpt><trkpt lat="44.930165488615074" lon="7.36959115479185"><ele>322.0</ele><time>2026-04-18T15:13:52.999Z</time></trkpt><trkpt lat="44.92994361995197" lon="7.369500070459341"><ele>322.0</ele><time>2026-04-18T15:13:53.999Z</time></trkpt><trkpt lat="44.92973849971268" lon="7.36941789246223"><ele>322.0</ele><time>2026-04-18T15:13:54.999Z</time></trkpt><trkpt lat="44.92955126137431" lon="7.369347235375296"><ele>322.0</ele><time>2026-04-18T15:13:55.999Z</time></trkpt><trkpt lat="44.929380607698675" lon="7.369282338587519"><ele>322.0</ele><time>2026-04-18T15:13:56.999Z</time></trkpt><trkpt lat="44.92920770032621" lon="7.369209133813295"><ele>322.0</ele><time>2026-04-18T15:13:57.999Z</time></trkpt><trkpt lat="44.929045496230636" lon="7.369143533246529"><ele>322.25</ele><time>2026-04-18T15:13:58.999Z</time></trkpt><trkpt lat="44.92890112221891" lon="7.36909216454339"><ele>322.5</ele><time>2026-04-18T15:13:59.999Z</time></trkpt><trkpt lat="44.92877618890856" lon="7.369041570321648"><ele>322.75</ele><time>2026-04-18T15:14:00.999Z</time></trkpt><trkpt lat="44.92867008179779" lon="7.368980349174172"><ele>323.0</ele><time>2026-04-18T15:14:01.999Z</time></trkpt><trkpt lat="44.92857287445615" lon="7.368911686976085"><ele>323.0</ele><time>2026-04-18T15:14:02.999Z</time></trkpt><trkpt lat="44.9284890568463" lon="7.36883833331387"><ele>323.0</ele><time>2026-04-18T15:14:03.999Z</time></trkpt><trkpt lat="44.928407636313416" lon="7.368747662783658"><ele>323.0</ele><time>2026-04-18T15:14:04.999Z</time></trkpt><trkpt lat="44.928311690787886" lon="7.368701989654097"><ele>323.0</ele><time>2026-04-18T15:14:05.999Z</time></trkpt><trkpt lat="44.928172032839086" lon="7.368727755981864"><ele>323.0</ele><time>2026-04-18T15:14:06.999Z</time></trkpt><trkpt lat="44.92802643407406" lon="7.368720981164161"><ele>324.0</ele><time>2026-04-18T15:14:07.999Z</time></trkpt><trkpt lat="44.927897099637" lon="7.368651480994643"><ele>325.0</ele><time>2026-04-18T15:14:08.999Z</time></trkpt><trkpt lat="44.92771584895539" lon="7.36857449008949"><ele>326.0</ele><time>2026-04-18T15:14:09.999Z</time></trkpt><trkpt lat="44.92755849658027" lon="7.368517435497347"><ele>326.0</ele><time>2026-04-18T15:14:10.999Z</time></trkpt><trkpt lat="44.92743332411288" lon="7.368464724581604"><ele>326.0</ele><time>2026-04-18T15:14:11.999Z</time></trkpt><trkpt lat="44.92727313157002" lon="7.368427147456028"><ele>326.0</ele><time>2026-04-18T15:14:12.999Z</time></trkpt><trkpt lat="44.92704784626432" lon="7.36835492434049"><ele>326.0</ele><time>2026-04-18T15:14:13.999Z</time></trkpt><trkpt lat="44.92680735684587" lon="7.3682437865722425"><ele>326.0</ele><time>2026-04-18T15:14:14.999Z</time></trkpt><trkpt lat="44.926589640468485" lon="7.368158130118709"><ele>325.6666666666667</ele><time>2026-04-18T15:14:15.999Z</time></trkpt><trkpt lat="44.92639697505698" lon="7.368077130833241"><ele>325.3333333333333</ele><time>2026-04-18T15:14:16.999Z</time></trkpt><trkpt lat="44.92623280102985" lon="7.368003018606088"><ele>325.0</ele><time>2026-04-18T15:14:17.999Z</time></trkpt><trkpt lat="44.9260914225813" lon="7.367936094561558"><ele>325.0</ele><time>2026-04-18T15:14:18.999Z</time></trkpt><trkpt lat="44.925976762241476" lon="7.367859838212557"><ele>325.0</ele><time>2026-04-18T15:14:19.999Z</time></trkpt><trkpt lat="44.92588418767703" lon="7.3677480907343975"><ele>325.0</ele><time>2026-04-18T15:14:20.999Z</time></trkpt><trkpt lat="44.925816735332496" lon="7.367626107899688"><ele>325.0</ele><time>2026-04-18T15:14:21.999Z</time></trkpt><trkpt lat="44.92576544094437" lon="7.367499998310915"><ele>325.0</ele><time>2026-04-18T15:14:22.999Z</time></trkpt><trkpt lat="44.925714234266344" lon="7.36741176732189"><ele>325.0</ele><time>2026-04-18T15:14:23.999Z</time></trkpt><trkpt lat="44.925630362875154" lon="7.367365607337047"><ele>325.0</ele><time>2026-04-18T15:14:24.999Z</time></trkpt><trkpt lat="44.925529316344445" lon="7.367379107987777"><ele>325.0</ele><time>2026-04-18T15:14:25.999Z</time></trkpt><trkpt lat="44.925425811732204" lon="7.367461479904567"><ele>325.0</ele><time>2026-04-18T15:14:26.999Z</time></trkpt><trkpt lat="44.92530383541676" lon="7.367546672758154"><ele>325.0</ele><time>2026-04-18T15:14:27.999Z</time></trkpt><trkpt lat="44.92517361682381" lon="7.367556094848165"><ele>325.0</ele><time>2026-04-18T15:14:28.999Z</time></trkpt><trkpt lat="44.92505456228998" lon="7.367529564996448"><ele>325.0</ele><time>2026-04-18T15:14:29.999Z</time></trkpt><trkpt lat="44.92496211906707" lon="7.3674828781320105"><ele>325.0</ele><time>2026-04-18T15:14:30.999Z</time></trkpt><trkpt lat="44.9248971910111" lon="7.367449857555714"><ele>325.0</ele><time>2026-04-18T15:14:31.999Z</time></trkpt><trkpt lat="44.924813320724425" lon="7.3674377442944285"><ele>325.3333333333333</ele><time>2026-04-18T15:14:32.999Z</time></trkpt><trkpt lat="44.92473398758184" lon="7.367425720680795"><ele>325.66666666666663</ele><time>2026-04-18T15:14:33.999Z</time></trkpt><trkpt lat="44.92466993981013" lon="7.367418470111444"><ele>326.0</ele><time>2026-04-18T15:14:34.999Z</time></trkpt><trkpt lat="44.92460636060357" lon="7.367400385192067"><ele>326.3333333333333</ele><time>2026-04-18T15:14:35.999Z</time></trkpt><trkpt lat="44.92448903192374" lon="7.367346386686024"><ele>326.6666666666667</ele><time>2026-04-18T15:14:37.999Z</time></trkpt><trkpt lat="44.92439623231789" lon="7.36730487788808"><ele>327.0</ele><time>2026-04-18T15:14:38.999Z</time></trkpt><trkpt lat="44.924286071940635" lon="7.367253386295866"><ele>326.3333333333333</ele><time>2026-04-18T15:14:39.999Z</time></trkpt><trkpt lat="44.92415387844476" lon="7.367191935249078"><ele>325.66666666666663</ele><time>2026-04-18T15:14:40.999Z</time></trkpt><trkpt lat="44.92398314517805" lon="7.367120955330574"><ele>325.0</ele><time>2026-04-18T15:14:41.999Z</time></trkpt><trkpt lat="44.923826368288935" lon="7.367058792471086"><ele>325.0</ele><time>2026-04-18T15:14:42.999Z</time></trkpt><trkpt lat="44.923676533801164" lon="7.367005699581548"><ele>325.0</ele><time>2026-04-18T15:14:43.999Z</time></trkpt><trkpt lat="44.92353018651467" lon="7.366952758583334"><ele>325.0</ele><time>2026-04-18T15:14:44.999Z</time></trkpt><trkpt lat="44.92332907344605" lon="7.366883486416492"><ele>326.0</ele><time>2026-04-18T15:14:45.999Z</time></trkpt><trkpt lat="44.92308770708444" lon="7.366781713142831"><ele>327.0</ele><time>2026-04-18T15:14:46.999Z</time></trkpt><trkpt lat="44.92283212323305" lon="7.36666584534398"><ele>327.0</ele><time>2026-04-18T15:14:47.999Z</time></trkpt><trkpt lat="44.92259384072182" lon="7.3665715975108546"><ele>327.0</ele><time>2026-04-18T15:14:49Z</time></trkpt><trkpt lat="44.922352857817685" lon="7.3664824540041"><ele>327.0</ele><time>2026-04-18T15:14:50Z</time></trkpt><trkpt lat="44.92208921806393" lon="7.366388307155362"><ele>327.0</ele><time>2026-04-18T15:14:51Z</time></trkpt><trkpt lat="44.92180342132103" lon="7.366270779367395"><ele>325.5</ele><time>2026-04-18T15:14:52Z</time></trkpt><trkpt lat="44.92151204978635" lon="7.366153860646753"><ele>324.0</ele><time>2026-04-18T15:14:53Z</time></trkpt><trkpt lat="44.92123951684439" lon="7.366041585468381"><ele>324.0</ele><time>2026-04-18T15:14:54Z</time></trkpt><trkpt lat="44.92097773965501" lon="7.365944492438231"><ele>324.0</ele><time>2026-04-18T15:14:55Z</time></trkpt><trkpt lat="44.920714440996946" lon="7.365833698729245"><ele>324.0</ele><time>2026-04-18T15:14:56Z</time></trkpt><trkpt lat="44.92044635257765" lon="7.365719317066633"><ele>324.0</ele><time>2026-04-18T15:14:57Z</time></trkpt><trkpt lat="44.92019162007429" lon="7.365624107443772"><ele>324.6666666666667</ele><time>2026-04-18T15:14:58Z</time></trkpt><trkpt lat="44.919970490834345" lon="7.365525761069733"><ele>325.33333333333337</ele><time>2026-04-18T15:14:59Z</time></trkpt><trkpt lat="44.91976963695767" lon="7.365441380517749"><ele>326.0</ele><time>2026-04-18T15:15:00Z</time></trkpt><trkpt lat="44.91958390836911" lon="7.365368763053332"><ele>326.0</ele><time>2026-04-18T15:15:01Z</time></trkpt><trkpt lat="44.91940220045092" lon="7.365304469647674"><ele>326.0</ele><time>2026-04-18T15:15:02Z</time></trkpt><trkpt lat="44.91923172058658" lon="7.36523663084297"><ele>326.0</ele><time>2026-04-18T15:15:03Z</time></trkpt><trkpt lat="44.919076266799294" lon="7.365170264617492"><ele>326.25</ele><time>2026-04-18T15:15:04Z</time></trkpt><trkpt lat="44.918934693607106" lon="7.36510660617843"><ele>326.5</ele><time>2026-04-18T15:15:05Z</time></trkpt><trkpt lat="44.91881177099633" lon="7.365053237272728"><ele>326.75</ele><time>2026-04-18T15:15:06Z</time></trkpt><trkpt lat="44.918720396855484" lon="7.365008636874879"><ele>327.0</ele><time>2026-04-18T15:15:07Z</time></trkpt><trkpt lat="44.91864379911559" lon="7.36491376049764"><ele>327.0</ele><time>2026-04-18T15:15:08Z</time></trkpt><trkpt lat="44.9185471770592" lon="7.364834678624363"><ele>327.0</ele><time>2026-04-18T15:15:09Z</time></trkpt><trkpt lat="44.91842754861713" lon="7.364792431158557"><ele>327.0</ele><time>2026-04-18T15:15:10Z</time></trkpt><trkpt lat="44.91828454716361" lon="7.364829573951572"><ele>327.0</ele><time>2026-04-18T15:15:11Z</time></trkpt><trkpt lat="44.91813050598108" lon="7.36482655318118"><ele>326.3333333333333</ele><time>2026-04-18T15:15:12Z</time></trkpt><trkpt lat="44.91795537909915" lon="7.3647281222669205"><ele>325.66666666666663</ele><time>2026-04-18T15:15:13Z</time></trkpt><trkpt lat="44.91776436996904" lon="7.364633743084432"><ele>325.0</ele><time>2026-04-18T15:15:14Z</time></trkpt><trkpt lat="44.917582127609656" lon="7.364569058776473"><ele>325.66666666666663</ele><time>2026-04-18T15:15:15Z</time></trkpt><trkpt lat="44.91741737874771" lon="7.364515060852357"><ele>326.3333333333333</ele><time>2026-04-18T15:15:16Z</time></trkpt><trkpt lat="44.917240141148945" lon="7.364448481892035"><ele>327.0</ele><time>2026-04-18T15:15:17Z</time></trkpt><trkpt lat="44.91706443545194" lon="7.364384100986521"><ele>327.0</ele><time>2026-04-18T15:15:18Z</time></trkpt><trkpt lat="44.91691108593202" lon="7.364325530193423"><ele>327.0</ele><time>2026-04-18T15:15:19Z</time></trkpt><trkpt lat="44.91675408759003" lon="7.364260689189867"><ele>327.0</ele><time>2026-04-18T15:15:20Z</time></trkpt><trkpt lat="44.91659792880124" lon="7.364196909917745"><ele>326.5</ele><time>2026-04-18T15:15:21Z</time></trkpt><trkpt lat="44.91645621357783" lon="7.364138192163773"><ele>326.0</ele><time>2026-04-18T15:15:22Z</time></trkpt><trkpt lat="44.91631767374262" lon="7.364084422912116"><ele>325.5</ele><time>2026-04-18T15:15:23Z</time></trkpt><trkpt lat="44.91617789533571" lon="7.364029096324424"><ele>325.0</ele><time>2026-04-18T15:15:24Z</time></trkpt><trkpt lat="44.916034654848744" lon="7.363970617214912"><ele>325.3333333333333</ele><time>2026-04-18T15:15:25Z</time></trkpt><trkpt lat="44.91586781074143" lon="7.363902865339402"><ele>325.6666666666667</ele><time>2026-04-18T15:15:26Z</time></trkpt><trkpt lat="44.91568250172116" lon="7.363833827332228"><ele>326.0</ele><time>2026-04-18T15:15:27Z</time></trkpt><trkpt lat="44.9154954823611" lon="7.363764033000117"><ele>326.0</ele><time>2026-04-18T15:15:28Z</time></trkpt><trkpt lat="44.9153090784975" lon="7.363686666841317"><ele>326.0</ele><time>2026-04-18T15:15:29Z</time></trkpt><trkpt lat="44.91513662448646" lon="7.36361661475923"><ele>326.0</ele><time>2026-04-18T15:15:30Z</time></trkpt><trkpt lat="44.91497940677199" lon="7.363559091884063"><ele>326.25</ele><time>2026-04-18T15:15:31Z</time></trkpt><trkpt lat="44.914829828590904" lon="7.36350597233469"><ele>326.5</ele><time>2026-04-18T15:15:32Z</time></trkpt><trkpt lat="44.91468969584387" lon="7.363450358629074"><ele>326.75</ele><time>2026-04-18T15:15:33Z</time></trkpt><trkpt lat="44.91455102906667" lon="7.363397265849976"><ele>327.0</ele><time>2026-04-18T15:15:34Z</time></trkpt><trkpt lat="44.9144210343809" lon="7.363348726944599"><ele>327.0</ele><time>2026-04-18T15:15:35Z</time></trkpt><trkpt lat="44.91430008613704" lon="7.363305363616136"><ele>327.0</ele><time>2026-04-18T15:15:36Z</time></trkpt><trkpt lat="44.9141639039881" lon="7.363253708423552"><ele>327.0</ele><time>2026-04-18T15:15:37Z</time></trkpt><trkpt lat="44.91403012654774" lon="7.363198619275388"><ele>327.0</ele><time>2026-04-18T15:15:38Z</time></trkpt><trkpt lat="44.913910240015355" lon="7.363148954843309"><ele>327.0</ele><time>2026-04-18T15:15:39Z</time></trkpt><trkpt lat="44.913804492779704" lon="7.3631103318614555"><ele>327.0</ele><time>2026-04-18T15:15:40Z</time></trkpt><trkpt lat="44.91368483539052" lon="7.363066463812301"><ele>327.0</ele><time>2026-04-18T15:15:41Z</time></trkpt><trkpt lat="44.91355183961714" lon="7.363017022959692"><ele>327.0</ele><time>2026-04-18T15:15:42Z</time></trkpt><trkpt lat="44.91341412669073" lon="7.362960266632883"><ele>326.25</ele><time>2026-04-18T15:15:43Z</time></trkpt><trkpt lat="44.913272180051365" lon="7.362902660157117"><ele>325.5</ele><time>2026-04-18T15:15:44Z</time></trkpt><trkpt lat="44.913147759744675" lon="7.36285345081034"><ele>324.75</ele><time>2026-04-18T15:15:45Z</time></trkpt><trkpt lat="44.91302279058951" lon="7.362802185843229"><ele>324.0</ele><time>2026-04-18T15:15:46Z</time></trkpt><trkpt lat="44.91289801247401" lon="7.362750752589856"><ele>324.0</ele><time>2026-04-18T15:15:46.999Z</time></trkpt><trkpt lat="44.91277428408796" lon="7.362703095948903"><ele>324.0</ele><time>2026-04-18T15:15:47.999Z</time></trkpt><trkpt lat="44.91266969052089" lon="7.3626625728739885"><ele>324.0</ele><time>2026-04-18T15:15:48.999Z</time></trkpt><trkpt lat="44.91257173566421" lon="7.362626808674584"><ele>324.0</ele><time>2026-04-18T15:15:49.999Z</time></trkpt><trkpt lat="44.91246620273379" lon="7.362589681000044"><ele>324.0</ele><time>2026-04-18T15:15:50.999Z</time></trkpt><trkpt lat="44.91236558831657" lon="7.362556616218165"><ele>324.5</ele><time>2026-04-18T15:15:51.999Z</time></trkpt><trkpt lat="44.91227631494197" lon="7.362531155300525"><ele>325.0</ele><time>2026-04-18T15:15:52.999Z</time></trkpt><trkpt lat="44.912196787497784" lon="7.362504362868481"><ele>325.5</ele><time>2026-04-18T15:15:53.999Z</time></trkpt><trkpt lat="44.912116179795625" lon="7.362472762095356"><ele>326.0</ele><time>2026-04-18T15:15:54.999Z</time></trkpt><trkpt lat="44.91201807715527" lon="7.362425800848986"><ele>326.5</ele><time>2026-04-18T15:15:56.999Z</time></trkpt><trkpt lat="44.91195140261687" lon="7.362384158503508"><ele>327.0</ele><time>2026-04-18T15:15:58.999Z</time></trkpt><trkpt lat="44.91190249651177" lon="7.362327133140197"><ele>327.0</ele><time>2026-04-18T15:16:01.999Z</time></trkpt><trkpt lat="44.91182001422047" lon="7.3622042067139954"><ele>327.0</ele><time>2026-04-18T15:16:04.999Z</time></trkpt><trkpt lat="44.91176959158096" lon="7.362129243762607"><ele>327.0</ele><time>2026-04-18T15:16:05.999Z</time></trkpt><trkpt lat="44.9117160232915" lon="7.362074747743575"><ele>327.0</ele><time>2026-04-18T15:16:06.999Z</time></trkpt><trkpt lat="44.91164644922876" lon="7.362047300444977"><ele>327.0</ele><time>2026-04-18T15:16:07.999Z</time></trkpt><trkpt lat="44.9115557308168" lon="7.36205573803072"><ele>327.0</ele><time>2026-04-18T15:16:08.999Z</time></trkpt><trkpt lat="44.91145504022826" lon="7.362092777776074"><ele>327.25</ele><time>2026-04-18T15:16:09.999Z</time></trkpt><trkpt lat="44.911347065911954" lon="7.362118950695246"><ele>327.5</ele><time>2026-04-18T15:16:10.999Z</time></trkpt><trkpt lat="44.91123103791136" lon="7.362109208105234"><ele>327.75</ele><time>2026-04-18T15:16:11.999Z</time></trkpt><trkpt lat="44.91110088191479" lon="7.3620594913515225"><ele>328.0</ele><time>2026-04-18T15:16:12.999Z</time></trkpt><trkpt lat="44.91095130746842" lon="7.361992937248873"><ele>328.66666666666663</ele><time>2026-04-18T15:16:13.999Z</time></trkpt><trkpt lat="44.910797994151594" lon="7.361927164416709"><ele>329.3333333333333</ele><time>2026-04-18T15:16:14.999Z</time></trkpt><trkpt lat="44.910624936332184" lon="7.361860565066749"><ele>330.0</ele><time>2026-04-18T15:16:15.999Z</time></trkpt><trkpt lat="44.91044983709115" lon="7.361794314215651"><ele>330.0</ele><time>2026-04-18T15:16:16.999Z</time></trkpt><trkpt lat="44.91028749232382" lon="7.361726609235432"><ele>330.0</ele><time>2026-04-18T15:16:17.999Z</time></trkpt><trkpt lat="44.91011437603288" lon="7.361658095896796"><ele>330.0</ele><time>2026-04-18T15:16:18.999Z</time></trkpt><trkpt lat="44.90993139677276" lon="7.361587142379703"><ele>329.6666666666667</ele><time>2026-04-18T15:16:19.999Z</time></trkpt><trkpt lat="44.90975419922406" lon="7.361524135250724"><ele>329.33333333333337</ele><time>2026-04-18T15:16:20.999Z</time></trkpt><trkpt lat="44.90960097535476" lon="7.361468139232929"><ele>329.0</ele><time>2026-04-18T15:16:21.999Z</time></trkpt><trkpt lat="44.90946409404383" lon="7.361412059576902"><ele>329.0</ele><time>2026-04-18T15:16:22.999Z</time></trkpt><trkpt lat="44.90931036786792" lon="7.361352377147653"><ele>329.0</ele><time>2026-04-18T15:16:23.999Z</time></trkpt><trkpt lat="44.90913617535757" lon="7.361281588864274"><ele>329.0</ele><time>2026-04-18T15:16:24.999Z</time></trkpt><trkpt lat="44.90897468123821" lon="7.361218617109064"><ele>329.33333333333337</ele><time>2026-04-18T15:16:25.999Z</time></trkpt><trkpt lat="44.908833103707245" lon="7.361162671647483"><ele>329.6666666666667</ele><time>2026-04-18T15:16:26.999Z</time></trkpt><trkpt lat="44.90868985611875" lon="7.361100772437495"><ele>330.0</ele><time>2026-04-18T15:16:27.999Z</time></trkpt><trkpt lat="44.908542940870184" lon="7.3610384355067575"><ele>330.0</ele><time>2026-04-18T15:16:28.999Z</time></trkpt><trkpt lat="44.908410595661906" lon="7.360982852361658"><ele>330.0</ele><time>2026-04-18T15:16:29.999Z</time></trkpt><trkpt lat="44.90828190601485" lon="7.360931128626858"><ele>330.0</ele><time>2026-04-18T15:16:30.999Z</time></trkpt><trkpt lat="44.908146023353744" lon="7.360876456620311"><ele>330.0</ele><time>2026-04-18T15:16:31.999Z</time></trkpt><trkpt lat="44.90802036735584" lon="7.360821111994485"><ele>330.25</ele><time>2026-04-18T15:16:32.999Z</time></trkpt><trkpt lat="44.90790798912505" lon="7.360778387988739"><ele>330.5</ele><time>2026-04-18T15:16:33.999Z</time></trkpt><trkpt lat="44.90779388227553" lon="7.36073492481443"><ele>330.75</ele><time>2026-04-18T15:16:34.999Z</time></trkpt><trkpt lat="44.90766823310186" lon="7.360695252194373"><ele>331.0</ele><time>2026-04-18T15:16:35.999Z</time></trkpt><trkpt lat="44.90752393868565" lon="7.3606487536795155"><ele>331.0</ele><time>2026-04-18T15:16:36.999Z</time></trkpt><trkpt lat="44.9073616959598" lon="7.360597418520134"><ele>331.0</ele><time>2026-04-18T15:16:37.999Z</time></trkpt><trkpt lat="44.90722389754467" lon="7.360541791762637"><ele>331.0</ele><time>2026-04-18T15:16:38.999Z</time></trkpt><trkpt lat="44.907109383207676" lon="7.360490084920641"><ele>331.0</ele><time>2026-04-18T15:16:39.999Z</time></trkpt><trkpt lat="44.9070084376888" lon="7.360431644018636"><ele>331.20000000000005</ele><time>2026-04-18T15:16:40.999Z</time></trkpt><trkpt lat="44.906911145508346" lon="7.360364496203234"><ele>331.40000000000003</ele><time>2026-04-18T15:16:41.999Z</time></trkpt><trkpt lat="44.90682602613773" lon="7.360284552415313"><ele>331.6</ele><time>2026-04-18T15:16:42.999Z</time></trkpt><trkpt lat="44.90675374446365" lon="7.360187108824698"><ele>331.8</ele><time>2026-04-18T15:16:43.999Z</time></trkpt><trkpt lat="44.90669081629281" lon="7.360099107444308"><ele>332.0</ele><time>2026-04-18T15:16:44.999Z</time></trkpt><trkpt lat="44.906607425642186" lon="7.360085121729006"><ele>332.0</ele><time>2026-04-18T15:16:45.999Z</time></trkpt><trkpt lat="44.90650482400671" lon="7.360145596166259"><ele>332.0</ele><time>2026-04-18T15:16:46.999Z</time></trkpt><trkpt lat="44.90640441421383" lon="7.360188294858723"><ele>332.0</ele><time>2026-04-18T15:16:47.999Z</time></trkpt><trkpt lat="44.90629390159466" lon="7.36016880725534"><ele>332.0</ele><time>2026-04-18T15:16:48.999Z</time></trkpt><trkpt lat="44.90617163028664" lon="7.36011715849328"><ele>332.0</ele><time>2026-04-18T15:16:49.999Z</time></trkpt><trkpt lat="44.90604258160076" lon="7.360062743969044"><ele>332.0</ele><time>2026-04-18T15:16:50.999Z</time></trkpt><trkpt lat="44.90590817186747" lon="7.360009574777184"><ele>332.0</ele><time>2026-04-18T15:16:51.999Z</time></trkpt><trkpt lat="44.90578018441601" lon="7.359957146575874"><ele>332.0</ele><time>2026-04-18T15:16:52.999Z</time></trkpt><trkpt lat="44.905652934529726" lon="7.359912166833831"><ele>332.40000000000003</ele><time>2026-04-18T15:16:53.999Z</time></trkpt><trkpt lat="44.905545469976985" lon="7.359870201775582"><ele>332.8</ele><time>2026-04-18T15:16:55Z</time></trkpt><trkpt lat="44.9054510794606" lon="7.359832544975926"><ele>333.2</ele><time>2026-04-18T15:16:56Z</time></trkpt><trkpt lat="44.90536673077466" lon="7.359796662924752"><ele>333.6</ele><time>2026-04-18T15:16:57Z</time></trkpt><trkpt lat="44.90527549301134" lon="7.359760478421817"><ele>334.0</ele><time>2026-04-18T15:16:58Z</time></trkpt><trkpt lat="44.9051790955794" lon="7.359725906390791"><ele>334.0</ele><time>2026-04-18T15:16:59Z</time></trkpt><trkpt lat="44.90509034647267" lon="7.359693759886779"><ele>334.0</ele><time>2026-04-18T15:17:00Z</time></trkpt><trkpt lat="44.905001095306936" lon="7.359655564122911"><ele>334.0</ele><time>2026-04-18T15:17:01Z</time></trkpt><trkpt lat="44.904902240481825" lon="7.359615277023829"><ele>334.0</ele><time>2026-04-18T15:17:02Z</time></trkpt><trkpt lat="44.90479654980705" lon="7.35957362678879"><ele>334.0</ele><time>2026-04-18T15:17:03Z</time></trkpt><trkpt lat="44.90469433382447" lon="7.359531837187122"><ele>334.6</ele><time>2026-04-18T15:17:04Z</time></trkpt><trkpt lat="44.90459258370225" lon="7.359491675216764"><ele>335.2</ele><time>2026-04-18T15:17:05Z</time></trkpt><trkpt lat="44.90450236769266" lon="7.35945953470412"><ele>335.8</ele><time>2026-04-18T15:17:06Z</time></trkpt><trkpt lat="44.90441734074388" lon="7.359424538279649"><ele>336.40000000000003</ele><time>2026-04-18T15:17:07Z</time></trkpt><trkpt lat="44.90432439510385" lon="7.359387601368387"><ele>337.0</ele><time>2026-04-18T15:17:08Z</time></trkpt><trkpt lat="44.90423894936866" lon="7.35935275269743"><ele>337.0</ele><time>2026-04-18T15:17:09Z</time></trkpt><trkpt lat="44.90415950509049" lon="7.359323051333276"><ele>337.0</ele><time>2026-04-18T15:17:10Z</time></trkpt><trkpt lat="44.904067853951965" lon="7.359283756473337"><ele>337.0</ele><time>2026-04-18T15:17:11Z</time></trkpt><trkpt lat="44.90396657407425" lon="7.359247749718069"><ele>337.0</ele><time>2026-04-18T15:17:12Z</time></trkpt><trkpt lat="44.903865273164136" lon="7.359210456019826"><ele>337.0</ele><time>2026-04-18T15:17:13Z</time></trkpt><trkpt lat="44.90376102780997" lon="7.359171814060589"><ele>337.0</ele><time>2026-04-18T15:17:14Z</time></trkpt><trkpt lat="44.903660269871445" lon="7.359132934293013"><ele>337.0</ele><time>2026-04-18T15:17:15Z</time></trkpt><trkpt lat="44.90355588158393" lon="7.359093302367461"><ele>337.0</ele><time>2026-04-18T15:17:16Z</time></trkpt><trkpt lat="44.90345037908308" lon="7.359049709911447"><ele>337.0</ele><time>2026-04-18T15:17:17Z</time></trkpt><trkpt lat="44.903338708619515" lon="7.359005181887412"><ele>337.0</ele><time>2026-04-18T15:17:18Z</time></trkpt><trkpt lat="44.90322426842796" lon="7.358958097105945"><ele>336.8</ele><time>2026-04-18T15:17:19Z</time></trkpt><trkpt lat="44.90310861997918" lon="7.358915036139713"><ele>336.6</ele><time>2026-04-18T15:17:20Z</time></trkpt><trkpt lat="44.903004618745726" lon="7.358873066625448"><ele>336.40000000000003</ele><time>2026-04-18T15:17:21Z</time></trkpt><trkpt lat="44.90291568616973" lon="7.358840513071802"><ele>336.20000000000005</ele><time>2026-04-18T15:17:22Z</time></trkpt><trkpt lat="44.9028300645499" lon="7.35881062297535"><ele>336.0</ele><time>2026-04-18T15:17:23Z</time></trkpt><trkpt lat="44.902738215666" lon="7.358778470392123"><ele>336.0</ele><time>2026-04-18T15:17:24Z</time></trkpt><trkpt lat="44.90265232835819" lon="7.358763184397538"><ele>336.0</ele><time>2026-04-18T15:17:25Z</time></trkpt><trkpt lat="44.90258370066874" lon="7.358766787294613"><ele>336.0</ele><time>2026-04-18T15:17:26Z</time></trkpt><trkpt lat="44.90251056579444" lon="7.358784978100326"><ele>336.0</ele><time>2026-04-18T15:17:27Z</time></trkpt><trkpt lat="44.902437726612135" lon="7.358820012778669"><ele>336.0</ele><time>2026-04-18T15:17:28Z</time></trkpt><trkpt lat="44.90237799146903" lon="7.3588507906757314"><ele>336.0</ele><time>2026-04-18T15:17:29Z</time></trkpt><trkpt lat="44.90231207597036" lon="7.358874298353507"><ele>336.0</ele><time>2026-04-18T15:17:30Z</time></trkpt><trkpt lat="44.902239801261985" lon="7.358881136888033"><ele>336.0</ele><time>2026-04-18T15:17:31Z</time></trkpt><trkpt lat="44.902157179915875" lon="7.358856218783639"><ele>336.0</ele><time>2026-04-18T15:17:32Z</time></trkpt><trkpt lat="44.902062025423" lon="7.358788568908042"><ele>336.0</ele><time>2026-04-18T15:17:33Z</time></trkpt><trkpt lat="44.901967152244666" lon="7.358694980999212"><ele>336.0</ele><time>2026-04-18T15:17:34Z</time></trkpt><trkpt lat="44.901853148980706" lon="7.358625860746913"><ele>336.0</ele><time>2026-04-18T15:17:35Z</time></trkpt><trkpt lat="44.901721205428935" lon="7.358620315983483"><ele>336.25</ele><time>2026-04-18T15:17:36Z</time></trkpt><trkpt lat="44.90158442545658" lon="7.358620121450439"><ele>336.5</ele><time>2026-04-18T15:17:37Z</time></trkpt><trkpt lat="44.90145441273757" lon="7.358559367006572"><ele>336.75</ele><time>2026-04-18T15:17:38Z</time></trkpt><trkpt lat="44.901356193968" lon="7.358357596338006"><ele>337.0</ele><time>2026-04-18T15:17:39Z</time></trkpt><trkpt lat="44.90123605760094" lon="7.35822250321453"><ele>337.0</ele><time>2026-04-18T15:17:40Z</time></trkpt><trkpt lat="44.90109598048337" lon="7.358109228515466"><ele>337.0</ele><time>2026-04-18T15:17:41Z</time></trkpt><trkpt lat="44.900918194522184" lon="7.358033048310583"><ele>337.0</ele><time>2026-04-18T15:17:42Z</time></trkpt><trkpt lat="44.90072299545756" lon="7.357976455661156"><ele>338.3333333333333</ele><time>2026-04-18T15:17:43Z</time></trkpt><trkpt lat="44.90053843459736" lon="7.35791212626695"><ele>339.6666666666667</ele><time>2026-04-18T15:17:44Z</time></trkpt><trkpt lat="44.90036687099877" lon="7.357846970744892"><ele>341.0</ele><time>2026-04-18T15:17:45Z</time></trkpt><trkpt lat="44.900194147978645" lon="7.35777780700052"><ele>341.6666666666667</ele><time>2026-04-18T15:17:46Z</time></trkpt><trkpt lat="44.900015034702925" lon="7.357707180920745"><ele>342.3333333333333</ele><time>2026-04-18T15:17:47Z</time></trkpt><trkpt lat="44.89981975901736" lon="7.357628724252461"><ele>343.0</ele><time>2026-04-18T15:17:48Z</time></trkpt><trkpt lat="44.89960688311815" lon="7.357544641471075"><ele>343.0</ele><time>2026-04-18T15:17:49Z</time></trkpt><trkpt lat="44.89939801813525" lon="7.3574767131035195"><ele>343.0</ele><time>2026-04-18T15:17:50Z</time></trkpt><trkpt lat="44.89918917151945" lon="7.357379851257688"><ele>343.0</ele><time>2026-04-18T15:17:51Z</time></trkpt><trkpt lat="44.898971643162206" lon="7.357312383009236"><ele>345.0</ele><time>2026-04-18T15:17:52Z</time></trkpt><trkpt lat="44.898760723681974" lon="7.357231093151843"><ele>347.0</ele><time>2026-04-18T15:17:53Z</time></trkpt><trkpt lat="44.89853927392321" lon="7.357142462777626"><ele>349.0</ele><time>2026-04-18T15:17:54Z</time></trkpt><trkpt lat="44.898308773762174" lon="7.3570437471159105"><ele>351.5</ele><time>2026-04-18T15:17:55Z</time></trkpt><trkpt lat="44.898076040964455" lon="7.356944396261539"><ele>354.0</ele><time>2026-04-18T15:17:56Z</time></trkpt><trkpt lat="44.89787084614361" lon="7.35687268331406"><ele>354.0</ele><time>2026-04-18T15:17:57Z</time></trkpt><trkpt lat="44.897601929506976" lon="7.356774737108375"><ele>354.0</ele><time>2026-04-18T15:17:58Z</time></trkpt><trkpt lat="44.89734506683774" lon="7.356668177567866"><ele>352.0</ele><time>2026-04-18T15:17:59Z</time></trkpt><trkpt lat="44.897095816591985" lon="7.356570762668475"><ele>350.0</ele><time>2026-04-18T15:18:00Z</time></trkpt><trkpt lat="44.89694661671624" lon="7.35651291805414"><ele>348.0</ele><time>2026-04-18T15:18:01Z</time></trkpt><trkpt lat="44.896709703206994" lon="7.356433804692214"><ele>346.5</ele><time>2026-04-18T15:18:02Z</time></trkpt><trkpt lat="44.89646775871467" lon="7.356339677371243"><ele>345.0</ele><time>2026-04-18T15:18:03Z</time></trkpt><trkpt lat="44.89620920086793" lon="7.356233930286499"><ele>345.0</ele><time>2026-04-18T15:18:04Z</time></trkpt><trkpt lat="44.89597010638623" lon="7.35614025423293"><ele>345.0</ele><time>2026-04-18T15:18:05Z</time></trkpt><trkpt lat="44.895759507740145" lon="7.35607370875121"><ele>345.0</ele><time>2026-04-18T15:18:06Z</time></trkpt><trkpt lat="44.895570650775916" lon="7.355994944018442"><ele>345.0</ele><time>2026-04-18T15:18:07Z</time></trkpt><trkpt lat="44.89539234006246" lon="7.35592179137881"><ele>345.0</ele><time>2026-04-18T15:18:08Z</time></trkpt><trkpt lat="44.89522740553577" lon="7.355856521602296"><ele>345.6666666666667</ele><time>2026-04-18T15:18:09Z</time></trkpt><trkpt lat="44.89507304834304" lon="7.355794274246681"><ele>346.33333333333337</ele><time>2026-04-18T15:18:10Z</time></trkpt><trkpt lat="44.8949346021902" lon="7.3557337501388735"><ele>347.0</ele><time>2026-04-18T15:18:11Z</time></trkpt><trkpt lat="44.89478351592419" lon="7.355662331865505"><ele>347.0</ele><time>2026-04-18T15:18:12Z</time></trkpt><trkpt lat="44.894632818052614" lon="7.355578202389101"><ele>347.0</ele><time>2026-04-18T15:18:13Z</time></trkpt><trkpt lat="44.89449777600663" lon="7.355487774937608"><ele>347.0</ele><time>2026-04-18T15:18:14Z</time></trkpt><trkpt lat="44.89438358438086" lon="7.3553923979497835"><ele>347.0</ele><time>2026-04-18T15:18:15Z</time></trkpt><trkpt lat="44.89427224845999" lon="7.35527954419202"><ele>346.75</ele><time>2026-04-18T15:18:16Z</time></trkpt><trkpt lat="44.89416485400427" lon="7.3551496298408905"><ele>346.5</ele><time>2026-04-18T15:18:17Z</time></trkpt><trkpt lat="44.894069007356116" lon="7.355011077073871"><ele>346.25</ele><time>2026-04-18T15:18:17.999Z</time></trkpt><trkpt lat="44.89398507206919" lon="7.354860320339509"><ele>346.0</ele><time>2026-04-18T15:18:18.999Z</time></trkpt><trkpt lat="44.89391351752023" lon="7.35470072354092"><ele>346.3333333333333</ele><time>2026-04-18T15:18:19.999Z</time></trkpt><trkpt lat="44.893865100652775" lon="7.354557259841538"><ele>346.66666666666663</ele><time>2026-04-18T15:18:20.999Z</time></trkpt><trkpt lat="44.893831405759926" lon="7.354433957935094"><ele>347.0</ele><time>2026-04-18T15:18:21.999Z</time></trkpt><trkpt lat="44.89380959908682" lon="7.354327501106378"><ele>347.3333333333333</ele><time>2026-04-18T15:18:22.999Z</time></trkpt><trkpt lat="44.893797906288704" lon="7.354227944607763"><ele>347.6666666666667</ele><time>2026-04-18T15:18:23.999Z</time></trkpt><trkpt lat="44.89381571844131" lon="7.354120390342904"><ele>348.0</ele><time>2026-04-18T15:18:24.999Z</time></trkpt><trkpt lat="44.89382125707336" lon="7.354003208221367"><ele>348.0</ele><time>2026-04-18T15:18:25.999Z</time></trkpt><trkpt lat="44.893812879160144" lon="7.353907513029909"><ele>348.0</ele><time>2026-04-18T15:18:26.999Z</time></trkpt><trkpt lat="44.893767358239714" lon="7.353841627415627"><ele>348.0</ele><time>2026-04-18T15:18:27.999Z</time></trkpt><trkpt lat="44.89364454168861" lon="7.353769659708893"><ele>348.0</ele><time>2026-04-18T15:18:28.999Z</time></trkpt><trkpt lat="44.89361130373327" lon="7.353641277653725"><ele>348.0</ele><time>2026-04-18T15:18:29.999Z</time></trkpt><trkpt lat="44.893614960268714" lon="7.353466889943364"><ele>348.4</ele><time>2026-04-18T15:18:30.999Z</time></trkpt><trkpt lat="44.89360981135296" lon="7.353307251841971"><ele>348.79999999999995</ele><time>2026-04-18T15:18:31.999Z</time></trkpt><trkpt lat="44.89359765516164" lon="7.353159324609629"><ele>349.2</ele><time>2026-04-18T15:18:32.999Z</time></trkpt><trkpt lat="44.893585896518914" lon="7.353021865149814"><ele>349.6</ele><time>2026-04-18T15:18:33.999Z</time></trkpt><trkpt lat="44.89356946271465" lon="7.352875617702849"><ele>350.0</ele><time>2026-04-18T15:18:34.999Z</time></trkpt><trkpt lat="44.89354434624511" lon="7.352710708783514"><ele>350.6</ele><time>2026-04-18T15:18:35.999Z</time></trkpt><trkpt lat="44.8935143565604" lon="7.352533038739332"><ele>351.2</ele><time>2026-04-18T15:18:36.999Z</time></trkpt><trkpt lat="44.89348525341417" lon="7.3523756242322476"><ele>351.79999999999995</ele><time>2026-04-18T15:18:37.999Z</time></trkpt><trkpt lat="44.8934551736793" lon="7.352243260483046"><ele>352.4</ele><time>2026-04-18T15:18:38.999Z</time></trkpt><trkpt lat="44.893416206131135" lon="7.352104187872021"><ele>353.0</ele><time>2026-04-18T15:18:39.999Z</time></trkpt><trkpt lat="44.89337234551798" lon="7.351945515615299"><ele>353.2</ele><time>2026-04-18T15:18:40.999Z</time></trkpt><trkpt lat="44.8933301834829" lon="7.351809240661176"><ele>353.4</ele><time>2026-04-18T15:18:41.999Z</time></trkpt><trkpt lat="44.89329474925706" lon="7.351687873084727"><ele>353.59999999999997</ele><time>2026-04-18T15:18:42.999Z</time></trkpt><trkpt lat="44.89326496336071" lon="7.351582330949184"><ele>353.79999999999995</ele><time>2026-04-18T15:18:43.999Z</time></trkpt><trkpt lat="44.89323629822516" lon="7.35148694739709"><ele>354.0</ele><time>2026-04-18T15:18:44.999Z</time></trkpt><trkpt lat="44.89319267784494" lon="7.351351454676631"><ele>354.0</ele><time>2026-04-18T15:18:45.999Z</time></trkpt><trkpt lat="44.8931503615421" lon="7.351196345430024"><ele>354.0</ele><time>2026-04-18T15:18:46.999Z</time></trkpt><trkpt lat="44.893115371932076" lon="7.351070533944946"><ele>354.0</ele><time>2026-04-18T15:18:47.999Z</time></trkpt><trkpt lat="44.89308565343599" lon="7.350966933017389"><ele>354.0</ele><time>2026-04-18T15:18:48.999Z</time></trkpt><trkpt lat="44.893062775848" lon="7.350869235658993"><ele>354.0</ele><time>2026-04-18T15:18:49.999Z</time></trkpt><trkpt lat="44.893037422596564" lon="7.350758294243441"><ele>354.0</ele><time>2026-04-18T15:18:50.999Z</time></trkpt><trkpt lat="44.89301672989122" lon="7.350658579738406"><ele>354.0</ele><time>2026-04-18T15:18:51.999Z</time></trkpt><trkpt lat="44.89298838528555" lon="7.350489795838676"><ele>354.0</ele><time>2026-04-18T15:18:53.999Z</time></trkpt><trkpt lat="44.89297168526209" lon="7.350341514940051"><ele>354.0</ele><time>2026-04-18T15:18:55.999Z</time></trkpt><trkpt lat="44.89298613116811" lon="7.35016838983096"><ele>354.0</ele><time>2026-04-18T15:18:57.999Z</time></trkpt><trkpt lat="44.893015752287184" lon="7.350068715600933"><ele>354.0</ele><time>2026-04-18T15:18:58.999Z</time></trkpt><trkpt lat="44.89303585240535" lon="7.349961094266616"><ele>354.0</ele><time>2026-04-18T15:18:59.999Z</time></trkpt><trkpt lat="44.893016897271586" lon="7.34984054447718"><ele>354.0</ele><time>2026-04-18T15:19:01Z</time></trkpt><trkpt lat="44.892951840905205" lon="7.349740476485536"><ele>354.0</ele><time>2026-04-18T15:19:02Z</time></trkpt><trkpt lat="44.892880275455546" lon="7.3496521154809145"><ele>354.0</ele><time>2026-04-18T15:19:03Z</time></trkpt><trkpt lat="44.89285449187735" lon="7.349509153392061"><ele>354.0</ele><time>2026-04-18T15:19:04Z</time></trkpt><trkpt lat="44.89286185031166" lon="7.3493352814189725"><ele>354.0</ele><time>2026-04-18T15:19:05Z</time></trkpt><trkpt lat="44.89287079264017" lon="7.349153105789664"><ele>354.0</ele><time>2026-04-18T15:19:06Z</time></trkpt><trkpt lat="44.892875318067524" lon="7.348986915810999"><ele>354.0</ele><time>2026-04-18T15:19:07Z</time></trkpt><trkpt lat="44.89286982883815" lon="7.34885843318051"><ele>354.0</ele><time>2026-04-18T15:19:08Z</time></trkpt><trkpt lat="44.89286404570707" lon="7.348748316302575"><ele>354.0</ele><time>2026-04-18T15:19:09Z</time></trkpt><trkpt lat="44.89285813434387" lon="7.34865849230191"><ele>354.5</ele><time>2026-04-18T15:19:10Z</time></trkpt><trkpt lat="44.89285249981406" lon="7.348568712318878"><ele>355.0</ele><time>2026-04-18T15:19:11Z</time></trkpt><trkpt lat="44.89284369610619" lon="7.348471586195586"><ele>355.5</ele><time>2026-04-18T15:19:12Z</time></trkpt><trkpt lat="44.89285156776319" lon="7.348353374047053"><ele>356.0</ele><time>2026-04-18T15:19:14Z</time></trkpt><trkpt lat="44.892950576350515" lon="7.348350942889972"><ele>356.5</ele><time>2026-04-18T15:19:15Z</time></trkpt><trkpt lat="44.89301888539296" lon="7.348296296269716"><ele>357.0</ele><time>2026-04-18T15:19:16Z</time></trkpt><trkpt lat="44.8931331600402" lon="7.348257499493227"><ele>357.0</ele><time>2026-04-18T15:19:17Z</time></trkpt><trkpt lat="44.893270851118366" lon="7.3482045462688035"><ele>357.0</ele><time>2026-04-18T15:19:18Z</time></trkpt><trkpt lat="44.89339459824754" lon="7.34816810757282"><ele>357.0</ele><time>2026-04-18T15:19:19Z</time></trkpt><trkpt lat="44.893496017460166" lon="7.348112584526517"><ele>357.0</ele><time>2026-04-18T15:19:20Z</time></trkpt><trkpt lat="44.89358078119691" lon="7.3480644850029275"><ele>356.75</ele><time>2026-04-18T15:19:21Z</time></trkpt><trkpt lat="44.89365179728427" lon="7.348037019059327"><ele>356.5</ele><time>2026-04-18T15:19:22Z</time></trkpt><trkpt lat="44.89371793492464" lon="7.34797363606155"><ele>356.25</ele><time>2026-04-18T15:19:24Z</time></trkpt><trkpt lat="44.893626498931084" lon="7.3477153465383775"><ele>356.0</ele><time>2026-04-18T15:19:27Z</time></trkpt><trkpt lat="44.89355480522607" lon="7.347535250686892"><ele>356.0</ele><time>2026-04-18T15:19:28Z</time></trkpt><trkpt lat="44.89350016902211" lon="7.34740870291767"><ele>356.0</ele><time>2026-04-18T15:19:29Z</time></trkpt><trkpt lat="44.89346633586187" lon="7.347322962457732"><ele>356.0</ele><time>2026-04-18T15:19:30Z</time></trkpt><trkpt lat="44.8934316938517" lon="7.347221835830806"><ele>356.0</ele><time>2026-04-18T15:19:32Z</time></trkpt><trkpt lat="44.893624283216894" lon="7.3471344261436675"><ele>356.4</ele><time>2026-04-18T15:19:34Z</time></trkpt><trkpt lat="44.89374139345989" lon="7.347049897823838"><ele>356.8</ele><time>2026-04-18T15:19:35Z</time></trkpt><trkpt lat="44.89383605893676" lon="7.346986732091417"><ele>357.2</ele><time>2026-04-18T15:19:36Z</time></trkpt><trkpt lat="44.89390114957886" lon="7.346935774313912"><ele>357.59999999999997</ele><time>2026-04-18T15:19:37Z</time></trkpt><trkpt lat="44.89400684954306" lon="7.346859716713985"><ele>358.0</ele><time>2026-04-18T15:19:39Z</time></trkpt><trkpt lat="44.89406868607836" lon="7.346839856796512"><ele>358.0</ele><time>2026-04-18T15:19:41Z</time></trkpt><trkpt lat="44.89408520613028" lon="7.346937539884363"><ele>358.0</ele><time>2026-04-18T15:20:38.999Z</time></trkpt><trkpt lat="44.89412517318768" lon="7.347042982111465"><ele>358.0</ele><time>2026-04-18T15:20:41.999Z</time></trkpt><trkpt lat="44.89418085496494" lon="7.347130287503576"><ele>358.0</ele><time>2026-04-18T15:20:43.999Z</time></trkpt><trkpt lat="44.8942661320863" lon="7.347105898372255"><ele>355.0</ele><time>2026-04-18T15:20:46.999Z</time></trkpt></trkseg></trk></gpx>